Darstellungsparameter: Aktuell verwendete Einstellungen:
Skalierung der Graphiken ... ?
xyx+y,   Skalierungsfaktor:      Skalierung: Modus: x, Faktor: 1
Darstellungszeitraum ... ?
Vom - - bis: - -   Zeitraum: 30.06.2019 - 29.07.2019
Min/Max/Avg-Anzeige ... ?
Zeige MMA aktuell
Zeige MMA Monat
Zeige MMA alles
Zeige --A aktuell
Zeige --A Monat
Zeige --A alles
Keine MMA-Anzeige
MMA:
Keine MMA-Graphiken
MMA-Basis: 30.06.2019 - 29.07.2019
Quicknavigation für Darstellung... ?
Tage:      1T, 2T, 3T, 5T -1T -2T -3T -5T +1T +2T +3T +5T
Wochen: 1W, 2W, 3W -1W -2W -3W +1W +2W +3W
Monate: 1M, 3M, 6M -1M -3M -6M +1M +3M +6M
Jahre:    1J, 3J, 5J, 10J -1J -3J -5J -10J +1J +3J +5J +10J
Nutze für die Darstellung ... ?
Originaldaten oder Mittelwerte auf ...
Stundenbasis Tagesbasis Wochenbasis
Monatsbasis Jahresbasis      Datenbasis: Original-Daten
Darstellen als:
Statistik (Auto) Statistik J:M      Darstellung:
Zur Graphik,    zurück zur Übersicht aller Sensoren.
 
Tabellarische Datenbersicht: ?
 
Sensor: Nr:Datum:Temp:Feuchte:Taupunkt:
Aussen-T/F 1 30-06-2019 00:00:00 20 C 62 % 12.5 C
2 30-06-2019 00:05:00 19.8 C 63 % 12.56 C
3 30-06-2019 00:10:00 19.6 C 63 % 12.37 C
4 30-06-2019 00:15:00 19.3 C 64 % 12.32 C
5 30-06-2019 00:20:00 19.2 C 65 % 12.47 C
6 30-06-2019 00:25:00 18.9 C 66 % 12.41 C
7 30-06-2019 00:30:00 18.8 C 67 % 12.55 C
8 30-06-2019 00:35:00 18.6 C 67 % 12.36 C
9 30-06-2019 00:40:00 18.4 C 68 % 12.39 C
10 30-06-2019 00:45:00 18.3 C 68 % 12.3 C
11 30-06-2019 00:50:00 18.2 C 68 % 12.2 C
12 30-06-2019 00:55:00 18.1 C 69 % 12.33 C
13 30-06-2019 01:00:00 18 C 69 % 12.23 C
14 30-06-2019 01:05:00 18 C 70 % 12.45 C
15 30-06-2019 01:10:00 17.9 C 71 % 12.57 C
16 30-06-2019 01:15:00 17.8 C 72 % 12.69 C
17 30-06-2019 01:20:00 17.7 C 72 % 12.59 C
18 30-06-2019 01:25:00 17.6 C 73 % 12.71 C
19 30-06-2019 01:30:00 17.4 C 73 % 12.51 C
20 30-06-2019 01:35:00 17.3 C 73 % 12.42 C
21 30-06-2019 01:40:00 17.2 C 73 % 12.32 C
22 30-06-2019 01:45:00 17.2 C 73 % 12.32 C
23 30-06-2019 01:50:00 17.1 C 73 % 12.23 C
24 30-06-2019 01:55:00 17.1 C 74 % 12.43 C
25 30-06-2019 02:00:00 17 C 74 % 12.34 C
Sensor: Nr:Datum:Temp:Feuchte:Taupunkt:
Aussen-T/F 26 30-06-2019 02:05:00 16.9 C 74 % 12.24 C
27 30-06-2019 02:10:00 16.9 C 74 % 12.24 C
28 30-06-2019 02:15:00 16.9 C 75 % 12.44 C
29 30-06-2019 02:20:00 16.9 C 75 % 12.44 C
30 30-06-2019 02:25:00 16.8 C 75 % 12.35 C
31 30-06-2019 02:30:00 16.7 C 76 % 12.45 C
32 30-06-2019 02:35:00 16.7 C 76 % 12.45 C
33 30-06-2019 02:40:00 16.6 C 77 % 12.55 C
34 30-06-2019 02:45:00 16.6 C 77 % 12.55 C
35 30-06-2019 02:50:00 16.5 C 77 % 12.46 C
36 30-06-2019 02:55:00 16.5 C 77 % 12.46 C
37 30-06-2019 03:00:00 16.4 C 78 % 12.56 C
38 30-06-2019 03:05:00 16.3 C 78 % 12.46 C
39 30-06-2019 03:10:00 16.3 C 78 % 12.46 C
40 30-06-2019 03:15:00 16.2 C 78 % 12.36 C
41 30-06-2019 03:20:00 16.2 C 78 % 12.36 C
42 30-06-2019 03:25:00 16.2 C 79 % 12.56 C
43 30-06-2019 03:30:00 16.1 C 79 % 12.46 C
44 30-06-2019 03:35:00 16.1 C 79 % 12.46 C
45 30-06-2019 03:40:00 16 C 79 % 12.36 C
46 30-06-2019 03:45:00 15.9 C 79 % 12.27 C
47 30-06-2019 03:50:00 15.8 C 80 % 12.36 C
48 30-06-2019 03:55:00 15.8 C 80 % 12.36 C
49 30-06-2019 04:00:00 15.8 C 80 % 12.36 C
50 30-06-2019 04:05:00 15.8 C 80 % 12.36 C
Sensor: Nr:Datum:Temp:Feuchte:Taupunkt:
Aussen-T/F 51 30-06-2019 04:10:00 15.7 C 80 % 12.26 C
52 30-06-2019 04:15:00 15.7 C 81 % 12.45 C
53 30-06-2019 04:20:00 15.7 C 82 % 12.64 C
54 30-06-2019 04:25:00 15.7 C 82 % 12.64 C
55 30-06-2019 04:30:00 15.6 C 81 % 12.35 C
56 30-06-2019 04:35:00 15.5 C 82 % 12.44 C
57 30-06-2019 04:40:00 15.4 C 82 % 12.35 C
58 30-06-2019 04:45:00 15.4 C 82 % 12.35 C
59 30-06-2019 04:50:00 15.4 C 82 % 12.35 C
60 30-06-2019 04:55:00 15.3 C 82 % 12.25 C
61 30-06-2019 05:00:00 15.3 C 82 % 12.25 C
62 30-06-2019 05:05:00 15.2 C 82 % 12.15 C
63 30-06-2019 05:10:00 15.2 C 83 % 12.33 C
64 30-06-2019 05:15:00 15.1 C 83 % 12.24 C
65 30-06-2019 05:20:00 15.1 C 83 % 12.24 C
66 30-06-2019 05:25:00 15.1 C 84 % 12.42 C
67 30-06-2019 05:30:00 15.1 C 84 % 12.42 C
68 30-06-2019 05:35:00 15 C 84 % 12.32 C
69 30-06-2019 05:40:00 15 C 84 % 12.32 C
70 30-06-2019 05:45:00 14.9 C 84 % 12.22 C
71 30-06-2019 05:50:00 14.8 C 85 % 12.3 C
72 30-06-2019 05:55:00 14.8 C 85 % 12.3 C
73 30-06-2019 06:00:00 14.8 C 86 % 12.48 C
74 30-06-2019 06:05:00 14.8 C 86 % 12.48 C
75 30-06-2019 06:10:00 14.8 C 86 % 12.48 C
Sensor: Nr:Datum:Temp:Feuchte:Taupunkt:
Aussen-T/F 76 30-06-2019 06:15:00 14.8 C 86 % 12.48 C
77 30-06-2019 06:20:00 14.8 C 86 % 12.48 C
78 30-06-2019 06:25:00 14.8 C 86 % 12.48 C
79 30-06-2019 06:30:00 14.8 C 87 % 12.66 C
80 30-06-2019 06:35:00 14.9 C 87 % 12.76 C
81 30-06-2019 06:40:00 14.9 C 87 % 12.76 C
82 30-06-2019 06:45:00 14.9 C 87 % 12.76 C
83 30-06-2019 06:50:00 14.9 C 87 % 12.76 C
84 30-06-2019 06:55:00 15 C 87 % 12.86 C
85 30-06-2019 07:00:00 15 C 87 % 12.86 C
86 30-06-2019 07:05:00 15.1 C 87 % 12.95 C
87 30-06-2019 07:10:00 15.1 C 88 % 13.13 C
88 30-06-2019 07:15:00 15.2 C 88 % 13.23 C
89 30-06-2019 07:20:00 15.3 C 88 % 13.33 C
90 30-06-2019 07:25:00 15.4 C 88 % 13.42 C
91 30-06-2019 07:30:00 15.5 C 88 % 13.52 C
92 30-06-2019 07:35:00 15.6 C 88 % 13.62 C
93 30-06-2019 07:40:00 15.7 C 88 % 13.72 C
94 30-06-2019 07:45:00 15.7 C 88 % 13.72 C
95 30-06-2019 07:50:00 15.8 C 88 % 13.82 C
96 30-06-2019 07:55:00 15.9 C 88 % 13.92 C
97 30-06-2019 08:00:00 16.1 C 88 % 14.11 C
98 30-06-2019 08:05:00 16.3 C 88 % 14.31 C
99 30-06-2019 08:10:00 16.4 C 87 % 14.23 C
100 30-06-2019 08:15:00 16.6 C 87 % 14.43 C
Sensor: Nr:Datum:Temp:Feuchte:Taupunkt:
Aussen-T/F 101 30-06-2019 08:20:00 16.7 C 87 % 14.53 C
102 30-06-2019 08:25:00 16.8 C 86 % 14.45 C
103 30-06-2019 08:30:00 17.1 C 87 % 14.92 C
104 30-06-2019 08:35:00 17.2 C 86 % 14.84 C
105 30-06-2019 08:40:00 17.4 C 86 % 15.03 C
106 30-06-2019 08:45:00 17.7 C 85 % 15.15 C
107 30-06-2019 08:50:00 17.9 C 85 % 15.34 C
108 30-06-2019 08:55:00 18.1 C 85 % 15.54 C
109 30-06-2019 09:00:00 18.3 C 85 % 15.74 C
110 30-06-2019 09:05:00 18.4 C 85 % 15.83 C
111 30-06-2019 09:10:00 18.7 C 84 % 15.94 C
112 30-06-2019 09:15:00 18.9 C 84 % 16.14 C
113 30-06-2019 09:20:00 19.1 C 84 % 16.33 C
114 30-06-2019 09:25:00 19.3 C 83 % 16.34 C
115 30-06-2019 09:30:00 19.6 C 82 % 16.44 C
116 30-06-2019 09:35:00 19.9 C 80 % 16.35 C
117 30-06-2019 09:40:00 20.3 C 79 % 16.54 C
118 30-06-2019 09:45:00 20.7 C 78 % 16.73 C
119 30-06-2019 09:50:00 21.2 C 78 % 17.21 C
120 30-06-2019 09:55:00 21.5 C 77 % 17.3 C
121 30-06-2019 10:00:00 21.9 C 75 % 17.27 C
122 30-06-2019 10:05:00 22.3 C 74 % 17.44 C
123 30-06-2019 10:10:00 22.7 C 73 % 17.61 C
124 30-06-2019 10:15:00 23.1 C 75 % 18.43 C
125 30-06-2019 10:20:00 23.5 C 73 % 18.38 C
Sensor: Nr:Datum:Temp:Feuchte:Taupunkt:
Aussen-T/F 126 30-06-2019 10:25:00 24.3 C 68 % 18.01 C
127 30-06-2019 10:30:00 25.3 C 65 % 18.25 C
128 30-06-2019 10:35:00 26.2 C 62 % 18.34 C
129 30-06-2019 10:40:00 27.4 C 58 % 18.4 C
130 30-06-2019 10:45:00 28.1 C 54 % 17.92 C
131 30-06-2019 10:50:00 28.7 C 51 % 17.56 C
132 30-06-2019 10:55:00 29.2 C 49 % 17.39 C
133 30-06-2019 11:00:00 29.5 C 49 % 17.66 C
134 30-06-2019 11:05:00 29.7 C 48 % 17.51 C
135 30-06-2019 11:10:00 29.8 C 49 % 17.93 C
136 30-06-2019 11:15:00 30.1 C 46 % 17.2 C
137 30-06-2019 11:20:00 30.3 C 46 % 17.39 C
138 30-06-2019 11:25:00 30.6 C 45 % 17.31 C
139 30-06-2019 11:30:00 30.8 C 44 % 17.13 C
140 30-06-2019 11:35:00 31 C 44 % 17.31 C
141 30-06-2019 11:40:00 31.1 C 43 % 17.04 C
142 30-06-2019 11:45:00 31.2 C 44 % 17.49 C
143 30-06-2019 11:50:00 31.4 C 43 % 17.31 C
144 30-06-2019 11:55:00 31.6 C 42 % 17.12 C
145 30-06-2019 12:00:00 31.7 C 43 % 17.58 C
146 30-06-2019 12:05:00 31.8 C 42 % 17.3 C
147 30-06-2019 12:10:00 31.9 C 42 % 17.39 C
148 30-06-2019 12:15:00 32.1 C 40 % 16.79 C
149 30-06-2019 12:20:00 32.2 C 41 % 17.27 C
150 30-06-2019 12:25:00 32.3 C 41 % 17.36 C
Sensor: Nr:Datum:Temp:Feuchte:Taupunkt:
Aussen-T/F 151 30-06-2019 12:30:00 32.4 C 39 % 16.66 C
152 30-06-2019 12:35:00 32.7 C 39 % 16.93 C
153 30-06-2019 12:40:00 32.9 C 39 % 17.11 C
154 30-06-2019 12:45:00 33.1 C 39 % 17.28 C
155 30-06-2019 12:50:00 33.3 C 38 % 17.05 C
156 30-06-2019 12:55:00 33.4 C 37 % 16.72 C
157 30-06-2019 13:00:00 33.8 C 36 % 16.64 C
158 30-06-2019 13:05:00 33.9 C 38 % 17.58 C
159 30-06-2019 13:10:00 34 C 37 % 17.25 C
160 30-06-2019 13:15:00 34.1 C 35 % 16.46 C
161 30-06-2019 13:20:00 34.3 C 35 % 16.63 C
162 30-06-2019 13:25:00 34.6 C 35 % 16.89 C
163 30-06-2019 13:30:00 34.8 C 35 % 17.07 C
164 30-06-2019 13:35:00 35 C 33 % 16.32 C
165 30-06-2019 13:40:00 35.1 C 34 % 16.87 C
166 30-06-2019 13:45:00 35.1 C 35 % 17.33 C
167 30-06-2019 13:50:00 35.2 C 34 % 16.96 C
168 30-06-2019 13:55:00 35.3 C 33 % 16.58 C
169 30-06-2019 14:00:00 35.4 C 34 % 17.13 C
170 30-06-2019 14:05:00 35.7 C 32 % 16.44 C
171 30-06-2019 14:10:00 35.8 C 33 % 17.01 C
172 30-06-2019 14:15:00 35.8 C 34 % 17.48 C
173 30-06-2019 14:20:00 35.8 C 34 % 17.48 C
174 30-06-2019 14:25:00 35.8 C 35 % 17.94 C
175 30-06-2019 14:30:00 36 C 35 % 18.12 C
Sensor: Nr:Datum:Temp:Feuchte:Taupunkt:
Aussen-T/F 176 30-06-2019 14:35:00 36.3 C 34 % 17.92 C
177 30-06-2019 14:40:00 36.4 C 34 % 18 C
178 30-06-2019 14:45:00 36.6 C 34 % 18.18 C
179 30-06-2019 14:50:00 36.4 C 36 % 18.92 C
180 30-06-2019 14:55:00 36.1 C 37 % 19.09 C
181 30-06-2019 15:00:00 35.8 C 36 % 18.39 C
182 30-06-2019 15:05:00 35.6 C 39 % 19.5 C
183 30-06-2019 15:10:00 35.4 C 38 % 18.9 C
184 30-06-2019 15:15:00 35.3 C 41 % 20.04 C
185 30-06-2019 15:20:00 35.4 C 40 % 19.73 C
186 30-06-2019 15:25:00 35.4 C 42 % 20.52 C
187 30-06-2019 15:30:00 35.3 C 41 % 20.04 C
188 30-06-2019 15:35:00 35.3 C 43 % 20.81 C
189 30-06-2019 15:40:00 35.5 C 43 % 20.99 C
190 30-06-2019 15:45:00 35.6 C 42 % 20.7 C
191 30-06-2019 15:50:00 35.7 C 41 % 20.39 C
192 30-06-2019 15:55:00 35.7 C 43 % 21.17 C
193 30-06-2019 16:00:00 35.7 C 43 % 21.17 C
194 30-06-2019 16:05:00 35.3 C 43 % 20.81 C
195 30-06-2019 16:10:00 35.2 C 45 % 21.46 C
196 30-06-2019 16:15:00 35.3 C 46 % 21.91 C
197 30-06-2019 16:20:00 35.1 C 46 % 21.73 C
198 30-06-2019 16:25:00 35 C 46 % 21.64 C
199 30-06-2019 16:30:00 35.2 C 45 % 21.46 C
200 30-06-2019 16:35:00 35.6 C 46 % 22.18 C
Sensor: Nr:Datum:Temp:Feuchte:Taupunkt:
Aussen-T/F 201 30-06-2019 16:40:00 35.9 C 45 % 22.09 C
202 30-06-2019 16:45:00 35.9 C 45 % 22.09 C
203 30-06-2019 16:50:00 35.8 C 45 % 22 C
204 30-06-2019 16:55:00 35.9 C 45 % 22.09 C
205 30-06-2019 17:00:00 35.9 C 46 % 22.45 C
206 30-06-2019 17:05:00 35.9 C 43 % 21.35 C
207 30-06-2019 17:10:00 35.9 C 45 % 22.09 C
208 30-06-2019 17:15:00 35.9 C 45 % 22.09 C
209 30-06-2019 17:20:00 35.7 C 46 % 22.27 C
210 30-06-2019 17:25:00 35.7 C 46 % 22.27 C
211 30-06-2019 17:30:00 35.9 C 46 % 22.45 C
212 30-06-2019 17:35:00 35.9 C 46 % 22.45 C
213 30-06-2019 17:40:00 35.8 C 46 % 22.36 C
214 30-06-2019 17:45:00 35.9 C 46 % 22.45 C
215 30-06-2019 17:50:00 35.9 C 46 % 22.45 C
216 30-06-2019 17:55:00 36.1 C 46 % 22.63 C
217 30-06-2019 18:00:00 35.9 C 46 % 22.45 C
218 30-06-2019 18:05:00 35.8 C 45 % 22 C
219 30-06-2019 18:10:00 35.6 C 45 % 21.82 C
220 30-06-2019 18:15:00 35.5 C 45 % 21.73 C
221 30-06-2019 18:20:00 35.3 C 45 % 21.55 C
222 30-06-2019 18:25:00 35.1 C 47 % 22.08 C
223 30-06-2019 18:30:00 34.8 C 47 % 21.81 C
224 30-06-2019 18:35:00 34.7 C 47 % 21.72 C
225 30-06-2019 18:40:00 34.4 C 48 % 21.79 C
Sensor: Nr:Datum:Temp:Feuchte:Taupunkt:
Aussen-T/F 226 30-06-2019 18:45:00 34.3 C 47 % 21.36 C
227 30-06-2019 18:50:00 34.2 C 47 % 21.27 C
228 30-06-2019 18:55:00 34.1 C 47 % 21.18 C
229 30-06-2019 19:00:00 33.9 C 48 % 21.34 C
230 30-06-2019 19:05:00 33.9 C 48 % 21.34 C
231 30-06-2019 19:10:00 33.7 C 48 % 21.16 C
232 30-06-2019 19:15:00 33.4 C 48 % 20.88 C
233 30-06-2019 19:20:00 32.9 C 50 % 21.09 C
234 30-06-2019 19:25:00 32.4 C 51 % 20.96 C
235 30-06-2019 19:30:00 32.4 C 53 % 21.58 C
236 30-06-2019 19:35:00 32.4 C 51 % 20.96 C
237 30-06-2019 19:40:00 32.3 C 52 % 21.18 C
238 30-06-2019 19:45:00 31.9 C 52 % 20.81 C
239 30-06-2019 19:50:00 31.6 C 53 % 20.85 C
240 30-06-2019 19:55:00 31.1 C 54 % 20.69 C
241 30-06-2019 20:00:00 30.8 C 55 % 20.71 C
242 30-06-2019 20:05:00 30.5 C 56 % 20.72 C
243 30-06-2019 20:10:00 30.3 C 57 % 20.83 C
244 30-06-2019 20:15:00 30 C 58 % 20.83 C
245 30-06-2019 20:20:00 29.6 C 59 % 20.73 C
246 30-06-2019 20:25:00 29.3 C 59 % 20.45 C
247 30-06-2019 20:30:00 29.1 C 61 % 20.81 C
248 30-06-2019 20:35:00 28.9 C 60 % 20.35 C
249 30-06-2019 20:40:00 28.7 C 60 % 20.16 C
250 30-06-2019 20:45:00 28.6 C 60 % 20.07 C
Sensor: Nr:Datum:Temp:Feuchte:Taupunkt:
Aussen-T/F 251 30-06-2019 20:50:00 28.3 C 60 % 19.79 C
252 30-06-2019 20:55:00 28.1 C 61 % 19.87 C
253 30-06-2019 21:00:00 27.9 C 61 % 19.68 C
254 30-06-2019 21:05:00 27.7 C 61 % 19.49 C
255 30-06-2019 21:10:00 27.5 C 62 % 19.57 C
256 30-06-2019 21:15:00 27.4 C 62 % 19.47 C
257 30-06-2019 21:20:00 27.3 C 62 % 19.38 C
258 30-06-2019 21:25:00 27.2 C 62 % 19.28 C
259 30-06-2019 21:30:00 27.1 C 62 % 19.19 C
260 30-06-2019 21:35:00 27 C 63 % 19.35 C
261 30-06-2019 21:40:00 26.9 C 63 % 19.26 C
262 30-06-2019 21:45:00 26.8 C 64 % 19.42 C
263 30-06-2019 21:50:00 26.7 C 64 % 19.32 C
264 30-06-2019 21:55:00 26.7 C 64 % 19.32 C
265 30-06-2019 22:00:00 26.7 C 64 % 19.32 C
266 30-06-2019 22:05:00 26.6 C 64 % 19.23 C
267 30-06-2019 22:10:00 26.6 C 64 % 19.23 C
268 30-06-2019 22:15:00 26.5 C 63 % 18.88 C
269 30-06-2019 22:20:00 26.4 C 64 % 19.04 C
270 30-06-2019 22:25:00 26.3 C 64 % 18.94 C
271 30-06-2019 22:30:00 26.3 C 63 % 18.69 C
272 30-06-2019 22:35:00 26.2 C 63 % 18.6 C
273 30-06-2019 22:40:00 26.1 C 64 % 18.76 C
274 30-06-2019 22:45:00 25.9 C 63 % 18.31 C
275 30-06-2019 22:50:00 25.8 C 64 % 18.47 C
Sensor: Nr:Datum:Temp:Feuchte:Taupunkt:
Aussen-T/F 276 30-06-2019 22:55:00 25.7 C 64 % 18.38 C
277 30-06-2019 23:00:00 25.6 C 65 % 18.53 C
278 30-06-2019 23:05:00 25.4 C 64 % 18.09 C
279 30-06-2019 23:10:00 25.3 C 64 % 18 C
280 30-06-2019 23:15:00 25.2 C 65 % 18.15 C
281 30-06-2019 23:20:00 25 C 65 % 17.96 C
282 30-06-2019 23:25:00 24.8 C 66 % 18.01 C
283 30-06-2019 23:30:00 24.5 C 68 % 18.2 C
284 30-06-2019 23:35:00 24.2 C 68 % 17.92 C
285 30-06-2019 23:40:00 23.9 C 69 % 17.87 C
286 30-06-2019 23:45:00 23.8 C 69 % 17.77 C
287 30-06-2019 23:50:00 23.6 C 70 % 17.81 C
288 30-06-2019 23:55:00 23.4 C 71 % 17.84 C
289 01-07-2019 00:00:00 23.3 C 71 % 17.75 C
290 01-07-2019 00:05:00 23.2 C 71 % 17.65 C
291 01-07-2019 00:10:00 23.1 C 72 % 17.78 C
292 01-07-2019 00:15:00 22.9 C 73 % 17.8 C
293 01-07-2019 00:20:00 22.8 C 73 % 17.71 C
294 01-07-2019 00:25:00 22.7 C 73 % 17.61 C
295 01-07-2019 00:30:00 22.6 C 74 % 17.73 C
296 01-07-2019 00:35:00 22.4 C 74 % 17.54 C
297 01-07-2019 00:40:00 22.4 C 74 % 17.54 C
298 01-07-2019 00:45:00 22.3 C 74 % 17.44 C
299 01-07-2019 00:50:00 22.3 C 74 % 17.44 C
300 01-07-2019 00:55:00 22.2 C 74 % 17.34 C
Sensor: Nr:Datum:Temp:Feuchte:Taupunkt:
Aussen-T/F 301 01-07-2019 01:00:00 22.2 C 74 % 17.34 C
302 01-07-2019 01:05:00 22.2 C 74 % 17.34 C
303 01-07-2019 01:10:00 22.2 C 74 % 17.34 C
304 01-07-2019 01:15:00 22.2 C 74 % 17.34 C
305 01-07-2019 01:20:00 22.2 C 75 % 17.56 C
306 01-07-2019 01:25:00 22.1 C 75 % 17.46 C
307 01-07-2019 01:30:00 22.1 C 74 % 17.25 C
308 01-07-2019 01:35:00 22.3 C 73 % 17.23 C
309 01-07-2019 01:40:00 22.6 C 72 % 17.3 C
310 01-07-2019 01:45:00 22.7 C 71 % 17.17 C
311 01-07-2019 01:50:00 22.8 C 70 % 17.04 C
312 01-07-2019 01:55:00 22.8 C 71 % 17.27 C
313 01-07-2019 02:00:00 22.7 C 71 % 17.17 C
314 01-07-2019 02:05:00 22.4 C 72 % 17.1 C
315 01-07-2019 02:10:00 22.2 C 72 % 16.91 C
316 01-07-2019 02:15:00 22 C 73 % 16.94 C
317 01-07-2019 02:20:00 21.8 C 74 % 16.96 C
318 01-07-2019 02:25:00 21.6 C 74 % 16.77 C
319 01-07-2019 02:30:00 21.4 C 75 % 16.79 C
320 01-07-2019 02:35:00 21.3 C 75 % 16.69 C
321 01-07-2019 02:40:00 21.2 C 75 % 16.59 C
322 01-07-2019 02:45:00 21.1 C 76 % 16.7 C
323 01-07-2019 02:50:00 21 C 75 % 16.4 C
324 01-07-2019 02:55:00 20.9 C 75 % 16.3 C
325 01-07-2019 03:00:00 20.9 C 74 % 16.09 C
Sensor: Nr:Datum:Temp:Feuchte:Taupunkt:
Aussen-T/F 326 01-07-2019 03:05:00 20.9 C 75 % 16.3 C
327 01-07-2019 03:10:00 20.9 C 75 % 16.3 C
328 01-07-2019 03:15:00 20.8 C 73 % 15.78 C
329 01-07-2019 03:20:00 20.8 C 73 % 15.78 C
330 01-07-2019 03:25:00 20.9 C 72 % 15.66 C
331 01-07-2019 03:30:00 21.1 C 71 % 15.64 C
332 01-07-2019 03:35:00 21.2 C 70 % 15.51 C
333 01-07-2019 03:40:00 21.2 C 70 % 15.51 C
334 01-07-2019 03:45:00 21.1 C 70 % 15.42 C
335 01-07-2019 03:50:00 21.1 C 71 % 15.64 C
336 01-07-2019 03:55:00 20.9 C 71 % 15.45 C
337 01-07-2019 04:00:00 20.9 C 70 % 15.23 C
338 01-07-2019 04:05:00 20.8 C 70 % 15.13 C
339 01-07-2019 04:10:00 20.8 C 70 % 15.13 C
340 01-07-2019 04:15:00 20.7 C 71 % 15.25 C
341 01-07-2019 04:20:00 20.6 C 71 % 15.16 C
342 01-07-2019 04:25:00 20.3 C 72 % 15.09 C
343 01-07-2019 04:30:00 20.2 C 73 % 15.21 C
344 01-07-2019 04:35:00 20 C 72 % 14.8 C
345 01-07-2019 04:40:00 20 C 73 % 15.01 C
346 01-07-2019 04:45:00 19.9 C 72 % 14.7 C
347 01-07-2019 04:50:00 20 C 73 % 15.01 C
348 01-07-2019 04:55:00 19.9 C 74 % 15.13 C
349 01-07-2019 05:00:00 19.9 C 74 % 15.13 C
350 01-07-2019 05:05:00 19.8 C 74 % 15.03 C
Sensor: Nr:Datum:Temp:Feuchte:Taupunkt:
Aussen-T/F 351 01-07-2019 05:10:00 19.8 C 73 % 14.82 C
352 01-07-2019 05:15:00 19.8 C 73 % 14.82 C
353 01-07-2019 05:20:00 19.8 C 73 % 14.82 C
354 01-07-2019 05:25:00 19.8 C 73 % 14.82 C
355 01-07-2019 05:30:00 19.7 C 73 % 14.73 C
356 01-07-2019 05:35:00 19.6 C 73 % 14.63 C
357 01-07-2019 05:40:00 19.5 C 73 % 14.53 C
358 01-07-2019 05:45:00 19.4 C 73 % 14.44 C
359 01-07-2019 05:50:00 19.4 C 73 % 14.44 C
360 01-07-2019 05:55:00 19.4 C 72 % 14.22 C
361 01-07-2019 06:00:00 19.5 C 72 % 14.32 C
362 01-07-2019 06:05:00 19.6 C 71 % 14.2 C
363 01-07-2019 06:10:00 19.6 C 72 % 14.42 C
364 01-07-2019 06:15:00 19.6 C 72 % 14.42 C
365 01-07-2019 06:20:00 19.6 C 72 % 14.42 C
366 01-07-2019 06:25:00 19.6 C 70 % 13.98 C
367 01-07-2019 06:30:00 19.7 C 71 % 14.3 C
368 01-07-2019 06:35:00 19.7 C 72 % 14.51 C
369 01-07-2019 06:40:00 19.8 C 70 % 14.17 C
370 01-07-2019 06:45:00 19.8 C 70 % 14.17 C
371 01-07-2019 06:50:00 19.8 C 69 % 13.95 C
372 01-07-2019 06:55:00 19.9 C 70 % 14.27 C
373 01-07-2019 07:00:00 19.8 C 68 % 13.73 C
374 01-07-2019 07:05:00 19.8 C 69 % 13.95 C
375 01-07-2019 07:10:00 19.8 C 70 % 14.17 C
Sensor: Nr:Datum:Temp:Feuchte:Taupunkt:
Aussen-T/F 376 01-07-2019 07:15:00 19.8 C 70 % 14.17 C
377 01-07-2019 07:20:00 19.8 C 71 % 14.39 C
378 01-07-2019 07:25:00 19.7 C 72 % 14.51 C
379 01-07-2019 07:30:00 19.7 C 73 % 14.73 C
380 01-07-2019 07:35:00 19.6 C 71 % 14.2 C
381 01-07-2019 07:40:00 19.6 C 72 % 14.42 C
382 01-07-2019 07:45:00 19.5 C 71 % 14.1 C
383 01-07-2019 07:50:00 19.5 C 72 % 14.32 C
384 01-07-2019 07:55:00 19.5 C 72 % 14.32 C
385 01-07-2019 08:00:00 19.4 C 72 % 14.22 C
386 01-07-2019 08:05:00 19.4 C 72 % 14.22 C
387 01-07-2019 08:10:00 19.4 C 72 % 14.22 C
388 01-07-2019 08:15:00 19.6 C 71 % 14.2 C
389 01-07-2019 08:20:00 19.6 C 70 % 13.98 C
390 01-07-2019 08:25:00 19.7 C 72 % 14.51 C
391 01-07-2019 08:30:00 19.8 C 71 % 14.39 C
392 01-07-2019 08:35:00 19.9 C 70 % 14.27 C
393 01-07-2019 08:40:00 20 C 70 % 14.36 C
394 01-07-2019 08:45:00 20.2 C 70 % 14.56 C
395 01-07-2019 08:50:00 20.2 C 68 % 14.11 C
396 01-07-2019 08:55:00 20.3 C 70 % 14.65 C
397 01-07-2019 09:00:00 20.3 C 69 % 14.43 C
398 01-07-2019 09:05:00 20.3 C 68 % 14.2 C
399 01-07-2019 09:10:00 20.3 C 67 % 13.97 C
400 01-07-2019 09:15:00 20.3 C 68 % 14.2 C
Sensor: Nr:Datum:Temp:Feuchte:Taupunkt:
Aussen-T/F 401 01-07-2019 09:20:00 20.3 C 69 % 14.43 C
402 01-07-2019 09:25:00 20.2 C 70 % 14.56 C
403 01-07-2019 09:30:00 20.2 C 70 % 14.56 C
404 01-07-2019 09:35:00 20.1 C 70 % 14.46 C
405 01-07-2019 09:40:00 20.1 C 70 % 14.46 C
406 01-07-2019 09:45:00 20.2 C 70 % 14.56 C
407 01-07-2019 09:50:00 20.2 C 70 % 14.56 C
408 01-07-2019 09:55:00 20.4 C 70 % 14.75 C
409 01-07-2019 10:00:00 20.6 C 70 % 14.94 C
410 01-07-2019 10:05:00 20.8 C 68 % 14.68 C
411 01-07-2019 10:10:00 20.8 C 68 % 14.68 C
412 01-07-2019 10:15:00 20.9 C 68 % 14.77 C
413 01-07-2019 10:20:00 21.2 C 69 % 15.29 C
414 01-07-2019 10:25:00 21.4 C 68 % 15.25 C
415 01-07-2019 10:30:00 21.6 C 67 % 15.21 C
416 01-07-2019 10:35:00 21.5 C 67 % 15.12 C
417 01-07-2019 10:40:00 21.4 C 72 % 16.14 C
418 01-07-2019 10:45:00 21.4 C 71 % 15.93 C
419 01-07-2019 10:50:00 21.5 C 69 % 15.57 C
420 01-07-2019 10:55:00 21.4 C 69 % 15.48 C
421 01-07-2019 11:00:00 21.4 C 69 % 15.48 C
422 01-07-2019 11:05:00 21.4 C 69 % 15.48 C
423 01-07-2019 11:10:00 21.4 C 70 % 15.7 C
424 01-07-2019 11:15:00 21.4 C 70 % 15.7 C
425 01-07-2019 11:20:00 21.6 C 70 % 15.89 C
Sensor: Nr:Datum:Temp:Feuchte:Taupunkt:
Aussen-T/F 426 01-07-2019 11:25:00 21.6 C 70 % 15.89 C
427 01-07-2019 11:30:00 21.7 C 71 % 16.21 C
428 01-07-2019 11:35:00 21.9 C 70 % 16.18 C
429 01-07-2019 11:40:00 22.1 C 70 % 16.37 C
430 01-07-2019 11:45:00 22.2 C 69 % 16.24 C
431 01-07-2019 11:50:00 22.3 C 67 % 15.88 C
432 01-07-2019 11:55:00 22.4 C 66 % 15.74 C
433 01-07-2019 12:00:00 22.4 C 66 % 15.74 C
434 01-07-2019 12:05:00 22.5 C 65 % 15.59 C
435 01-07-2019 12:10:00 22.6 C 65 % 15.69 C
436 01-07-2019 12:15:00 22.7 C 66 % 16.02 C
437 01-07-2019 12:20:00 22.8 C 65 % 15.88 C
438 01-07-2019 12:25:00 23 C 65 % 16.07 C
439 01-07-2019 12:30:00 23.2 C 66 % 16.5 C
440 01-07-2019 12:35:00 23.4 C 63 % 15.96 C
441 01-07-2019 12:40:00 23.5 C 63 % 16.05 C
442 01-07-2019 12:45:00 23.7 C 62 % 15.99 C
443 01-07-2019 12:50:00 23.9 C 54 % 14.03 C
444 01-07-2019 12:55:00 24.3 C 53 % 14.11 C
445 01-07-2019 13:00:00 24.7 C 49 % 13.27 C
446 01-07-2019 13:05:00 24.8 C 47 % 12.73 C
447 01-07-2019 13:10:00 25.1 C 47 % 13 C
448 01-07-2019 13:15:00 25 C 50 % 13.86 C
449 01-07-2019 13:20:00 24.8 C 52 % 14.28 C
450 01-07-2019 13:25:00 24.8 C 53 % 14.57 C
Sensor: Nr:Datum:Temp:Feuchte:Taupunkt:
Aussen-T/F 451 01-07-2019 13:30:00 24.8 C 53 % 14.57 C
452 01-07-2019 13:35:00 24.9 C 52 % 14.37 C
453 01-07-2019 13:40:00 25 C 52 % 14.46 C
454 01-07-2019 13:45:00 25 C 52 % 14.46 C
455 01-07-2019 13:50:00 24.9 C 51 % 14.07 C
456 01-07-2019 13:55:00 24.9 C 53 % 14.66 C
457 01-07-2019 14:00:00 25.2 C 52 % 14.65 C
458 01-07-2019 14:05:00 25.2 C 53 % 14.94 C
459 01-07-2019 14:10:00 25.2 C 53 % 14.94 C
460 01-07-2019 14:15:00 25.2 C 51 % 14.35 C
461 01-07-2019 14:20:00 25.2 C 51 % 14.35 C
462 01-07-2019 14:25:00 25.4 C 51 % 14.53 C
463 01-07-2019 14:30:00 25.7 C 51 % 14.81 C
464 01-07-2019 14:35:00 25.7 C 50 % 14.5 C
465 01-07-2019 14:40:00 25.8 C 50 % 14.59 C
466 01-07-2019 14:45:00 25.8 C 51 % 14.9 C
467 01-07-2019 14:50:00 26 C 52 % 15.38 C
468 01-07-2019 14:55:00 26.3 C 49 % 14.74 C
469 01-07-2019 15:00:00 26.3 C 51 % 15.36 C
470 01-07-2019 15:05:00 26.6 C 50 % 15.32 C
471 01-07-2019 15:10:00 26.9 C 48 % 14.96 C
472 01-07-2019 15:15:00 26.9 C 46 % 14.3 C
473 01-07-2019 15:20:00 26.8 C 48 % 14.87 C
474 01-07-2019 15:25:00 26.8 C 47 % 14.55 C
475 01-07-2019 15:30:00 26.8 C 47 % 14.55 C
Sensor: Nr:Datum:Temp:Feuchte:Taupunkt:
Aussen-T/F 476 01-07-2019 15:35:00 27 C 46 % 14.39 C
477 01-07-2019 15:40:00 26.9 C 45 % 13.96 C
478 01-07-2019 15:45:00 26.8 C 46 % 14.21 C
479 01-07-2019 15:50:00 26.3 C 46 % 13.76 C
480 01-07-2019 15:55:00 26 C 46 % 13.49 C
481 01-07-2019 16:00:00 25.8 C 48 % 13.96 C
482 01-07-2019 16:05:00 25.8 C 48 % 13.96 C
483 01-07-2019 16:10:00 26.1 C 47 % 13.91 C
484 01-07-2019 16:15:00 26.5 C 46 % 13.94 C
485 01-07-2019 16:20:00 26.8 C 45 % 13.87 C
486 01-07-2019 16:25:00 27.1 C 44 % 13.8 C
487 01-07-2019 16:30:00 27.2 C 43 % 13.54 C
488 01-07-2019 16:35:00 27.3 C 43 % 13.63 C
489 01-07-2019 16:40:00 27.7 C 43 % 13.99 C
490 01-07-2019 16:45:00 27.7 C 41 % 13.25 C
491 01-07-2019 16:50:00 27.5 C 41 % 13.08 C
492 01-07-2019 16:55:00 27.2 C 43 % 13.54 C
493 01-07-2019 17:00:00 27.2 C 42 % 13.18 C
494 01-07-2019 17:05:00 27.1 C 42 % 13.09 C
495 01-07-2019 17:10:00 27.2 C 42 % 13.18 C
496 01-07-2019 17:15:00 27.3 C 43 % 13.63 C
497 01-07-2019 17:20:00 27.6 C 41 % 13.16 C
498 01-07-2019 17:25:00 27.3 C 40 % 12.52 C
499 01-07-2019 17:30:00 27.1 C 42 % 13.09 C
500 01-07-2019 17:35:00 27.1 C 43 % 13.45 C
Sensor: Nr:Datum:Temp:Feuchte:Taupunkt:
Aussen-T/F 501 01-07-2019 17:40:00 27 C 42 % 13 C
502 01-07-2019 17:45:00 26.7 C 42 % 12.73 C
503 01-07-2019 17:50:00 26.5 C 43 % 12.91 C
504 01-07-2019 17:55:00 26.4 C 43 % 12.82 C
505 01-07-2019 18:00:00 26 C 44 % 12.81 C
506 01-07-2019 18:05:00 25.9 C 45 % 13.06 C
507 01-07-2019 18:10:00 26.2 C 45 % 13.33 C
508 01-07-2019 18:15:00 26.1 C 45 % 13.24 C
509 01-07-2019 18:20:00 26.2 C 45 % 13.33 C
510 01-07-2019 18:25:00 26.4 C 44 % 13.17 C
511 01-07-2019 18:30:00 26.4 C 44 % 13.17 C
512 01-07-2019 18:35:00 26.4 C 44 % 13.17 C
513 01-07-2019 18:40:00 26.6 C 44 % 13.35 C
514 01-07-2019 18:45:00 26.5 C 42 % 12.55 C
515 01-07-2019 18:50:00 26.4 C 43 % 12.82 C
516 01-07-2019 18:55:00 26.5 C 43 % 12.91 C
517 01-07-2019 19:00:00 26.6 C 42 % 12.64 C
518 01-07-2019 19:05:00 26.6 C 42 % 12.64 C
519 01-07-2019 19:10:00 26.4 C 41 % 12.09 C
520 01-07-2019 19:15:00 26.3 C 42 % 12.37 C
521 01-07-2019 19:20:00 26.2 C 42 % 12.28 C
522 01-07-2019 19:25:00 26 C 43 % 12.46 C
523 01-07-2019 19:30:00 25.8 C 43 % 12.28 C
524 01-07-2019 19:35:00 25.8 C 43 % 12.28 C
525 01-07-2019 19:40:00 25.7 C 43 % 12.19 C
Sensor: Nr:Datum:Temp:Feuchte:Taupunkt:
Aussen-T/F 526 01-07-2019 19:45:00 25.6 C 44 % 12.45 C
527 01-07-2019 19:50:00 25.4 C 44 % 12.27 C
528 01-07-2019 19:55:00 25.2 C 44 % 12.09 C
529 01-07-2019 20:00:00 25.1 C 45 % 12.34 C
530 01-07-2019 20:05:00 25 C 44 % 11.9 C
531 01-07-2019 20:10:00 24.9 C 45 % 12.16 C
532 01-07-2019 20:15:00 24.9 C 45 % 12.16 C
533 01-07-2019 20:20:00 24.8 C 46 % 12.4 C
534 01-07-2019 20:25:00 24.8 C 46 % 12.4 C
535 01-07-2019 20:30:00 24.7 C 46 % 12.31 C
536 01-07-2019 20:35:00 24.6 C 47 % 12.54 C
537 01-07-2019 20:40:00 24.4 C 48 % 12.68 C
538 01-07-2019 20:45:00 24.1 C 49 % 12.72 C
539 01-07-2019 20:50:00 23.7 C 50 % 12.67 C
540 01-07-2019 20:55:00 23.4 C 49 % 12.08 C
541 01-07-2019 21:00:00 23.3 C 48 % 11.68 C
542 01-07-2019 21:05:00 23.2 C 49 % 11.9 C
543 01-07-2019 21:10:00 23.1 C 50 % 12.11 C
544 01-07-2019 21:15:00 23 C 50 % 12.02 C
545 01-07-2019 21:20:00 22.8 C 50 % 11.84 C
546 01-07-2019 21:25:00 22.6 C 51 % 11.96 C
547 01-07-2019 21:30:00 22.5 C 53 % 12.45 C
548 01-07-2019 21:35:00 22.2 C 52 % 11.88 C
549 01-07-2019 21:40:00 22.1 C 52 % 11.79 C
550 01-07-2019 21:45:00 22.1 C 53 % 12.08 C
Sensor: Nr:Datum:Temp:Feuchte:Taupunkt:
Aussen-T/F 551 01-07-2019 21:50:00 22 C 53 % 11.99 C
552 01-07-2019 21:55:00 21.8 C 53 % 11.8 C
553 01-07-2019 22:00:00 21.7 C 54 % 11.99 C
554 01-07-2019 22:05:00 21.6 C 55 % 12.18 C
555 01-07-2019 22:10:00 21.3 C 55 % 11.9 C
556 01-07-2019 22:15:00 21.3 C 56 % 12.17 C
557 01-07-2019 22:20:00 21.2 C 55 % 11.81 C
558 01-07-2019 22:25:00 21.1 C 57 % 12.25 C
559 01-07-2019 22:30:00 20.8 C 57 % 11.97 C
560 01-07-2019 22:35:00 20.6 C 59 % 12.31 C
561 01-07-2019 22:40:00 20.3 C 59 % 12.03 C
562 01-07-2019 22:45:00 20.1 C 60 % 12.1 C
563 01-07-2019 22:50:00 20 C 60 % 12 C
564 01-07-2019 22:55:00 19.9 C 60 % 11.91 C
565 01-07-2019 23:00:00 19.9 C 60 % 11.91 C
566 01-07-2019 23:05:00 19.9 C 60 % 11.91 C
567 01-07-2019 23:10:00 20.1 C 60 % 12.1 C
568 01-07-2019 23:15:00 20.1 C 60 % 12.1 C
569 01-07-2019 23:20:00 20.1 C 59 % 11.84 C
570 01-07-2019 23:25:00 20.2 C 59 % 11.94 C
571 01-07-2019 23:30:00 20.2 C 59 % 11.94 C
572 01-07-2019 23:35:00 20.1 C 59 % 11.84 C
573 01-07-2019 23:40:00 20.1 C 59 % 11.84 C
574 01-07-2019 23:45:00 20 C 59 % 11.75 C
575 01-07-2019 23:50:00 19.9 C 59 % 11.66 C
Sensor: Nr:Datum:Temp:Feuchte:Taupunkt:
Aussen-T/F 576 01-07-2019 23:55:00 19.8 C 60 % 11.82 C
577 02-07-2019 00:00:00 19.8 C 59 % 11.56 C
578 02-07-2019 00:05:00 19.7 C 60 % 11.72 C
579 02-07-2019 00:10:00 19.5 C 60 % 11.53 C
580 02-07-2019 00:15:00 19.4 C 61 % 11.69 C
581 02-07-2019 00:20:00 19.2 C 62 % 11.75 C
582 02-07-2019 00:25:00 18.9 C 62 % 11.47 C
583 02-07-2019 00:30:00 18.7 C 64 % 11.76 C
584 02-07-2019 00:35:00 18.6 C 64 % 11.66 C
585 02-07-2019 00:40:00 18.4 C 65 % 11.71 C
586 02-07-2019 00:45:00 18.3 C 66 % 11.84 C
587 02-07-2019 00:50:00 18.1 C 67 % 11.88 C
588 02-07-2019 00:55:00 17.7 C 68 % 11.72 C
589 02-07-2019 01:00:00 17.4 C 68 % 11.44 C
590 02-07-2019 01:05:00 17.3 C 69 % 11.56 C
591 02-07-2019 01:10:00 17.3 C 68 % 11.34 C
592 02-07-2019 01:15:00 17.3 C 69 % 11.56 C
593 02-07-2019 01:20:00 17.2 C 69 % 11.47 C
594 02-07-2019 01:25:00 17 C 70 % 11.49 C
595 02-07-2019 01:30:00 16.9 C 70 % 11.4 C
596 02-07-2019 01:35:00 16.7 C 71 % 11.42 C
597 02-07-2019 01:40:00 16.6 C 72 % 11.54 C
598 02-07-2019 01:45:00 16.5 C 72 % 11.44 C
599 02-07-2019 01:50:00 16.3 C 73 % 11.46 C
600 02-07-2019 01:55:00 16.2 C 73 % 11.36 C
Sensor: Nr:Datum:Temp:Feuchte:Taupunkt:
Aussen-T/F 601 02-07-2019 02:00:00 16.1 C 74 % 11.47 C
602 02-07-2019 02:05:00 16 C 74 % 11.37 C
603 02-07-2019 02:10:00 16.1 C 74 % 11.47 C
604 02-07-2019 02:15:00 16 C 74 % 11.37 C
605 02-07-2019 02:20:00 15.9 C 74 % 11.28 C
606 02-07-2019 02:25:00 15.9 C 74 % 11.28 C
607 02-07-2019 02:30:00 15.9 C 74 % 11.28 C
608 02-07-2019 02:35:00 15.8 C 74 % 11.18 C
609 02-07-2019 02:40:00 15.7 C 75 % 11.28 C
610 02-07-2019 02:45:00 15.7 C 75 % 11.28 C
611 02-07-2019 02:50:00 15.6 C 75 % 11.19 C
612 02-07-2019 02:55:00 15.5 C 75 % 11.09 C
613 02-07-2019 03:00:00 15.4 C 76 % 11.19 C
614 02-07-2019 03:05:00 15.3 C 76 % 11.1 C
615 02-07-2019 03:10:00 15.2 C 76 % 11 C
616 02-07-2019 03:15:00 15.2 C 76 % 11 C
617 02-07-2019 03:20:00 15.3 C 76 % 11.1 C
618 02-07-2019 03:25:00 15.5 C 75 % 11.09 C
619 02-07-2019 03:30:00 15.7 C 75 % 11.28 C
620 02-07-2019 03:35:00 15.8 C 74 % 11.18 C
621 02-07-2019 03:40:00 15.8 C 74 % 11.18 C
622 02-07-2019 03:45:00 15.7 C 74 % 11.08 C
623 02-07-2019 03:50:00 15.6 C 75 % 11.19 C
624 02-07-2019 03:55:00 15.4 C 76 % 11.19 C
625 02-07-2019 04:00:00 15.3 C 76 % 11.1 C
Sensor: Nr:Datum:Temp:Feuchte:Taupunkt:
Aussen-T/F 626 02-07-2019 04:05:00 15.2 C 77 % 11.2 C
627 02-07-2019 04:10:00 15 C 77 % 11 C
628 02-07-2019 04:15:00 14.9 C 77 % 10.91 C
629 02-07-2019 04:20:00 14.8 C 78 % 11 C
630 02-07-2019 04:25:00 14.6 C 78 % 10.81 C
631 02-07-2019 04:30:00 14.4 C 79 % 10.81 C
632 02-07-2019 04:35:00 14.3 C 79 % 10.71 C
633 02-07-2019 04:40:00 14.1 C 80 % 10.71 C
634 02-07-2019 04:45:00 14 C 81 % 10.79 C
635 02-07-2019 04:50:00 13.9 C 82 % 10.88 C
636 02-07-2019 04:55:00 13.8 C 82 % 10.78 C
637 02-07-2019 05:00:00 13.7 C 82 % 10.69 C
638 02-07-2019 05:05:00 13.7 C 83 % 10.87 C
639 02-07-2019 05:10:00 13.6 C 83 % 10.77 C
640 02-07-2019 05:15:00 13.6 C 82 % 10.59 C
641 02-07-2019 05:20:00 13.5 C 83 % 10.67 C
642 02-07-2019 05:25:00 13.4 C 83 % 10.57 C
643 02-07-2019 05:30:00 13.4 C 83 % 10.57 C
644 02-07-2019 05:35:00 13.4 C 84 % 10.75 C
645 02-07-2019 05:40:00 13.3 C 84 % 10.66 C
646 02-07-2019 05:45:00 13.3 C 84 % 10.66 C
647 02-07-2019 05:50:00 13.3 C 84 % 10.66 C
648 02-07-2019 05:55:00 13.2 C 84 % 10.56 C
649 02-07-2019 06:00:00 13.2 C 85 % 10.74 C
650 02-07-2019 06:05:00 13.2 C 85 % 10.74 C
Sensor: Nr:Datum:Temp:Feuchte:Taupunkt:
Aussen-T/F 651 02-07-2019 06:10:00 13.1 C 85 % 10.64 C
652 02-07-2019 06:15:00 13.1 C 85 % 10.64 C
653 02-07-2019 06:20:00 13.1 C 85 % 10.64 C
654 02-07-2019 06:25:00 13.1 C 85 % 10.64 C
655 02-07-2019 06:30:00 13.1 C 85 % 10.64 C
656 02-07-2019 06:35:00 13.1 C 86 % 10.81 C
657 02-07-2019 06:40:00 13.1 C 86 % 10.81 C
658 02-07-2019 06:45:00 13.1 C 86 % 10.81 C
659 02-07-2019 06:50:00 13.1 C 86 % 10.81 C
660 02-07-2019 06:55:00 13 C 87 % 10.89 C
661 02-07-2019 07:00:00 13 C 87 % 10.89 C
662 02-07-2019 07:05:00 13 C 87 % 10.89 C
663 02-07-2019 07:10:00 13.1 C 87 % 10.99 C
664 02-07-2019 07:15:00 13.1 C 87 % 10.99 C
665 02-07-2019 07:20:00 13.1 C 87 % 10.99 C
666 02-07-2019 07:25:00 13.2 C 87 % 11.09 C
667 02-07-2019 07:30:00 13.2 C 87 % 11.09 C
668 02-07-2019 07:35:00 13.3 C 87 % 11.18 C
669 02-07-2019 07:40:00 13.3 C 87 % 11.18 C
670 02-07-2019 07:45:00 13.4 C 87 % 11.28 C
671 02-07-2019 07:50:00 13.5 C 87 % 11.38 C
672 02-07-2019 07:55:00 13.6 C 87 % 11.48 C
673 02-07-2019 08:00:00 13.7 C 87 % 11.58 C
674 02-07-2019 08:05:00 13.8 C 87 % 11.68 C
675 02-07-2019 08:10:00 13.9 C 87 % 11.77 C
Sensor: Nr:Datum:Temp:Feuchte:Taupunkt:
Aussen-T/F 676 02-07-2019 08:15:00 14 C 87 % 11.87 C
677 02-07-2019 08:20:00 14.3 C 86 % 11.99 C
678 02-07-2019 08:25:00 14.6 C 83 % 11.75 C
679 02-07-2019 08:30:00 14.9 C 81 % 11.67 C
680 02-07-2019 08:35:00 15.3 C 80 % 11.87 C
681 02-07-2019 08:40:00 15.7 C 79 % 12.07 C
682 02-07-2019 08:45:00 16.1 C 77 % 12.07 C
683 02-07-2019 08:50:00 16.3 C 75 % 11.86 C
684 02-07-2019 08:55:00 16.5 C 75 % 12.06 C
685 02-07-2019 09:00:00 16.7 C 73 % 11.84 C
686 02-07-2019 09:05:00 16.8 C 74 % 12.14 C
687 02-07-2019 09:10:00 16.9 C 73 % 12.03 C
688 02-07-2019 09:15:00 17.1 C 72 % 12.02 C
689 02-07-2019 09:20:00 17.2 C 72 % 12.11 C
690 02-07-2019 09:25:00 17.5 C 70 % 11.97 C
691 02-07-2019 09:30:00 17.7 C 69 % 11.95 C
692 02-07-2019 09:35:00 17.8 C 70 % 12.26 C
693 02-07-2019 09:40:00 17.9 C 68 % 11.91 C
694 02-07-2019 09:45:00 17.9 C 68 % 11.91 C
695 02-07-2019 09:50:00 18.1 C 68 % 12.11 C
696 02-07-2019 09:55:00 18.2 C 67 % 11.98 C
697 02-07-2019 10:00:00 18.4 C 65 % 11.71 C
698 02-07-2019 10:05:00 18.7 C 65 % 11.99 C
699 02-07-2019 10:10:00 18.8 C 63 % 11.61 C
700 02-07-2019 10:15:00 18.7 C 63 % 11.52 C
Sensor: Nr:Datum:Temp:Feuchte:Taupunkt:
Aussen-T/F 701 02-07-2019 10:20:00 18.6 C 64 % 11.66 C
702 02-07-2019 10:25:00 18.7 C 62 % 11.28 C
703 02-07-2019 10:30:00 19 C 62 % 11.56 C
704 02-07-2019 10:35:00 19.2 C 62 % 11.75 C
705 02-07-2019 10:40:00 19.4 C 62 % 11.94 C
706 02-07-2019 10:45:00 19.6 C 60 % 11.63 C
707 02-07-2019 10:50:00 19.5 C 62 % 12.03 C
708 02-07-2019 10:55:00 19.4 C 63 % 12.18 C
709 02-07-2019 11:00:00 19.3 C 63 % 12.09 C
710 02-07-2019 11:05:00 19.4 C 63 % 12.18 C
711 02-07-2019 11:10:00 19.7 C 62 % 12.22 C
712 02-07-2019 11:15:00 19.7 C 60 % 11.72 C
713 02-07-2019 11:20:00 19.6 C 61 % 11.88 C
714 02-07-2019 11:25:00 19.4 C 62 % 11.94 C
715 02-07-2019 11:30:00 19.4 C 62 % 11.94 C
716 02-07-2019 11:35:00 19.5 C 59 % 11.28 C
717 02-07-2019 11:40:00 19.7 C 61 % 11.97 C
718 02-07-2019 11:45:00 19.8 C 61 % 12.07 C
719 02-07-2019 11:50:00 19.9 C 57 % 11.14 C
720 02-07-2019 11:55:00 19.9 C 56 % 10.87 C
721 02-07-2019 12:00:00 19.9 C 58 % 11.4 C
722 02-07-2019 12:05:00 20 C 58 % 11.49 C
723 02-07-2019 12:10:00 20 C 57 % 11.23 C
724 02-07-2019 12:15:00 20.2 C 58 % 11.68 C
725 02-07-2019 12:20:00 20.3 C 56 % 11.24 C
Sensor: Nr:Datum:Temp:Feuchte:Taupunkt:
Aussen-T/F 726 02-07-2019 12:25:00 20.4 C 54 % 10.79 C
727 02-07-2019 12:30:00 20.4 C 56 % 11.33 C
728 02-07-2019 12:35:00 20.7 C 53 % 10.78 C
729 02-07-2019 12:40:00 20.8 C 53 % 10.88 C
730 02-07-2019 12:45:00 20.9 C 53 % 10.97 C
731 02-07-2019 12:50:00 21.1 C 52 % 10.87 C
732 02-07-2019 12:55:00 21.1 C 53 % 11.15 C
733 02-07-2019 13:00:00 21.2 C 52 % 10.96 C
734 02-07-2019 13:05:00 21.3 C 54 % 11.62 C
735 02-07-2019 13:10:00 21.2 C 54 % 11.53 C
736 02-07-2019 13:15:00 21.2 C 55 % 11.81 C
737 02-07-2019 13:20:00 21.3 C 54 % 11.62 C
738 02-07-2019 13:25:00 21.3 C 50 % 10.46 C
739 02-07-2019 13:30:00 21.2 C 51 % 10.67 C
740 02-07-2019 13:35:00 21.3 C 50 % 10.46 C
741 02-07-2019 13:40:00 21.6 C 49 % 10.44 C
742 02-07-2019 13:45:00 21.8 C 49 % 10.62 C
743 02-07-2019 13:50:00 22 C 49 % 10.8 C
744 02-07-2019 13:55:00 22.2 C 50 % 11.29 C
745 02-07-2019 14:00:00 22.2 C 50 % 11.29 C
746 02-07-2019 14:05:00 22.2 C 51 % 11.59 C
747 02-07-2019 14:10:00 22 C 50 % 11.11 C
748 02-07-2019 14:15:00 21.9 C 52 % 11.61 C
749 02-07-2019 14:20:00 21.8 C 51 % 11.22 C
750 02-07-2019 14:25:00 21.9 C 49 % 10.71 C
Sensor: Nr:Datum:Temp:Feuchte:Taupunkt:
Aussen-T/F 751 02-07-2019 14:30:00 22.2 C 47 % 10.36 C
752 02-07-2019 14:35:00 22.6 C 47 % 10.72 C
753 02-07-2019 14:40:00 22.9 C 48 % 11.31 C
754 02-07-2019 14:45:00 22.9 C 47 % 11 C
755 02-07-2019 14:50:00 22.8 C 48 % 11.22 C
756 02-07-2019 14:55:00 22.4 C 50 % 11.47 C
757 02-07-2019 15:00:00 22.3 C 51 % 11.68 C
758 02-07-2019 15:05:00 22.3 C 50 % 11.38 C
759 02-07-2019 15:10:00 22.4 C 49 % 11.17 C
760 02-07-2019 15:15:00 22.7 C 50 % 11.75 C
761 02-07-2019 15:20:00 23 C 48 % 11.41 C
762 02-07-2019 15:25:00 23.4 C 45 % 10.8 C
763 02-07-2019 15:30:00 23.6 C 46 % 11.31 C
764 02-07-2019 15:35:00 23.4 C 45 % 10.8 C
765 02-07-2019 15:40:00 23.1 C 46 % 10.86 C
766 02-07-2019 15:45:00 22.8 C 48 % 11.22 C
767 02-07-2019 15:50:00 23.2 C 47 % 11.27 C
768 02-07-2019 15:55:00 23.9 C 46 % 11.58 C
769 02-07-2019 16:00:00 24.4 C 42 % 10.66 C
770 02-07-2019 16:05:00 24.7 C 40 % 10.2 C
771 02-07-2019 16:10:00 24.7 C 42 % 10.93 C
772 02-07-2019 16:15:00 24.8 C 42 % 11.02 C
773 02-07-2019 16:20:00 25 C 40 % 10.47 C
774 02-07-2019 16:25:00 24.8 C 40 % 10.29 C
775 02-07-2019 16:30:00 24.8 C 41 % 10.66 C
Sensor: Nr:Datum:Temp:Feuchte:Taupunkt:
Aussen-T/F 776 02-07-2019 16:35:00 25.1 C 40 % 10.56 C
777 02-07-2019 16:40:00 25.3 C 41 % 11.11 C
778 02-07-2019 16:45:00 25.6 C 39 % 10.62 C
779 02-07-2019 16:50:00 25.4 C 37 % 9.66 C
780 02-07-2019 16:55:00 25.2 C 39 % 10.27 C
781 02-07-2019 17:00:00 25.3 C 40 % 10.74 C
782 02-07-2019 17:05:00 25.2 C 41 % 11.02 C
783 02-07-2019 17:10:00 25.3 C 40 % 10.74 C
784 02-07-2019 17:15:00 25.5 C 40 % 10.91 C
785 02-07-2019 17:20:00 25.8 C 38 % 10.41 C
786 02-07-2019 17:25:00 25.7 C 38 % 10.32 C
787 02-07-2019 17:30:00 25.7 C 38 % 10.32 C
788 02-07-2019 17:35:00 25.6 C 37 % 9.84 C
789 02-07-2019 17:40:00 25.4 C 38 % 10.06 C
790 02-07-2019 17:45:00 25.6 C 37 % 9.84 C
791 02-07-2019 17:50:00 25.4 C 37 % 9.66 C
792 02-07-2019 17:55:00 25.4 C 38 % 10.06 C
793 02-07-2019 18:00:00 24.8 C 40 % 10.29 C
794 02-07-2019 18:05:00 24.3 C 43 % 10.93 C
795 02-07-2019 18:10:00 23.9 C 43 % 10.57 C
796 02-07-2019 18:15:00 23.7 C 42 % 10.03 C
797 02-07-2019 18:20:00 23.8 C 42 % 10.12 C
798 02-07-2019 18:25:00 23.9 C 42 % 10.21 C
799 02-07-2019 18:30:00 24.2 C 41 % 10.12 C
800 02-07-2019 18:35:00 24.4 C 41 % 10.3 C
Sensor: Nr:Datum:Temp:Feuchte:Taupunkt:
Aussen-T/F 801 02-07-2019 18:40:00 24.6 C 41 % 10.48 C
802 02-07-2019 18:45:00 24.7 C 41 % 10.57 C
803 02-07-2019 18:50:00 24.9 C 41 % 10.75 C
804 02-07-2019 18:55:00 25.2 C 39 % 10.27 C
805 02-07-2019 19:00:00 25.3 C 38 % 9.97 C
806 02-07-2019 19:05:00 25.3 C 38 % 9.97 C
807 02-07-2019 19:10:00 25.3 C 38 % 9.97 C
808 02-07-2019 19:15:00 25.4 C 38 % 10.06 C
809 02-07-2019 19:20:00 25.2 C 37 % 9.48 C
810 02-07-2019 19:25:00 24.9 C 38 % 9.61 C
811 02-07-2019 19:30:00 24.7 C 39 % 9.82 C
812 02-07-2019 19:35:00 24.6 C 39 % 9.73 C
813 02-07-2019 19:40:00 24.4 C 39 % 9.56 C
814 02-07-2019 19:45:00 24.3 C 40 % 9.84 C
815 02-07-2019 19:50:00 24.1 C 40 % 9.67 C
816 02-07-2019 19:55:00 23.8 C 39 % 9.02 C
817 02-07-2019 20:00:00 23.6 C 40 % 9.22 C
818 02-07-2019 20:05:00 23.4 C 40 % 9.04 C
819 02-07-2019 20:10:00 23.3 C 40 % 8.95 C
820 02-07-2019 20:15:00 23.2 C 42 % 9.59 C
821 02-07-2019 20:20:00 23.1 C 42 % 9.5 C
822 02-07-2019 20:25:00 23 C 43 % 9.76 C
823 02-07-2019 20:30:00 22.9 C 42 % 9.32 C
824 02-07-2019 20:35:00 22.9 C 42 % 9.32 C
825 02-07-2019 20:40:00 22.8 C 42 % 9.23 C
Sensor: Nr:Datum:Temp:Feuchte:Taupunkt:
Aussen-T/F 826 02-07-2019 20:45:00 22.6 C 42 % 9.05 C
827 02-07-2019 20:50:00 22.4 C 43 % 9.22 C
828 02-07-2019 20:55:00 22.2 C 43 % 9.04 C
829 02-07-2019 21:00:00 22 C 44 % 9.2 C
830 02-07-2019 21:05:00 21.8 C 44 % 9.01 C
831 02-07-2019 21:10:00 21.7 C 45 % 9.26 C
832 02-07-2019 21:15:00 21.6 C 45 % 9.17 C
833 02-07-2019 21:20:00 21.4 C 45 % 8.99 C
834 02-07-2019 21:25:00 21.2 C 48 % 9.76 C
835 02-07-2019 21:30:00 21 C 49 % 9.89 C
836 02-07-2019 21:35:00 20.7 C 51 % 10.21 C
837 02-07-2019 21:40:00 20.3 C 51 % 9.84 C
838 02-07-2019 21:45:00 19.8 C 53 % 9.95 C
839 02-07-2019 21:50:00 19.4 C 53 % 9.58 C
840 02-07-2019 21:55:00 19 C 55 % 9.76 C
841 02-07-2019 22:00:00 18.6 C 55 % 9.39 C
842 02-07-2019 22:05:00 18.3 C 57 % 9.64 C
843 02-07-2019 22:10:00 18.1 C 57 % 9.46 C
844 02-07-2019 22:15:00 17.9 C 58 % 9.53 C
845 02-07-2019 22:20:00 17.7 C 58 % 9.34 C
846 02-07-2019 22:25:00 17.6 C 58 % 9.25 C
847 02-07-2019 22:30:00 17.4 C 59 % 9.31 C
848 02-07-2019 22:35:00 17.4 C 58 % 9.06 C
849 02-07-2019 22:40:00 17.3 C 59 % 9.22 C
850 02-07-2019 22:45:00 17.3 C 60 % 9.47 C
Sensor: Nr:Datum:Temp:Feuchte:Taupunkt:
Aussen-T/F 851 02-07-2019 22:50:00 17.2 C 60 % 9.37 C
852 02-07-2019 22:55:00 16.9 C 60 % 9.09 C
853 02-07-2019 23:00:00 16.8 C 61 % 9.24 C
854 02-07-2019 23:05:00 16.7 C 61 % 9.15 C
855 02-07-2019 23:10:00 16.6 C 61 % 9.06 C
856 02-07-2019 23:15:00 16.4 C 61 % 8.87 C
857 02-07-2019 23:20:00 16.4 C 62 % 9.11 C
858 02-07-2019 23:25:00 16.3 C 62 % 9.01 C
859 02-07-2019 23:30:00 16.3 C 62 % 9.01 C
860 02-07-2019 23:35:00 16.2 C 62 % 8.92 C
861 02-07-2019 23:40:00 16.1 C 63 % 9.06 C
862 02-07-2019 23:45:00 16 C 63 % 8.97 C
863 02-07-2019 23:50:00 15.9 C 64 % 9.11 C
864 02-07-2019 23:55:00 15.9 C 65 % 9.34 C
865 03-07-2019 00:00:00 15.7 C 65 % 9.15 C
866 03-07-2019 00:05:00 15.6 C 65 % 9.05 C
867 03-07-2019 00:10:00 15.3 C 66 % 8.99 C
868 03-07-2019 00:15:00 15.2 C 67 % 9.12 C
869 03-07-2019 00:20:00 15.1 C 67 % 9.02 C
870 03-07-2019 00:25:00 14.9 C 68 % 9.05 C
871 03-07-2019 00:30:00 14.7 C 68 % 8.86 C
872 03-07-2019 00:35:00 14.5 C 69 % 8.89 C
873 03-07-2019 00:40:00 14.3 C 70 % 8.91 C
874 03-07-2019 00:45:00 14.2 C 70 % 8.81 C
875 03-07-2019 00:50:00 14.2 C 71 % 9.02 C
Sensor: Nr:Datum:Temp:Feuchte:Taupunkt:
Aussen-T/F 876 03-07-2019 00:55:00 14 C 71 % 8.83 C
877 03-07-2019 01:00:00 13.9 C 72 % 8.94 C
878 03-07-2019 01:05:00 13.7 C 73 % 8.95 C
879 03-07-2019 01:10:00 13.6 C 72 % 8.65 C
880 03-07-2019 01:15:00 13.4 C 73 % 8.66 C
881 03-07-2019 01:20:00 13.3 C 73 % 8.57 C
882 03-07-2019 01:25:00 13.2 C 74 % 8.67 C
883 03-07-2019 01:30:00 13.2 C 74 % 8.67 C
884 03-07-2019 01:35:00 13.1 C 74 % 8.58 C
885 03-07-2019 01:40:00 12.9 C 74 % 8.38 C
886 03-07-2019 01:45:00 12.9 C 75 % 8.58 C
887 03-07-2019 01:50:00 12.8 C 76 % 8.68 C
888 03-07-2019 01:55:00 12.8 C 75 % 8.48 C
889 03-07-2019 02:00:00 12.7 C 76 % 8.58 C
890 03-07-2019 02:05:00 12.7 C 76 % 8.58 C
891 03-07-2019 02:10:00 12.6 C 77 % 8.68 C
892 03-07-2019 02:15:00 12.5 C 77 % 8.58 C
893 03-07-2019 02:20:00 12.4 C 77 % 8.49 C
894 03-07-2019 02:25:00 12.4 C 77 % 8.49 C
895 03-07-2019 02:30:00 12.3 C 77 % 8.39 C
896 03-07-2019 02:35:00 12.2 C 78 % 8.48 C
897 03-07-2019 02:40:00 12.1 C 78 % 8.38 C
898 03-07-2019 02:45:00 12 C 78 % 8.29 C
899 03-07-2019 02:50:00 11.9 C 78 % 8.19 C
900 03-07-2019 02:55:00 11.9 C 78 % 8.19 C
Sensor: Nr:Datum:Temp:Feuchte:Taupunkt:
Aussen-T/F 901 03-07-2019 03:00:00 11.8 C 79 % 8.28 C
902 03-07-2019 03:05:00 11.8 C 79 % 8.28 C
903 03-07-2019 03:10:00 11.7 C 80 % 8.37 C
904 03-07-2019 03:15:00 11.7 C 80 % 8.37 C
905 03-07-2019 03:20:00 11.6 C 80 % 8.27 C
906 03-07-2019 03:25:00 11.6 C 80 % 8.27 C
907 03-07-2019 03:30:00 11.4 C 81 % 8.26 C
908 03-07-2019 03:35:00 11.4 C 81 % 8.26 C
909 03-07-2019 03:40:00 11.3 C 81 % 8.16 C
910 03-07-2019 03:45:00 11.2 C 81 % 8.06 C
911 03-07-2019 03:50:00 11.1 C 82 % 8.15 C
912 03-07-2019 03:55:00 11.1 C 82 % 8.15 C
913 03-07-2019 04:00:00 11 C 82 % 8.05 C
914 03-07-2019 04:05:00 10.9 C 82 % 7.95 C
915 03-07-2019 04:10:00 10.8 C 82 % 7.85 C
916 03-07-2019 04:15:00 10.8 C 83 % 8.03 C
917 03-07-2019 04:20:00 10.7 C 83 % 7.93 C
918 03-07-2019 04:25:00 10.7 C 83 % 7.93 C
919 03-07-2019 04:30:00 10.6 C 83 % 7.84 C
920 03-07-2019 04:35:00 10.6 C 84 % 8.01 C
921 03-07-2019 04:40:00 10.5 C 84 % 7.91 C
922 03-07-2019 04:45:00 10.4 C 84 % 7.82 C
923 03-07-2019 04:50:00 10.4 C 84 % 7.82 C
924 03-07-2019 04:55:00 10.4 C 85 % 7.99 C
925 03-07-2019 05:00:00 10.3 C 85 % 7.89 C
Sensor: Nr:Datum:Temp:Feuchte:Taupunkt:
Aussen-T/F 926 03-07-2019 05:05:00 10.3 C 85 % 7.89 C
927 03-07-2019 05:10:00 10.3 C 85 % 7.89 C
928 03-07-2019 05:15:00 10.2 C 85 % 7.79 C
929 03-07-2019 05:20:00 10.1 C 85 % 7.7 C
930 03-07-2019 05:25:00 10.1 C 86 % 7.87 C
931 03-07-2019 05:30:00 10.1 C 86 % 7.87 C
932 03-07-2019 05:35:00 10 C 86 % 7.77 C
933 03-07-2019 05:40:00 10 C 86 % 7.77 C
934 03-07-2019 05:45:00 9.9 C 87 % 7.84 C
935 03-07-2019 05:50:00 10 C 87 % 7.94 C
936 03-07-2019 05:55:00 10 C 87 % 7.94 C
937 03-07-2019 06:00:00 10 C 87 % 7.94 C
938 03-07-2019 06:05:00 10 C 87 % 7.94 C
939 03-07-2019 06:10:00 10 C 88 % 8.11 C
940 03-07-2019 06:15:00 10.1 C 88 % 8.21 C
941 03-07-2019 06:20:00 10.1 C 88 % 8.21 C
942 03-07-2019 06:25:00 10.1 C 88 % 8.21 C
943 03-07-2019 06:30:00 10.1 C 88 % 8.21 C
944 03-07-2019 06:35:00 10.2 C 88 % 8.3 C
945 03-07-2019 06:40:00 10.2 C 88 % 8.3 C
946 03-07-2019 06:45:00 10.2 C 88 % 8.3 C
947 03-07-2019 06:50:00 10.3 C 89 % 8.57 C
948 03-07-2019 06:55:00 10.3 C 89 % 8.57 C
949 03-07-2019 07:00:00 10.4 C 89 % 8.67 C
950 03-07-2019 07:05:00 10.4 C 89 % 8.67 C
Sensor: Nr:Datum:Temp:Feuchte:Taupunkt:
Aussen-T/F 951 03-07-2019 07:10:00 10.6 C 89 % 8.86 C
952 03-07-2019 07:15:00 10.7 C 89 % 8.96 C
953 03-07-2019 07:20:00 10.7 C 89 % 8.96 C
954 03-07-2019 07:25:00 10.8 C 89 % 9.06 C
955 03-07-2019 07:30:00 10.9 C 89 % 9.16 C
956 03-07-2019 07:35:00 11.1 C 89 % 9.36 C
957 03-07-2019 07:40:00 11.2 C 88 % 9.29 C
958 03-07-2019 07:45:00 11.3 C 88 % 9.39 C
959 03-07-2019 07:50:00 11.4 C 88 % 9.49 C
960 03-07-2019 07:55:00 11.5 C 88 % 9.58 C
961 03-07-2019 08:00:00 11.6 C 88 % 9.68 C
962 03-07-2019 08:05:00 11.7 C 88 % 9.78 C
963 03-07-2019 08:10:00 11.9 C 87 % 9.81 C
964 03-07-2019 08:15:00 12 C 87 % 9.91 C
965 03-07-2019 08:20:00 12.1 C 87 % 10 C
966 03-07-2019 08:25:00 12.2 C 87 % 10.1 C
967 03-07-2019 08:30:00 12.3 C 86 % 10.03 C
968 03-07-2019 08:35:00 12.5 C 86 % 10.22 C
969 03-07-2019 08:40:00 12.7 C 86 % 10.42 C
970 03-07-2019 08:45:00 12.8 C 85 % 10.34 C
971 03-07-2019 08:50:00 12.9 C 84 % 10.26 C
972 03-07-2019 08:55:00 13.1 C 83 % 10.28 C
973 03-07-2019 09:00:00 13.3 C 84 % 10.66 C
974 03-07-2019 09:05:00 13.4 C 82 % 10.39 C
975 03-07-2019 09:10:00 13.7 C 80 % 10.32 C
Sensor: Nr:Datum:Temp:Feuchte:Taupunkt:
Aussen-T/F 976 03-07-2019 09:15:00 13.9 C 80 % 10.51 C
977 03-07-2019 09:20:00 14.1 C 80 % 10.71 C
978 03-07-2019 09:25:00 14.3 C 77 % 10.33 C
979 03-07-2019 09:30:00 14.5 C 76 % 10.32 C
980 03-07-2019 09:35:00 14.8 C 76 % 10.61 C
981 03-07-2019 09:40:00 15 C 74 % 10.41 C
982 03-07-2019 09:45:00 15.3 C 74 % 10.7 C
983 03-07-2019 09:50:00 15.6 C 71 % 10.37 C
984 03-07-2019 09:55:00 15.8 C 70 % 10.34 C
985 03-07-2019 10:00:00 16.1 C 69 % 10.42 C
986 03-07-2019 10:05:00 16.4 C 68 % 10.48 C
987 03-07-2019 10:10:00 16.7 C 66 % 10.32 C
988 03-07-2019 10:15:00 17 C 66 % 10.61 C
989 03-07-2019 10:20:00 17.4 C 63 % 10.29 C
990 03-07-2019 10:25:00 17.8 C 63 % 10.67 C
991 03-07-2019 10:30:00 18.3 C 60 % 10.41 C
992 03-07-2019 10:35:00 18.7 C 57 % 10.02 C
993 03-07-2019 10:40:00 19 C 56 % 10.03 C
994 03-07-2019 10:45:00 19.3 C 57 % 10.58 C
995 03-07-2019 10:50:00 19.7 C 53 % 9.86 C
996 03-07-2019 10:55:00 19.8 C 53 % 9.95 C
997 03-07-2019 11:00:00 19.7 C 54 % 10.14 C
998 03-07-2019 11:05:00 19.7 C 51 % 9.29 C
999 03-07-2019 11:10:00 19.7 C 52 % 9.58 C
1000 03-07-2019 11:15:00 19.7 C 53 % 9.86 C
Sensor: Nr:Datum:Temp:Feuchte:Taupunkt:
Aussen-T/F 1001 03-07-2019 11:20:00 19.7 C 51 % 9.29 C
1002 03-07-2019 11:25:00 19.8 C 50 % 9.09 C
1003 03-07-2019 11:30:00 19.9 C 51 % 9.47 C
1004 03-07-2019 11:35:00 20.1 C 51 % 9.66 C
1005 03-07-2019 11:40:00 20.2 C 50 % 9.45 C
1006 03-07-2019 11:45:00 20.2 C 49 % 9.15 C
1007 03-07-2019 11:50:00 20.3 C 49 % 9.24 C
1008 03-07-2019 11:55:00 20.4 C 49 % 9.34 C
1009 03-07-2019 12:00:00 20.4 C 50 % 9.64 C
1010 03-07-2019 12:05:00 20.3 C 50 % 9.54 C
1011 03-07-2019 12:10:00 20.3 C 49 % 9.24 C
1012 03-07-2019 12:15:00 20.3 C 50 % 9.54 C
1013 03-07-2019 12:20:00 20.5 C 50 % 9.73 C
1014 03-07-2019 12:25:00 20.7 C 49 % 9.61 C
1015 03-07-2019 12:30:00 20.8 C 49 % 9.7 C
1016 03-07-2019 12:35:00 20.9 C 49 % 9.79 C
1017 03-07-2019 12:40:00 21.1 C 48 % 9.67 C
1018 03-07-2019 12:45:00 21.2 C 47 % 9.45 C
1019 03-07-2019 12:50:00 21.3 C 47 % 9.54 C
1020 03-07-2019 12:55:00 21.3 C 47 % 9.54 C
1021 03-07-2019 13:00:00 21.1 C 47 % 9.36 C
1022 03-07-2019 13:05:00 21.1 C 49 % 9.98 C
1023 03-07-2019 13:10:00 21.3 C 47 % 9.54 C
1024 03-07-2019 13:15:00 21.2 C 47 % 9.45 C
1025 03-07-2019 13:20:00 21.1 C 47 % 9.36 C
Sensor: Nr:Datum:Temp:Feuchte:Taupunkt:
Aussen-T/F 1026 03-07-2019 13:25:00 21.1 C 48 % 9.67 C
1027 03-07-2019 13:30:00 21.4 C 45 % 8.99 C
1028 03-07-2019 13:35:00 21.7 C 46 % 9.58 C
1029 03-07-2019 13:40:00 21.7 C 46 % 9.58 C
1030 03-07-2019 13:45:00 21.6 C 46 % 9.49 C
1031 03-07-2019 13:50:00 21.7 C 46 % 9.58 C
1032 03-07-2019 13:55:00 21.8 C 46 % 9.67 C
1033 03-07-2019 14:00:00 21.8 C 48 % 10.31 C
1034 03-07-2019 14:05:00 21.9 C 46 % 9.77 C
1035 03-07-2019 14:10:00 21.8 C 46 % 9.67 C
1036 03-07-2019 14:15:00 22 C 46 % 9.86 C
1037 03-07-2019 14:20:00 22.2 C 45 % 9.71 C
1038 03-07-2019 14:25:00 22.1 C 46 % 9.95 C
1039 03-07-2019 14:30:00 22 C 46 % 9.86 C
1040 03-07-2019 14:35:00 21.9 C 46 % 9.77 C
1041 03-07-2019 14:40:00 21.9 C 46 % 9.77 C
1042 03-07-2019 14:45:00 22 C 47 % 10.18 C
1043 03-07-2019 14:50:00 22.1 C 47 % 10.27 C
1044 03-07-2019 14:55:00 22 C 47 % 10.18 C
1045 03-07-2019 15:00:00 22.1 C 46 % 9.95 C
1046 03-07-2019 15:05:00 22.2 C 47 % 10.36 C
1047 03-07-2019 15:10:00 22.3 C 45 % 9.8 C
1048 03-07-2019 15:15:00 22.4 C 46 % 10.22 C
1049 03-07-2019 15:20:00 22.6 C 44 % 9.74 C
1050 03-07-2019 15:25:00 22.4 C 45 % 9.89 C
Sensor: Nr:Datum:Temp:Feuchte:Taupunkt:
Aussen-T/F 1051 03-07-2019 15:30:00 22.4 C 46 % 10.22 C
1052 03-07-2019 15:35:00 22.4 C 46 % 10.22 C
1053 03-07-2019 15:40:00 22.5 C 46 % 10.31 C
1054 03-07-2019 15:45:00 22.9 C 44 % 10.01 C
1055 03-07-2019 15:50:00 23.5 C 45 % 10.89 C
1056 03-07-2019 15:55:00 23.8 C 42 % 10.12 C
1057 03-07-2019 16:00:00 23.9 C 41 % 9.85 C
1058 03-07-2019 16:05:00 23.9 C 42 % 10.21 C
1059 03-07-2019 16:10:00 24.4 C 42 % 10.66 C
1060 03-07-2019 16:15:00 24.5 C 40 % 10.02 C
1061 03-07-2019 16:20:00 24.7 C 39 % 9.82 C
1062 03-07-2019 16:25:00 24.6 C 40 % 10.11 C
1063 03-07-2019 16:30:00 24.7 C 40 % 10.2 C
1064 03-07-2019 16:35:00 24.5 C 40 % 10.02 C
1065 03-07-2019 16:40:00 24.5 C 39 % 9.65 C
1066 03-07-2019 16:45:00 24.4 C 39 % 9.56 C
1067 03-07-2019 16:50:00 24.6 C 39 % 9.73 C
1068 03-07-2019 16:55:00 24.6 C 38 % 9.35 C
1069 03-07-2019 17:00:00 24.5 C 39 % 9.65 C
1070 03-07-2019 17:05:00 24.4 C 39 % 9.56 C
1071 03-07-2019 17:10:00 24.6 C 39 % 9.73 C
1072 03-07-2019 17:15:00 24.7 C 38 % 9.44 C
1073 03-07-2019 17:20:00 24.8 C 38 % 9.53 C
1074 03-07-2019 17:25:00 24.8 C 37 % 9.13 C
1075 03-07-2019 17:30:00 24.4 C 38 % 9.17 C
Sensor: Nr:Datum:Temp:Feuchte:Taupunkt:
Aussen-T/F 1076 03-07-2019 17:35:00 24.5 C 38 % 9.26 C
1077 03-07-2019 17:40:00 24.7 C 37 % 9.04 C
1078 03-07-2019 17:45:00 24.6 C 37 % 8.95 C
1079 03-07-2019 17:50:00 24.4 C 38 % 9.17 C
1080 03-07-2019 17:55:00 24.4 C 39 % 9.56 C
1081 03-07-2019 18:00:00 24.7 C 37 % 9.04 C
1082 03-07-2019 18:05:00 24.9 C 37 % 9.22 C
1083 03-07-2019 18:10:00 25 C 37 % 9.31 C
1084 03-07-2019 18:15:00 25.1 C 37 % 9.39 C
1085 03-07-2019 18:20:00 24.8 C 37 % 9.13 C
1086 03-07-2019 18:25:00 24.6 C 38 % 9.35 C
1087 03-07-2019 18:30:00 24.6 C 38 % 9.35 C
1088 03-07-2019 18:35:00 24.6 C 38 % 9.35 C
1089 03-07-2019 18:40:00 24.5 C 37 % 8.86 C
1090 03-07-2019 18:45:00 24.5 C 39 % 9.65 C
1091 03-07-2019 18:50:00 24.6 C 38 % 9.35 C
1092 03-07-2019 18:55:00 24.6 C 37 % 8.95 C
1093 03-07-2019 19:00:00 24.3 C 37 % 8.69 C
1094 03-07-2019 19:05:00 24.3 C 38 % 9.08 C
1095 03-07-2019 19:10:00 24.3 C 38 % 9.08 C
1096 03-07-2019 19:15:00 24.3 C 38 % 9.08 C
1097 03-07-2019 19:20:00 24.2 C 38 % 8.99 C
1098 03-07-2019 19:25:00 23.9 C 38 % 8.73 C
1099 03-07-2019 19:30:00 23.8 C 39 % 9.02 C
1100 03-07-2019 19:35:00 23.6 C 39 % 8.84 C
Sensor: Nr:Datum:Temp:Feuchte:Taupunkt:
Aussen-T/F 1101 03-07-2019 19:40:00 23.3 C 40 % 8.95 C
1102 03-07-2019 19:45:00 23.2 C 40 % 8.86 C
1103 03-07-2019 19:50:00 23.2 C 41 % 9.23 C
1104 03-07-2019 19:55:00 23.1 C 40 % 8.77 C
1105 03-07-2019 20:00:00 22.9 C 41 % 8.96 C
1106 03-07-2019 20:05:00 22.8 C 41 % 8.87 C
1107 03-07-2019 20:10:00 22.7 C 41 % 8.78 C
1108 03-07-2019 20:15:00 22.6 C 42 % 9.05 C
1109 03-07-2019 20:20:00 22.6 C 41 % 8.69 C
1110 03-07-2019 20:25:00 22.4 C 41 % 8.51 C
1111 03-07-2019 20:30:00 22.2 C 42 % 8.69 C
1112 03-07-2019 20:35:00 22.2 C 43 % 9.04 C
1113 03-07-2019 20:40:00 22.2 C 43 % 9.04 C
1114 03-07-2019 20:45:00 22.1 C 42 % 8.6 C
1115 03-07-2019 20:50:00 21.9 C 43 % 8.76 C
1116 03-07-2019 20:55:00 21.7 C 43 % 8.58 C
1117 03-07-2019 21:00:00 21.4 C 43 % 8.31 C
1118 03-07-2019 21:05:00 21.2 C 44 % 8.47 C
1119 03-07-2019 21:10:00 21 C 45 % 8.62 C
1120 03-07-2019 21:15:00 20.8 C 45 % 8.44 C
1121 03-07-2019 21:20:00 20.6 C 46 % 8.58 C
1122 03-07-2019 21:25:00 20.4 C 46 % 8.4 C
1123 03-07-2019 21:30:00 20.3 C 46 % 8.31 C
1124 03-07-2019 21:35:00 20.2 C 48 % 8.85 C
1125 03-07-2019 21:40:00 20.1 C 47 % 8.45 C
Sensor: Nr:Datum:Temp:Feuchte:Taupunkt:
Aussen-T/F 1126 03-07-2019 21:45:00 19.8 C 48 % 8.48 C
1127 03-07-2019 21:50:00 19.7 C 49 % 8.7 C
1128 03-07-2019 21:55:00 19.4 C 50 % 8.72 C
1129 03-07-2019 22:00:00 19.1 C 50 % 8.44 C
1130 03-07-2019 22:05:00 18.7 C 52 % 8.65 C
1131 03-07-2019 22:10:00 18.3 C 52 % 8.28 C
1132 03-07-2019 22:15:00 18 C 55 % 8.83 C
1133 03-07-2019 22:20:00 17.7 C 54 % 8.28 C
1134 03-07-2019 22:25:00 17.4 C 55 % 8.28 C
1135 03-07-2019 22:30:00 17.3 C 56 % 8.45 C
1136 03-07-2019 22:35:00 17.1 C 56 % 8.26 C
1137 03-07-2019 22:40:00 16.9 C 57 % 8.34 C
1138 03-07-2019 22:45:00 16.8 C 57 % 8.24 C
1139 03-07-2019 22:50:00 16.7 C 58 % 8.4 C
1140 03-07-2019 22:55:00 16.5 C 59 % 8.47 C
1141 03-07-2019 23:00:00 16.3 C 59 % 8.28 C
1142 03-07-2019 23:05:00 16.1 C 60 % 8.34 C
1143 03-07-2019 23:10:00 15.9 C 60 % 8.15 C
1144 03-07-2019 23:15:00 15.7 C 61 % 8.21 C
1145 03-07-2019 23:20:00 15.6 C 61 % 8.11 C
1146 03-07-2019 23:25:00 15.5 C 62 % 8.26 C
1147 03-07-2019 23:30:00 15.4 C 62 % 8.16 C
1148 03-07-2019 23:35:00 15.3 C 62 % 8.07 C
1149 03-07-2019 23:40:00 15.1 C 63 % 8.12 C
1150 03-07-2019 23:45:00 15 C 64 % 8.25 C
Sensor: Nr:Datum:Temp:Feuchte:Taupunkt:
Aussen-T/F 1151 03-07-2019 23:50:00 14.9 C 64 % 8.16 C
1152 03-07-2019 23:55:00 14.8 C 64 % 8.06 C
1153 04-07-2019 00:00:00 14.7 C 65 % 8.2 C
1154 04-07-2019 00:05:00 14.6 C 65 % 8.1 C
1155 04-07-2019 00:10:00 14.5 C 65 % 8.01 C
1156 04-07-2019 00:15:00 14.3 C 65 % 7.82 C
1157 04-07-2019 00:20:00 14.3 C 65 % 7.82 C
1158 04-07-2019 00:25:00 14.2 C 66 % 7.95 C
1159 04-07-2019 00:30:00 14.1 C 66 % 7.85 C
1160 04-07-2019 00:35:00 14.1 C 66 % 7.85 C
1161 04-07-2019 00:40:00 14 C 67 % 7.98 C
1162 04-07-2019 00:45:00 13.9 C 67 % 7.88 C
1163 04-07-2019 00:50:00 13.9 C 67 % 7.88 C
1164 04-07-2019 00:55:00 13.8 C 67 % 7.79 C
1165 04-07-2019 01:00:00 13.8 C 67 % 7.79 C
1166 04-07-2019 01:05:00 13.8 C 67 % 7.79 C
1167 04-07-2019 01:10:00 13.7 C 67 % 7.69 C
1168 04-07-2019 01:15:00 13.7 C 68 % 7.91 C
1169 04-07-2019 01:20:00 13.6 C 68 % 7.81 C
1170 04-07-2019 01:25:00 13.5 C 68 % 7.72 C
1171 04-07-2019 01:30:00 13.4 C 68 % 7.62 C
1172 04-07-2019 01:35:00 13.3 C 68 % 7.53 C
1173 04-07-2019 01:40:00 13.3 C 69 % 7.74 C
1174 04-07-2019 01:45:00 13.3 C 68 % 7.53 C
1175 04-07-2019 01:50:00 13.2 C 69 % 7.64 C
Sensor: Nr:Datum:Temp:Feuchte:Taupunkt:
Aussen-T/F 1176 04-07-2019 01:55:00 13.2 C 70 % 7.86 C
1177 04-07-2019 02:00:00 13.1 C 70 % 7.76 C
1178 04-07-2019 02:05:00 13.1 C 70 % 7.76 C
1179 04-07-2019 02:10:00 13 C 70 % 7.66 C
1180 04-07-2019 02:15:00 12.9 C 70 % 7.57 C
1181 04-07-2019 02:20:00 12.8 C 71 % 7.68 C
1182 04-07-2019 02:25:00 12.8 C 71 % 7.68 C
1183 04-07-2019 02:30:00 12.6 C 72 % 7.69 C
1184 04-07-2019 02:35:00 12.4 C 72 % 7.5 C
1185 04-07-2019 02:40:00 12.3 C 73 % 7.61 C
1186 04-07-2019 02:45:00 12.3 C 73 % 7.61 C
1187 04-07-2019 02:50:00 12.2 C 74 % 7.71 C
1188 04-07-2019 02:55:00 12 C 74 % 7.52 C
1189 04-07-2019 03:00:00 11.9 C 74 % 7.42 C
1190 04-07-2019 03:05:00 11.7 C 75 % 7.42 C
1191 04-07-2019 03:10:00 11.6 C 76 % 7.52 C
1192 04-07-2019 03:15:00 11.4 C 76 % 7.33 C
1193 04-07-2019 03:20:00 11.3 C 77 % 7.42 C
1194 04-07-2019 03:25:00 11.2 C 77 % 7.32 C
1195 04-07-2019 03:30:00 11.1 C 78 % 7.41 C
1196 04-07-2019 03:35:00 11 C 78 % 7.32 C
1197 04-07-2019 03:40:00 11 C 78 % 7.32 C
1198 04-07-2019 03:45:00 10.9 C 79 % 7.41 C
1199 04-07-2019 03:50:00 10.9 C 79 % 7.41 C
1200 04-07-2019 03:55:00 10.9 C 79 % 7.41 C
Sensor: Nr:Datum:Temp:Feuchte:Taupunkt:
Aussen-T/F 1201 04-07-2019 04:00:00 10.9 C 79 % 7.41 C
1202 04-07-2019 04:05:00 10.9 C 79 % 7.41 C
1203 04-07-2019 04:10:00 10.9 C 79 % 7.41 C
1204 04-07-2019 04:15:00 10.9 C 79 % 7.41 C
1205 04-07-2019 04:20:00 10.8 C 79 % 7.31 C
1206 04-07-2019 04:25:00 10.8 C 80 % 7.49 C
1207 04-07-2019 04:30:00 10.8 C 80 % 7.49 C
1208 04-07-2019 04:35:00 10.7 C 80 % 7.4 C
1209 04-07-2019 04:40:00 10.7 C 80 % 7.4 C
1210 04-07-2019 04:45:00 10.7 C 80 % 7.4 C
1211 04-07-2019 04:50:00 10.7 C 80 % 7.4 C
1212 04-07-2019 04:55:00 10.6 C 81 % 7.48 C
1213 04-07-2019 05:00:00 10.6 C 81 % 7.48 C
1214 04-07-2019 05:05:00 10.6 C 81 % 7.48 C
1215 04-07-2019 05:10:00 10.5 C 81 % 7.38 C
1216 04-07-2019 05:15:00 10.5 C 82 % 7.56 C
1217 04-07-2019 05:20:00 10.6 C 82 % 7.66 C
1218 04-07-2019 05:25:00 10.6 C 82 % 7.66 C
1219 04-07-2019 05:30:00 10.6 C 82 % 7.66 C
1220 04-07-2019 05:35:00 10.5 C 82 % 7.56 C
1221 04-07-2019 05:40:00 10.5 C 82 % 7.56 C
1222 04-07-2019 05:45:00 10.4 C 82 % 7.46 C
1223 04-07-2019 05:50:00 10.4 C 82 % 7.46 C
1224 04-07-2019 05:55:00 10.4 C 82 % 7.46 C
1225 04-07-2019 06:00:00 10.4 C 82 % 7.46 C
Sensor: Nr:Datum:Temp:Feuchte:Taupunkt:
Aussen-T/F 1226 04-07-2019 06:05:00 10.3 C 83 % 7.54 C
1227 04-07-2019 06:10:00 10.3 C 83 % 7.54 C
1228 04-07-2019 06:15:00 10.3 C 83 % 7.54 C
1229 04-07-2019 06:20:00 10.3 C 83 % 7.54 C
1230 04-07-2019 06:25:00 10.3 C 83 % 7.54 C
1231 04-07-2019 06:30:00 10.2 C 84 % 7.62 C
1232 04-07-2019 06:35:00 10.2 C 84 % 7.62 C
1233 04-07-2019 06:40:00 10.2 C 85 % 7.79 C
1234 04-07-2019 06:45:00 10.3 C 85 % 7.89 C
1235 04-07-2019 06:50:00 10.3 C 85 % 7.89 C
1236 04-07-2019 06:55:00 10.3 C 85 % 7.89 C
1237 04-07-2019 07:00:00 10.3 C 86 % 8.06 C
1238 04-07-2019 07:05:00 10.3 C 86 % 8.06 C
1239 04-07-2019 07:10:00 10.3 C 86 % 8.06 C
1240 04-07-2019 07:15:00 10.3 C 86 % 8.06 C
1241 04-07-2019 07:20:00 10.4 C 86 % 8.16 C
1242 04-07-2019 07:25:00 10.4 C 86 % 8.16 C
1243 04-07-2019 07:30:00 10.6 C 86 % 8.36 C
1244 04-07-2019 07:35:00 10.6 C 86 % 8.36 C
1245 04-07-2019 07:40:00 10.7 C 86 % 8.46 C
1246 04-07-2019 07:45:00 10.8 C 86 % 8.56 C
1247 04-07-2019 07:50:00 10.9 C 86 % 8.65 C
1248 04-07-2019 07:55:00 11 C 86 % 8.75 C
1249 04-07-2019 08:00:00 11.1 C 86 % 8.85 C
1250 04-07-2019 08:05:00 11.2 C 86 % 8.95 C
Sensor: Nr:Datum:Temp:Feuchte:Taupunkt:
Aussen-T/F 1251 04-07-2019 08:10:00 11.3 C 86 % 9.05 C
1252 04-07-2019 08:15:00 11.4 C 86 % 9.14 C
1253 04-07-2019 08:20:00 11.5 C 85 % 9.07 C
1254 04-07-2019 08:25:00 11.6 C 85 % 9.17 C
1255 04-07-2019 08:30:00 11.7 C 84 % 9.09 C
1256 04-07-2019 08:35:00 11.9 C 84 % 9.29 C
1257 04-07-2019 08:40:00 12.1 C 83 % 9.3 C
1258 04-07-2019 08:45:00 12.2 C 81 % 9.04 C
1259 04-07-2019 08:50:00 12.5 C 81 % 9.33 C
1260 04-07-2019 08:55:00 12.7 C 80 % 9.34 C
1261 04-07-2019 09:00:00 12.9 C 81 % 9.72 C
1262 04-07-2019 09:05:00 13.1 C 80 % 9.73 C
1263 04-07-2019 09:10:00 13.3 C 78 % 9.55 C
1264 04-07-2019 09:15:00 13.7 C 77 % 9.75 C
1265 04-07-2019 09:20:00 13.9 C 76 % 9.74 C
1266 04-07-2019 09:25:00 14.2 C 76 % 10.03 C
1267 04-07-2019 09:30:00 14.3 C 73 % 9.53 C
1268 04-07-2019 09:35:00 14.7 C 71 % 9.5 C
1269 04-07-2019 09:40:00 15.1 C 69 % 9.46 C
1270 04-07-2019 09:45:00 15.4 C 67 % 9.31 C
1271 04-07-2019 09:50:00 15.9 C 66 % 9.56 C
1272 04-07-2019 09:55:00 16.3 C 64 % 9.48 C
1273 04-07-2019 10:00:00 16.7 C 62 % 9.39 C
1274 04-07-2019 10:05:00 16.9 C 61 % 9.34 C
1275 04-07-2019 10:10:00 17.2 C 60 % 9.37 C
Sensor: Nr:Datum:Temp:Feuchte:Taupunkt:
Aussen-T/F 1276 04-07-2019 10:15:00 17.4 C 59 % 9.31 C
1277 04-07-2019 10:20:00 17.8 C 58 % 9.43 C
1278 04-07-2019 10:25:00 18.1 C 56 % 9.19 C
1279 04-07-2019 10:30:00 18.4 C 57 % 9.74 C
1280 04-07-2019 10:35:00 18.7 C 53 % 8.93 C
1281 04-07-2019 10:40:00 18.9 C 52 % 8.84 C
1282 04-07-2019 10:45:00 19.1 C 52 % 9.02 C
1283 04-07-2019 10:50:00 19.1 C 52 % 9.02 C
1284 04-07-2019 10:55:00 19.2 C 51 % 8.83 C
1285 04-07-2019 11:00:00 19.2 C 50 % 8.53 C
1286 04-07-2019 11:05:00 19.3 C 51 % 8.92 C
1287 04-07-2019 11:10:00 19.3 C 50 % 8.63 C
1288 04-07-2019 11:15:00 19.4 C 49 % 8.42 C
1289 04-07-2019 11:20:00 19.4 C 50 % 8.72 C
1290 04-07-2019 11:25:00 19.6 C 49 % 8.6 C
1291 04-07-2019 11:30:00 19.7 C 49 % 8.7 C
1292 04-07-2019 11:35:00 19.8 C 48 % 8.48 C
1293 04-07-2019 11:40:00 19.8 C 49 % 8.79 C
1294 04-07-2019 11:45:00 19.8 C 48 % 8.48 C
1295 04-07-2019 11:50:00 19.8 C 48 % 8.48 C
1296 04-07-2019 11:55:00 19.9 C 48 % 8.57 C
1297 04-07-2019 12:00:00 20.2 C 47 % 8.54 C
1298 04-07-2019 12:05:00 20.3 C 48 % 8.94 C
1299 04-07-2019 12:10:00 20.3 C 46 % 8.31 C
1300 04-07-2019 12:15:00 20.1 C 47 % 8.45 C
Sensor: Nr:Datum:Temp:Feuchte:Taupunkt:
Aussen-T/F 1301 04-07-2019 12:20:00 20.2 C 46 % 8.22 C
1302 04-07-2019 12:25:00 20.2 C 46 % 8.22 C
1303 04-07-2019 12:30:00 20.3 C 44 % 7.66 C
1304 04-07-2019 12:35:00 20.4 C 45 % 8.08 C
1305 04-07-2019 12:40:00 20.5 C 44 % 7.84 C
1306 04-07-2019 12:45:00 20.7 C 44 % 8.02 C
1307 04-07-2019 12:50:00 20.8 C 44 % 8.11 C
1308 04-07-2019 12:55:00 20.8 C 43 % 7.77 C
1309 04-07-2019 13:00:00 20.9 C 42 % 7.52 C
1310 04-07-2019 13:05:00 20.9 C 43 % 7.86 C
1311 04-07-2019 13:10:00 21.2 C 42 % 7.79 C
1312 04-07-2019 13:15:00 21.4 C 41 % 7.62 C
1313 04-07-2019 13:20:00 21.6 C 43 % 8.49 C
1314 04-07-2019 13:25:00 21.8 C 43 % 8.67 C
1315 04-07-2019 13:30:00 21.8 C 42 % 8.33 C
1316 04-07-2019 13:35:00 21.9 C 41 % 8.06 C
1317 04-07-2019 13:40:00 21.9 C 41 % 8.06 C
1318 04-07-2019 13:45:00 21.9 C 41 % 8.06 C
1319 04-07-2019 13:50:00 22.1 C 40 % 7.88 C
1320 04-07-2019 13:55:00 22.2 C 40 % 7.97 C
1321 04-07-2019 14:00:00 22.2 C 41 % 8.33 C
1322 04-07-2019 14:05:00 22.1 C 41 % 8.24 C
1323 04-07-2019 14:10:00 22.2 C 41 % 8.33 C
1324 04-07-2019 14:15:00 22.3 C 41 % 8.42 C
1325 04-07-2019 14:20:00 22.6 C 38 % 7.57 C
Sensor: Nr:Datum:Temp:Feuchte:Taupunkt:
Aussen-T/F 1326 04-07-2019 14:25:00 22.7 C 38 % 7.66 C
1327 04-07-2019 14:30:00 22.7 C 37 % 7.27 C
1328 04-07-2019 14:35:00 22.8 C 36 % 6.96 C
1329 04-07-2019 14:40:00 22.9 C 36 % 7.05 C
1330 04-07-2019 14:45:00 23.2 C 36 % 7.31 C
1331 04-07-2019 14:50:00 23.3 C 35 % 6.99 C
1332 04-07-2019 14:55:00 23.6 C 36 % 7.67 C
1333 04-07-2019 15:00:00 23.7 C 34 % 6.92 C
1334 04-07-2019 15:05:00 23.8 C 35 % 7.43 C
1335 04-07-2019 15:10:00 23.9 C 35 % 7.52 C
1336 04-07-2019 15:15:00 24.1 C 35 % 7.69 C
1337 04-07-2019 15:20:00 24.2 C 33 % 6.92 C
1338 04-07-2019 15:25:00 24.4 C 36 % 8.37 C
1339 04-07-2019 15:30:00 24.7 C 33 % 7.36 C
1340 04-07-2019 15:35:00 25.1 C 35 % 8.57 C
1341 04-07-2019 15:40:00 25.6 C 33 % 8.14 C
1342 04-07-2019 15:45:00 25.7 C 30 % 6.84 C
1343 04-07-2019 15:50:00 25.5 C 33 % 8.06 C
1344 04-07-2019 15:55:00 25.7 C 31 % 7.31 C
1345 04-07-2019 16:00:00 25.9 C 32 % 7.95 C
1346 04-07-2019 16:05:00 26.2 C 32 % 8.21 C
1347 04-07-2019 16:10:00 26.7 C 31 % 8.18 C
1348 04-07-2019 16:15:00 27.1 C 32 % 8.99 C
1349 04-07-2019 16:20:00 27.3 C 30 % 8.21 C
1350 04-07-2019 16:25:00 27.1 C 31 % 8.52 C
Sensor: Nr:Datum:Temp:Feuchte:Taupunkt:
Aussen-T/F 1351 04-07-2019 16:30:00 27.1 C 31 % 8.52 C
1352 04-07-2019 16:35:00 27.1 C 31 % 8.52 C
1353 04-07-2019 16:40:00 27 C 31 % 8.44 C
1354 04-07-2019 16:45:00 26.9 C 32 % 8.82 C
1355 04-07-2019 16:50:00 26.7 C 32 % 8.65 C
1356 04-07-2019 16:55:00 26.6 C 32 % 8.56 C
1357 04-07-2019 17:00:00 26.4 C 33 % 8.84 C
1358 04-07-2019 17:05:00 26.5 C 33 % 8.93 C
1359 04-07-2019 17:10:00 26.8 C 34 % 9.63 C
1360 04-07-2019 17:15:00 27.1 C 32 % 8.99 C
1361 04-07-2019 17:20:00 27.2 C 33 % 9.54 C
1362 04-07-2019 17:25:00 27.1 C 31 % 8.52 C
1363 04-07-2019 17:30:00 26.8 C 32 % 8.73 C
1364 04-07-2019 17:35:00 26.6 C 32 % 8.56 C
1365 04-07-2019 17:40:00 26.8 C 32 % 8.73 C
1366 04-07-2019 17:45:00 27.2 C 30 % 8.13 C
1367 04-07-2019 17:50:00 27.1 C 31 % 8.52 C
1368 04-07-2019 17:55:00 27.2 C 30 % 8.13 C
1369 04-07-2019 18:00:00 27.3 C 31 % 8.7 C
1370 04-07-2019 18:05:00 27.4 C 31 % 8.78 C
1371 04-07-2019 18:10:00 27.5 C 30 % 8.39 C
1372 04-07-2019 18:15:00 27.6 C 30 % 8.47 C
1373 04-07-2019 18:20:00 27.5 C 31 % 8.87 C
1374 04-07-2019 18:25:00 27.3 C 31 % 8.7 C
1375 04-07-2019 18:30:00 27.4 C 30 % 8.3 C
Sensor: Nr:Datum:Temp:Feuchte:Taupunkt:
Aussen-T/F 1376 04-07-2019 18:35:00 27.3 C 31 % 8.7 C
1377 04-07-2019 18:40:00 27.2 C 30 % 8.13 C
1378 04-07-2019 18:45:00 27.2 C 31 % 8.61 C
1379 04-07-2019 18:50:00 27.2 C 32 % 9.08 C
1380 04-07-2019 18:55:00 27.3 C 31 % 8.7 C
1381 04-07-2019 19:00:00 27.6 C 31 % 8.96 C
1382 04-07-2019 19:05:00 27.6 C 30 % 8.47 C
1383 04-07-2019 19:10:00 27.4 C 31 % 8.78 C
1384 04-07-2019 19:15:00 27.4 C 31 % 8.78 C
1385 04-07-2019 19:20:00 27.3 C 31 % 8.7 C
1386 04-07-2019 19:25:00 27.2 C 31 % 8.61 C
1387 04-07-2019 19:30:00 26.9 C 31 % 8.35 C
1388 04-07-2019 19:35:00 26.6 C 33 % 9.01 C
1389 04-07-2019 19:40:00 26.5 C 32 % 8.47 C
1390 04-07-2019 19:45:00 26.4 C 33 % 8.84 C
1391 04-07-2019 19:50:00 26.3 C 33 % 8.75 C
1392 04-07-2019 19:55:00 26.1 C 33 % 8.58 C
1393 04-07-2019 20:00:00 25.8 C 33 % 8.32 C
1394 04-07-2019 20:05:00 25.7 C 34 % 8.67 C
1395 04-07-2019 20:10:00 25.5 C 35 % 8.92 C
1396 04-07-2019 20:15:00 25.4 C 34 % 8.41 C
1397 04-07-2019 20:20:00 25.2 C 35 % 8.66 C
1398 04-07-2019 20:25:00 25.1 C 36 % 8.99 C
1399 04-07-2019 20:30:00 24.9 C 36 % 8.81 C
1400 04-07-2019 20:35:00 24.7 C 37 % 9.04 C
Sensor: Nr:Datum:Temp:Feuchte:Taupunkt:
Aussen-T/F 1401 04-07-2019 20:40:00 24.6 C 38 % 9.35 C
1402 04-07-2019 20:45:00 24.4 C 39 % 9.56 C
1403 04-07-2019 20:50:00 24.2 C 38 % 8.99 C
1404 04-07-2019 20:55:00 23.9 C 39 % 9.11 C
1405 04-07-2019 21:00:00 23.6 C 41 % 9.59 C
1406 04-07-2019 21:05:00 23.4 C 41 % 9.41 C
1407 04-07-2019 21:10:00 23.2 C 46 % 10.95 C
1408 04-07-2019 21:15:00 22.9 C 45 % 10.34 C
1409 04-07-2019 21:20:00 22.4 C 46 % 10.22 C
1410 04-07-2019 21:25:00 21.9 C 47 % 10.09 C
1411 04-07-2019 21:30:00 21.4 C 48 % 9.94 C
1412 04-07-2019 21:35:00 20.9 C 50 % 10.1 C
1413 04-07-2019 21:40:00 20.4 C 50 % 9.64 C
1414 04-07-2019 21:45:00 20.1 C 51 % 9.66 C
1415 04-07-2019 21:50:00 19.7 C 51 % 9.29 C
1416 04-07-2019 21:55:00 19.4 C 53 % 9.58 C
1417 04-07-2019 22:00:00 19.2 C 53 % 9.4 C
1418 04-07-2019 22:05:00 19.1 C 52 % 9.02 C
1419 04-07-2019 22:10:00 19 C 53 % 9.21 C
1420 04-07-2019 22:15:00 18.9 C 52 % 8.84 C
1421 04-07-2019 22:20:00 18.7 C 53 % 8.93 C
1422 04-07-2019 22:25:00 18.7 C 53 % 8.93 C
1423 04-07-2019 22:30:00 18.5 C 53 % 8.75 C
1424 04-07-2019 22:35:00 18.3 C 53 % 8.56 C
1425 04-07-2019 22:40:00 18.2 C 53 % 8.47 C
Sensor: Nr:Datum:Temp:Feuchte:Taupunkt:
Aussen-T/F 1426 04-07-2019 22:45:00 18.2 C 55 % 9.02 C
1427 04-07-2019 22:50:00 18.1 C 55 % 8.93 C
1428 04-07-2019 22:55:00 17.9 C 56 % 9.01 C
1429 04-07-2019 23:00:00 17.8 C 56 % 8.91 C
1430 04-07-2019 23:05:00 17.7 C 55 % 8.55 C
1431 04-07-2019 23:10:00 17.6 C 57 % 8.99 C
1432 04-07-2019 23:15:00 17.5 C 56 % 8.63 C
1433 04-07-2019 23:20:00 17.3 C 56 % 8.45 C
1434 04-07-2019 23:25:00 17.3 C 57 % 8.71 C
1435 04-07-2019 23:30:00 17.3 C 57 % 8.71 C
1436 04-07-2019 23:35:00 17.2 C 58 % 8.87 C
1437 04-07-2019 23:40:00 17.2 C 58 % 8.87 C
1438 04-07-2019 23:45:00 17.3 C 58 % 8.97 C
1439 04-07-2019 23:50:00 17.3 C 58 % 8.97 C
1440 04-07-2019 23:55:00 17.2 C 58 % 8.87 C
1441 05-07-2019 00:00:00 17.2 C 58 % 8.87 C
1442 05-07-2019 00:05:00 17.1 C 59 % 9.03 C
1443 05-07-2019 00:10:00 16.9 C 60 % 9.09 C
1444 05-07-2019 00:15:00 16.7 C 61 % 9.15 C
1445 05-07-2019 00:20:00 16.5 C 61 % 8.96 C
1446 05-07-2019 00:25:00 16.4 C 62 % 9.11 C
1447 05-07-2019 00:30:00 16.2 C 62 % 8.92 C
1448 05-07-2019 00:35:00 16.1 C 62 % 8.82 C
1449 05-07-2019 00:40:00 16.1 C 63 % 9.06 C
1450 05-07-2019 00:45:00 16 C 63 % 8.97 C
Sensor: Nr:Datum:Temp:Feuchte:Taupunkt:
Aussen-T/F 1451 05-07-2019 00:50:00 15.9 C 64 % 9.11 C
1452 05-07-2019 00:55:00 15.9 C 63 % 8.87 C
1453 05-07-2019 01:00:00 15.8 C 64 % 9.01 C
1454 05-07-2019 01:05:00 15.7 C 63 % 8.68 C
1455 05-07-2019 01:10:00 15.6 C 64 % 8.82 C
1456 05-07-2019 01:15:00 15.4 C 65 % 8.86 C
1457 05-07-2019 01:20:00 15.3 C 66 % 8.99 C
1458 05-07-2019 01:25:00 15.2 C 65 % 8.67 C
1459 05-07-2019 01:30:00 15.1 C 66 % 8.8 C
1460 05-07-2019 01:35:00 14.9 C 67 % 8.83 C
1461 05-07-2019 01:40:00 14.9 C 67 % 8.83 C
1462 05-07-2019 01:45:00 14.8 C 67 % 8.74 C
1463 05-07-2019 01:50:00 14.8 C 68 % 8.96 C
1464 05-07-2019 01:55:00 14.7 C 68 % 8.86 C
1465 05-07-2019 02:00:00 14.6 C 67 % 8.55 C
1466 05-07-2019 02:05:00 14.5 C 67 % 8.45 C
1467 05-07-2019 02:10:00 14.4 C 68 % 8.58 C
1468 05-07-2019 02:15:00 14.3 C 68 % 8.48 C
1469 05-07-2019 02:20:00 14.3 C 69 % 8.7 C
1470 05-07-2019 02:25:00 14.2 C 69 % 8.6 C
1471 05-07-2019 02:30:00 14.1 C 69 % 8.5 C
1472 05-07-2019 02:35:00 14 C 69 % 8.41 C
1473 05-07-2019 02:40:00 13.9 C 70 % 8.53 C
1474 05-07-2019 02:45:00 13.8 C 71 % 8.64 C
1475 05-07-2019 02:50:00 13.8 C 71 % 8.64 C
Sensor: Nr:Datum:Temp:Feuchte:Taupunkt:
Aussen-T/F 1476 05-07-2019 02:55:00 13.7 C 72 % 8.75 C
1477 05-07-2019 03:00:00 13.7 C 71 % 8.54 C
1478 05-07-2019 03:05:00 13.7 C 72 % 8.75 C
1479 05-07-2019 03:10:00 13.6 C 72 % 8.65 C
1480 05-07-2019 03:15:00 13.6 C 72 % 8.65 C
1481 05-07-2019 03:20:00 13.6 C 73 % 8.86 C
1482 05-07-2019 03:25:00 13.7 C 74 % 9.15 C
1483 05-07-2019 03:30:00 13.7 C 74 % 9.15 C
1484 05-07-2019 03:35:00 13.7 C 74 % 9.15 C
1485 05-07-2019 03:40:00 13.7 C 74 % 9.15 C
1486 05-07-2019 03:45:00 13.8 C 74 % 9.25 C
1487 05-07-2019 03:50:00 13.8 C 75 % 9.45 C
1488 05-07-2019 03:55:00 13.9 C 74 % 9.35 C
1489 05-07-2019 04:00:00 14 C 74 % 9.44 C
1490 05-07-2019 04:05:00 14.1 C 74 % 9.54 C
1491 05-07-2019 04:10:00 14.1 C 74 % 9.54 C
1492 05-07-2019 04:15:00 14.1 C 74 % 9.54 C
1493 05-07-2019 04:20:00 14.1 C 74 % 9.54 C
1494 05-07-2019 04:25:00 14.1 C 74 % 9.54 C
1495 05-07-2019 04:30:00 14.1 C 73 % 9.34 C
1496 05-07-2019 04:35:00 14.1 C 74 % 9.54 C
1497 05-07-2019 04:40:00 14.1 C 74 % 9.54 C
1498 05-07-2019 04:45:00 14.1 C 73 % 9.34 C
1499 05-07-2019 04:50:00 14.1 C 74 % 9.54 C
1500 05-07-2019 04:55:00 14 C 74 % 9.44 C
Sensor: Nr:Datum:Temp:Feuchte:Taupunkt:
Aussen-T/F 1501 05-07-2019 05:00:00 13.9 C 74 % 9.35 C
1502 05-07-2019 05:05:00 13.9 C 74 % 9.35 C
1503 05-07-2019 05:10:00 13.8 C 74 % 9.25 C
1504 05-07-2019 05:15:00 13.8 C 74 % 9.25 C
1505 05-07-2019 05:20:00 13.8 C 74 % 9.25 C
1506 05-07-2019 05:25:00 13.7 C 74 % 9.15 C
1507 05-07-2019 05:30:00 13.7 C 74 % 9.15 C
1508 05-07-2019 05:35:00 13.7 C 75 % 9.35 C
1509 05-07-2019 05:40:00 13.7 C 75 % 9.35 C
1510 05-07-2019 05:45:00 13.7 C 75 % 9.35 C
1511 05-07-2019 05:50:00 13.7 C 76 % 9.55 C
1512 05-07-2019 05:55:00 13.7 C 76 % 9.55 C
1513 05-07-2019 06:00:00 13.8 C 76 % 9.65 C
1514 05-07-2019 06:05:00 13.8 C 76 % 9.65 C
1515 05-07-2019 06:10:00 13.8 C 76 % 9.65 C
1516 05-07-2019 06:15:00 13.8 C 76 % 9.65 C
1517 05-07-2019 06:20:00 13.9 C 76 % 9.74 C
1518 05-07-2019 06:25:00 13.9 C 77 % 9.94 C
1519 05-07-2019 06:30:00 13.9 C 76 % 9.74 C
1520 05-07-2019 06:35:00 14 C 77 % 10.04 C
1521 05-07-2019 06:40:00 14 C 77 % 10.04 C
1522 05-07-2019 06:45:00 14.1 C 77 % 10.13 C
1523 05-07-2019 06:50:00 14.1 C 76 % 9.94 C
1524 05-07-2019 06:55:00 14.1 C 76 % 9.94 C
1525 05-07-2019 07:00:00 14.2 C 77 % 10.23 C
Sensor: Nr:Datum:Temp:Feuchte:Taupunkt:
Aussen-T/F 1526 05-07-2019 07:05:00 14.2 C 77 % 10.23 C
1527 05-07-2019 07:10:00 14.3 C 77 % 10.33 C
1528 05-07-2019 07:15:00 14.3 C 77 % 10.33 C
1529 05-07-2019 07:20:00 14.3 C 75 % 9.93 C
1530 05-07-2019 07:25:00 14.4 C 75 % 10.03 C
1531 05-07-2019 07:30:00 14.6 C 75 % 10.22 C
1532 05-07-2019 07:35:00 14.7 C 74 % 10.12 C
1533 05-07-2019 07:40:00 14.8 C 75 % 10.42 C
1534 05-07-2019 07:45:00 14.9 C 75 % 10.51 C
1535 05-07-2019 07:50:00 14.9 C 74 % 10.31 C
1536 05-07-2019 07:55:00 15 C 74 % 10.41 C
1537 05-07-2019 08:00:00 15 C 74 % 10.41 C
1538 05-07-2019 08:05:00 15.2 C 75 % 10.8 C
1539 05-07-2019 08:10:00 15.3 C 74 % 10.7 C
1540 05-07-2019 08:15:00 15.5 C 73 % 10.69 C
1541 05-07-2019 08:20:00 15.7 C 73 % 10.88 C
1542 05-07-2019 08:25:00 15.8 C 73 % 10.97 C
1543 05-07-2019 08:30:00 15.9 C 73 % 11.07 C
1544 05-07-2019 08:35:00 16 C 73 % 11.17 C
1545 05-07-2019 08:40:00 16.1 C 72 % 11.06 C
1546 05-07-2019 08:45:00 16.2 C 72 % 11.15 C
1547 05-07-2019 08:50:00 16.4 C 70 % 10.92 C
1548 05-07-2019 08:55:00 16.5 C 69 % 10.8 C
1549 05-07-2019 09:00:00 16.6 C 69 % 10.89 C
1550 05-07-2019 09:05:00 16.7 C 69 % 10.99 C
Sensor: Nr:Datum:Temp:Feuchte:Taupunkt:
Aussen-T/F 1551 05-07-2019 09:10:00 16.8 C 69 % 11.09 C
1552 05-07-2019 09:15:00 16.9 C 69 % 11.18 C
1553 05-07-2019 09:20:00 17.1 C 69 % 11.37 C
1554 05-07-2019 09:25:00 17.2 C 69 % 11.47 C
1555 05-07-2019 09:30:00 17.3 C 68 % 11.34 C
1556 05-07-2019 09:35:00 17.5 C 67 % 11.31 C
1557 05-07-2019 09:40:00 17.6 C 65 % 10.95 C
1558 05-07-2019 09:45:00 17.8 C 66 % 11.37 C
1559 05-07-2019 09:50:00 17.9 C 65 % 11.23 C
1560 05-07-2019 09:55:00 18.1 C 66 % 11.65 C
1561 05-07-2019 10:00:00 18.3 C 63 % 11.14 C
1562 05-07-2019 10:05:00 18.7 C 62 % 11.28 C
1563 05-07-2019 10:10:00 18.9 C 62 % 11.47 C
1564 05-07-2019 10:15:00 19.3 C 62 % 11.84 C
1565 05-07-2019 10:20:00 19.7 C 62 % 12.22 C
1566 05-07-2019 10:25:00 20 C 61 % 12.26 C
1567 05-07-2019 10:30:00 20.4 C 58 % 11.86 C
1568 05-07-2019 10:35:00 21 C 56 % 11.89 C
1569 05-07-2019 10:40:00 21.4 C 55 % 11.99 C
1570 05-07-2019 10:45:00 21.7 C 55 % 12.27 C
1571 05-07-2019 10:50:00 21.7 C 54 % 11.99 C
1572 05-07-2019 10:55:00 21.6 C 54 % 11.9 C
1573 05-07-2019 11:00:00 21.6 C 54 % 11.9 C
1574 05-07-2019 11:05:00 21.6 C 54 % 11.9 C
1575 05-07-2019 11:10:00 21.7 C 55 % 12.27 C
Sensor: Nr:Datum:Temp:Feuchte:Taupunkt:
Aussen-T/F 1576 05-07-2019 11:15:00 21.8 C 54 % 12.08 C
1577 05-07-2019 11:20:00 21.7 C 54 % 11.99 C
1578 05-07-2019 11:25:00 21.8 C 53 % 11.8 C
1579 05-07-2019 11:30:00 21.9 C 52 % 11.61 C
1580 05-07-2019 11:35:00 22 C 52 % 11.7 C
1581 05-07-2019 11:40:00 22.1 C 53 % 12.08 C
1582 05-07-2019 11:45:00 22.3 C 53 % 12.26 C
1583 05-07-2019 11:50:00 22.4 C 52 % 12.07 C
1584 05-07-2019 11:55:00 22.4 C 52 % 12.07 C
1585 05-07-2019 12:00:00 22.3 C 52 % 11.97 C
1586 05-07-2019 12:05:00 22.3 C 51 % 11.68 C
1587 05-07-2019 12:10:00 22.4 C 52 % 12.07 C
1588 05-07-2019 12:15:00 22.4 C 51 % 11.77 C
1589 05-07-2019 12:20:00 22.5 C 51 % 11.86 C
1590 05-07-2019 12:25:00 22.6 C 51 % 11.96 C
1591 05-07-2019 12:30:00 22.7 C 52 % 12.34 C
1592 05-07-2019 12:35:00 22.9 C 50 % 11.93 C
1593 05-07-2019 12:40:00 23.1 C 49 % 11.81 C
1594 05-07-2019 12:45:00 23.4 C 48 % 11.77 C
1595 05-07-2019 12:50:00 23.7 C 49 % 12.36 C
1596 05-07-2019 12:55:00 23.8 C 47 % 11.82 C
1597 05-07-2019 13:00:00 23.8 C 48 % 12.14 C
1598 05-07-2019 13:05:00 23.9 C 47 % 11.91 C
1599 05-07-2019 13:10:00 24.1 C 46 % 11.76 C
1600 05-07-2019 13:15:00 24.2 C 46 % 11.85 C
Sensor: Nr:Datum:Temp:Feuchte:Taupunkt:
Aussen-T/F 1601 05-07-2019 13:20:00 24.3 C 45 % 11.61 C
1602 05-07-2019 13:25:00 24.4 C 45 % 11.7 C
1603 05-07-2019 13:30:00 24.4 C 45 % 11.7 C
1604 05-07-2019 13:35:00 24.6 C 46 % 12.22 C
1605 05-07-2019 13:40:00 24.7 C 45 % 11.97 C
1606 05-07-2019 13:45:00 24.7 C 44 % 11.63 C
1607 05-07-2019 13:50:00 24.7 C 44 % 11.63 C
1608 05-07-2019 13:55:00 24.8 C 44 % 11.72 C
1609 05-07-2019 14:00:00 24.8 C 44 % 11.72 C
1610 05-07-2019 14:05:00 24.8 C 43 % 11.38 C
1611 05-07-2019 14:10:00 24.9 C 44 % 11.81 C
1612 05-07-2019 14:15:00 25.1 C 45 % 12.34 C
1613 05-07-2019 14:20:00 25.2 C 43 % 11.74 C
1614 05-07-2019 14:25:00 25.3 C 42 % 11.47 C
1615 05-07-2019 14:30:00 25.4 C 41 % 11.2 C
1616 05-07-2019 14:35:00 25.5 C 43 % 12.01 C
1617 05-07-2019 14:40:00 25.9 C 42 % 12.01 C
1618 05-07-2019 14:45:00 26.2 C 43 % 12.64 C
1619 05-07-2019 14:50:00 26.3 C 40 % 11.63 C
1620 05-07-2019 14:55:00 26.6 C 43 % 13 C
1621 05-07-2019 15:00:00 27 C 41 % 12.63 C
1622 05-07-2019 15:05:00 27.2 C 38 % 11.65 C
1623 05-07-2019 15:10:00 27.3 C 39 % 12.13 C
1624 05-07-2019 15:15:00 27.3 C 38 % 11.74 C
1625 05-07-2019 15:20:00 27.2 C 38 % 11.65 C
Sensor: Nr:Datum:Temp:Feuchte:Taupunkt:
Aussen-T/F 1626 05-07-2019 15:25:00 27.1 C 38 % 11.56 C
1627 05-07-2019 15:30:00 27.1 C 38 % 11.56 C
1628 05-07-2019 15:35:00 27.3 C 37 % 11.34 C
1629 05-07-2019 15:40:00 27.6 C 38 % 12.01 C
1630 05-07-2019 15:45:00 27.8 C 37 % 11.78 C
1631 05-07-2019 15:50:00 28.2 C 36 % 11.72 C
1632 05-07-2019 15:55:00 28.3 C 36 % 11.81 C
1633 05-07-2019 16:00:00 28.3 C 36 % 11.81 C
1634 05-07-2019 16:05:00 28.3 C 35 % 11.38 C
1635 05-07-2019 16:10:00 28.6 C 36 % 12.07 C
1636 05-07-2019 16:15:00 28.6 C 37 % 12.49 C
1637 05-07-2019 16:20:00 28.9 C 35 % 11.91 C
1638 05-07-2019 16:25:00 28.9 C 34 % 11.47 C
1639 05-07-2019 16:30:00 28.8 C 34 % 11.38 C
1640 05-07-2019 16:35:00 29.1 C 35 % 12.08 C
1641 05-07-2019 16:40:00 29.3 C 35 % 12.26 C
1642 05-07-2019 16:45:00 29.4 C 34 % 11.9 C
1643 05-07-2019 16:50:00 29.5 C 33 % 11.54 C
1644 05-07-2019 16:55:00 29.3 C 34 % 11.82 C
1645 05-07-2019 17:00:00 29.2 C 34 % 11.73 C
1646 05-07-2019 17:05:00 29.2 C 34 % 11.73 C
1647 05-07-2019 17:10:00 29.4 C 33 % 11.45 C
1648 05-07-2019 17:15:00 29.7 C 34 % 12.17 C
1649 05-07-2019 17:20:00 29.7 C 34 % 12.17 C
1650 05-07-2019 17:25:00 29.6 C 34 % 12.08 C
Sensor: Nr:Datum:Temp:Feuchte:Taupunkt:
Aussen-T/F 1651 05-07-2019 17:30:00 29.6 C 35 % 12.52 C
1652 05-07-2019 17:35:00 29.7 C 34 % 12.17 C
1653 05-07-2019 17:40:00 29.7 C 33 % 11.71 C
1654 05-07-2019 17:45:00 29.7 C 33 % 11.71 C
1655 05-07-2019 17:50:00 29.8 C 34 % 12.25 C
1656 05-07-2019 17:55:00 29.9 C 33 % 11.89 C
1657 05-07-2019 18:00:00 29.9 C 34 % 12.34 C
1658 05-07-2019 18:05:00 29.6 C 35 % 12.52 C
1659 05-07-2019 18:10:00 29.8 C 35 % 12.69 C
1660 05-07-2019 18:15:00 29.9 C 34 % 12.34 C
1661 05-07-2019 18:20:00 29.7 C 34 % 12.17 C
1662 05-07-2019 18:25:00 29.4 C 34 % 11.9 C
1663 05-07-2019 18:30:00 29.3 C 35 % 12.26 C
1664 05-07-2019 18:35:00 29.4 C 35 % 12.34 C
1665 05-07-2019 18:40:00 29.4 C 35 % 12.34 C
1666 05-07-2019 18:45:00 29.3 C 37 % 13.1 C
1667 05-07-2019 18:50:00 28.9 C 35 % 11.91 C
1668 05-07-2019 18:55:00 28.4 C 37 % 12.31 C
1669 05-07-2019 19:00:00 28.4 C 38 % 12.72 C
1670 05-07-2019 19:05:00 28.3 C 38 % 12.63 C
1671 05-07-2019 19:10:00 28.3 C 38 % 12.63 C
1672 05-07-2019 19:15:00 28.1 C 38 % 12.45 C
1673 05-07-2019 19:20:00 27.9 C 38 % 12.27 C
1674 05-07-2019 19:25:00 27.7 C 38 % 12.1 C
1675 05-07-2019 19:30:00 27.6 C 39 % 12.4 C
Sensor: Nr:Datum:Temp:Feuchte:Taupunkt:
Aussen-T/F 1676 05-07-2019 19:35:00 27.7 C 39 % 12.49 C
1677 05-07-2019 19:40:00 27.5 C 39 % 12.31 C
1678 05-07-2019 19:45:00 27.2 C 39 % 12.05 C
1679 05-07-2019 19:50:00 26.9 C 40 % 12.16 C
1680 05-07-2019 19:55:00 26.6 C 40 % 11.9 C
1681 05-07-2019 20:00:00 26.4 C 41 % 12.09 C
1682 05-07-2019 20:05:00 26.3 C 41 % 12 C
1683 05-07-2019 20:10:00 26.3 C 42 % 12.37 C
1684 05-07-2019 20:15:00 26.2 C 43 % 12.64 C
1685 05-07-2019 20:20:00 26.2 C 42 % 12.28 C
1686 05-07-2019 20:25:00 26.2 C 42 % 12.28 C
1687 05-07-2019 20:30:00 26.2 C 41 % 11.91 C
1688 05-07-2019 20:35:00 26.2 C 42 % 12.28 C
1689 05-07-2019 20:40:00 26 C 42 % 12.1 C
1690 05-07-2019 20:45:00 25.9 C 43 % 12.37 C
1691 05-07-2019 20:50:00 25.8 C 46 % 13.31 C
1692 05-07-2019 20:55:00 25.6 C 47 % 13.45 C
1693 05-07-2019 21:00:00 25.2 C 48 % 13.41 C
1694 05-07-2019 21:05:00 24.7 C 49 % 13.27 C
1695 05-07-2019 21:10:00 24.3 C 50 % 13.22 C
1696 05-07-2019 21:15:00 24 C 50 % 12.94 C
1697 05-07-2019 21:20:00 23.7 C 51 % 12.97 C
1698 05-07-2019 21:25:00 23.3 C 53 % 13.19 C
1699 05-07-2019 21:30:00 23 C 53 % 12.91 C
1700 05-07-2019 21:35:00 22.7 C 54 % 12.92 C
Sensor: Nr:Datum:Temp:Feuchte:Taupunkt:
Aussen-T/F 1701 05-07-2019 21:40:00 22.3 C 55 % 12.83 C
1702 05-07-2019 21:45:00 22.1 C 56 % 12.92 C
1703 05-07-2019 21:50:00 21.8 C 56 % 12.64 C
1704 05-07-2019 21:55:00 21.6 C 57 % 12.72 C
1705 05-07-2019 22:00:00 21.5 C 57 % 12.63 C
1706 05-07-2019 22:05:00 21.4 C 58 % 12.8 C
1707 05-07-2019 22:10:00 21.3 C 58 % 12.71 C
1708 05-07-2019 22:15:00 21.2 C 58 % 12.61 C
1709 05-07-2019 22:20:00 21.2 C 59 % 12.87 C
1710 05-07-2019 22:25:00 21.1 C 59 % 12.78 C
1711 05-07-2019 22:30:00 21.1 C 60 % 13.04 C
1712 05-07-2019 22:35:00 21 C 59 % 12.69 C
1713 05-07-2019 22:40:00 21.1 C 59 % 12.78 C
1714 05-07-2019 22:45:00 21.1 C 59 % 12.78 C
1715 05-07-2019 22:50:00 21.1 C 60 % 13.04 C
1716 05-07-2019 22:55:00 21.1 C 59 % 12.78 C
1717 05-07-2019 23:00:00 21.1 C 59 % 12.78 C
1718 05-07-2019 23:05:00 21 C 60 % 12.94 C
1719 05-07-2019 23:10:00 20.9 C 60 % 12.85 C
1720 05-07-2019 23:15:00 20.8 C 60 % 12.76 C
1721 05-07-2019 23:20:00 20.8 C 61 % 13.01 C
1722 05-07-2019 23:25:00 20.7 C 62 % 13.16 C
1723 05-07-2019 23:30:00 20.5 C 63 % 13.22 C
1724 05-07-2019 23:35:00 20.3 C 64 % 13.27 C
1725 05-07-2019 23:40:00 20.1 C 64 % 13.08 C
Sensor: Nr:Datum:Temp:Feuchte:Taupunkt:
Aussen-T/F 1726 05-07-2019 23:45:00 19.8 C 66 % 13.27 C
1727 05-07-2019 23:50:00 19.5 C 66 % 12.98 C
1728 05-07-2019 23:55:00 19.3 C 67 % 13.02 C
1729 06-07-2019 00:00:00 19.1 C 68 % 13.06 C
1730 06-07-2019 00:05:00 18.9 C 68 % 12.87 C
1731 06-07-2019 00:10:00 18.8 C 69 % 13 C
1732 06-07-2019 00:15:00 18.7 C 69 % 12.9 C
1733 06-07-2019 00:20:00 18.5 C 70 % 12.93 C
1734 06-07-2019 00:25:00 18.4 C 69 % 12.61 C
1735 06-07-2019 00:30:00 18.3 C 71 % 12.95 C
1736 06-07-2019 00:35:00 18.3 C 71 % 12.95 C
1737 06-07-2019 00:40:00 18.2 C 71 % 12.86 C
1738 06-07-2019 00:45:00 18.1 C 71 % 12.76 C
1739 06-07-2019 00:50:00 18.1 C 71 % 12.76 C
1740 06-07-2019 00:55:00 18.1 C 71 % 12.76 C
1741 06-07-2019 01:00:00 18.1 C 72 % 12.98 C
1742 06-07-2019 01:05:00 18 C 71 % 12.67 C
1743 06-07-2019 01:10:00 17.9 C 71 % 12.57 C
1744 06-07-2019 01:15:00 17.9 C 72 % 12.78 C
1745 06-07-2019 01:20:00 17.8 C 73 % 12.9 C
1746 06-07-2019 01:25:00 17.7 C 73 % 12.8 C
1747 06-07-2019 01:30:00 17.6 C 73 % 12.71 C
1748 06-07-2019 01:35:00 17.4 C 73 % 12.51 C
1749 06-07-2019 01:40:00 17.3 C 74 % 12.62 C
1750 06-07-2019 01:45:00 17.3 C 74 % 12.62 C
Sensor: Nr:Datum:Temp:Feuchte:Taupunkt:
Aussen-T/F 1751 06-07-2019 01:50:00 17.2 C 75 % 12.73 C
1752 06-07-2019 01:55:00 17.1 C 76 % 12.84 C
1753 06-07-2019 02:00:00 17.1 C 76 % 12.84 C
1754 06-07-2019 02:05:00 17.1 C 76 % 12.84 C
1755 06-07-2019 02:10:00 17.1 C 76 % 12.84 C
1756 06-07-2019 02:15:00 17 C 76 % 12.74 C
1757 06-07-2019 02:20:00 17 C 76 % 12.74 C
1758 06-07-2019 02:25:00 17 C 76 % 12.74 C
1759 06-07-2019 02:30:00 17 C 76 % 12.74 C
1760 06-07-2019 02:35:00 17.1 C 77 % 13.04 C
1761 06-07-2019 02:40:00 17.1 C 76 % 12.84 C
1762 06-07-2019 02:45:00 17.1 C 76 % 12.84 C
1763 06-07-2019 02:50:00 17.1 C 77 % 13.04 C
1764 06-07-2019 02:55:00 17 C 77 % 12.94 C
1765 06-07-2019 03:00:00 17 C 77 % 12.94 C
1766 06-07-2019 03:05:00 17 C 77 % 12.94 C
1767 06-07-2019 03:10:00 17 C 77 % 12.94 C
1768 06-07-2019 03:15:00 17 C 77 % 12.94 C
1769 06-07-2019 03:20:00 16.9 C 77 % 12.84 C
1770 06-07-2019 03:25:00 16.9 C 77 % 12.84 C
1771 06-07-2019 03:30:00 16.9 C 78 % 13.04 C
1772 06-07-2019 03:35:00 16.8 C 78 % 12.94 C
1773 06-07-2019 03:40:00 16.8 C 78 % 12.94 C
1774 06-07-2019 03:45:00 16.8 C 78 % 12.94 C
1775 06-07-2019 03:50:00 16.7 C 78 % 12.85 C
Sensor: Nr:Datum:Temp:Feuchte:Taupunkt:
Aussen-T/F 1776 06-07-2019 03:55:00 16.7 C 78 % 12.85 C
1777 06-07-2019 04:00:00 16.6 C 78 % 12.75 C
1778 06-07-2019 04:05:00 16.5 C 79 % 12.85 C
1779 06-07-2019 04:10:00 16.4 C 79 % 12.75 C
1780 06-07-2019 04:15:00 16.4 C 79 % 12.75 C
1781 06-07-2019 04:20:00 16.3 C 79 % 12.65 C
1782 06-07-2019 04:25:00 16.2 C 79 % 12.56 C
1783 06-07-2019 04:30:00 16.1 C 80 % 12.65 C
1784 06-07-2019 04:35:00 16 C 80 % 12.55 C
1785 06-07-2019 04:40:00 15.9 C 80 % 12.46 C
1786 06-07-2019 04:45:00 15.9 C 81 % 12.65 C
1787 06-07-2019 04:50:00 15.9 C 81 % 12.65 C
1788 06-07-2019 04:55:00 15.8 C 81 % 12.55 C
1789 06-07-2019 05:00:00 15.8 C 81 % 12.55 C
1790 06-07-2019 05:05:00 15.8 C 81 % 12.55 C
1791 06-07-2019 05:10:00 15.7 C 81 % 12.45 C
1792 06-07-2019 05:15:00 15.7 C 81 % 12.45 C
1793 06-07-2019 05:20:00 15.6 C 82 % 12.54 C
1794 06-07-2019 05:25:00 15.5 C 81 % 12.26 C
1795 06-07-2019 05:30:00 15.4 C 81 % 12.16 C
1796 06-07-2019 05:35:00 15.3 C 82 % 12.25 C
1797 06-07-2019 05:40:00 15.1 C 82 % 12.05 C
1798 06-07-2019 05:45:00 15.1 C 83 % 12.24 C
1799 06-07-2019 05:50:00 15.1 C 83 % 12.24 C
1800 06-07-2019 05:55:00 15 C 84 % 12.32 C
Sensor: Nr:Datum:Temp:Feuchte:Taupunkt:
Aussen-T/F 1801 06-07-2019 06:00:00 14.9 C 84 % 12.22 C
1802 06-07-2019 06:05:00 15 C 84 % 12.32 C
1803 06-07-2019 06:10:00 15.1 C 84 % 12.42 C
1804 06-07-2019 06:15:00 15.1 C 85 % 12.6 C
1805 06-07-2019 06:20:00 15.2 C 85 % 12.7 C
1806 06-07-2019 06:25:00 15.2 C 85 % 12.7 C
1807 06-07-2019 06:30:00 15.2 C 85 % 12.7 C
1808 06-07-2019 06:35:00 15.3 C 85 % 12.79 C
1809 06-07-2019 06:40:00 15.3 C 85 % 12.79 C
1810 06-07-2019 06:45:00 15.3 C 85 % 12.79 C
1811 06-07-2019 06:50:00 15.3 C 84 % 12.61 C
1812 06-07-2019 06:55:00 15.3 C 84 % 12.61 C
1813 06-07-2019 07:00:00 15.3 C 84 % 12.61 C
1814 06-07-2019 07:05:00 15.2 C 84 % 12.52 C
1815 06-07-2019 07:10:00 15.2 C 84 % 12.52 C
1816 06-07-2019 07:15:00 15.1 C 85 % 12.6 C
1817 06-07-2019 07:20:00 15.1 C 85 % 12.6 C
1818 06-07-2019 07:25:00 15 C 85 % 12.5 C
1819 06-07-2019 07:30:00 15 C 85 % 12.5 C
1820 06-07-2019 07:35:00 15.1 C 86 % 12.78 C
1821 06-07-2019 07:40:00 15.1 C 86 % 12.78 C
1822 06-07-2019 07:45:00 15.2 C 86 % 12.88 C
1823 06-07-2019 07:50:00 15.3 C 86 % 12.97 C
1824 06-07-2019 07:55:00 15.6 C 85 % 13.09 C
1825 06-07-2019 08:00:00 15.8 C 84 % 13.1 C
Sensor: Nr:Datum:Temp:Feuchte:Taupunkt:
Aussen-T/F 1826 06-07-2019 08:05:00 15.9 C 83 % 13.02 C
1827 06-07-2019 08:10:00 16.2 C 83 % 13.31 C
1828 06-07-2019 08:15:00 16.4 C 82 % 13.32 C
1829 06-07-2019 08:20:00 16.6 C 82 % 13.52 C
1830 06-07-2019 08:25:00 16.8 C 81 % 13.52 C
1831 06-07-2019 08:30:00 16.9 C 81 % 13.62 C
1832 06-07-2019 08:35:00 17.1 C 80 % 13.62 C
1833 06-07-2019 08:40:00 17.2 C 81 % 13.91 C
1834 06-07-2019 08:45:00 17.3 C 80 % 13.82 C
1835 06-07-2019 08:50:00 17.4 C 79 % 13.72 C
1836 06-07-2019 08:55:00 17.8 C 79 % 14.11 C
1837 06-07-2019 09:00:00 17.9 C 78 % 14.01 C
1838 06-07-2019 09:05:00 18.2 C 76 % 13.9 C
1839 06-07-2019 09:10:00 18.4 C 76 % 14.1 C
1840 06-07-2019 09:15:00 18.6 C 75 % 14.08 C
1841 06-07-2019 09:20:00 18.9 C 74 % 14.17 C
1842 06-07-2019 09:25:00 19.2 C 74 % 14.46 C
1843 06-07-2019 09:30:00 19.5 C 71 % 14.1 C
1844 06-07-2019 09:35:00 19.9 C 69 % 14.05 C
1845 06-07-2019 09:40:00 20.3 C 67 % 13.97 C
1846 06-07-2019 09:45:00 20.6 C 67 % 14.26 C
1847 06-07-2019 09:50:00 20.7 C 67 % 14.36 C
1848 06-07-2019 09:55:00 20.9 C 66 % 14.31 C
1849 06-07-2019 10:00:00 21.1 C 66 % 14.5 C
1850 06-07-2019 10:05:00 21.1 C 66 % 14.5 C
Sensor: Nr:Datum:Temp:Feuchte:Taupunkt:
Aussen-T/F 1851 06-07-2019 10:10:00 21.2 C 67 % 14.83 C
1852 06-07-2019 10:15:00 21.3 C 65 % 14.46 C
1853 06-07-2019 10:20:00 21.6 C 66 % 14.98 C
1854 06-07-2019 10:25:00 21.9 C 63 % 14.54 C
1855 06-07-2019 10:30:00 22.4 C 62 % 14.76 C
1856 06-07-2019 10:35:00 22.7 C 61 % 14.79 C
1857 06-07-2019 10:40:00 22.9 C 59 % 14.47 C
1858 06-07-2019 10:45:00 23.1 C 59 % 14.65 C
1859 06-07-2019 10:50:00 23.3 C 59 % 14.84 C
1860 06-07-2019 10:55:00 23.4 C 57 % 14.4 C
1861 06-07-2019 11:00:00 23.6 C 56 % 14.31 C
1862 06-07-2019 11:05:00 23.8 C 55 % 14.22 C
1863 06-07-2019 11:10:00 23.9 C 55 % 14.31 C
1864 06-07-2019 11:15:00 24.1 C 54 % 14.21 C
1865 06-07-2019 11:20:00 24.2 C 55 % 14.59 C
1866 06-07-2019 11:25:00 24.2 C 55 % 14.59 C
1867 06-07-2019 11:30:00 24.3 C 54 % 14.4 C
1868 06-07-2019 11:35:00 24.6 C 52 % 14.09 C
1869 06-07-2019 11:40:00 24.9 C 51 % 14.07 C
1870 06-07-2019 11:45:00 25.1 C 49 % 13.64 C
1871 06-07-2019 11:50:00 25.1 C 50 % 13.95 C
1872 06-07-2019 11:55:00 25.2 C 49 % 13.73 C
1873 06-07-2019 12:00:00 25.3 C 50 % 14.13 C
1874 06-07-2019 12:05:00 25.3 C 49 % 13.82 C
1875 06-07-2019 12:10:00 25.4 C 50 % 14.22 C
Sensor: Nr:Datum:Temp:Feuchte:Taupunkt:
Aussen-T/F 1876 06-07-2019 12:15:00 25.5 C 50 % 14.32 C
1877 06-07-2019 12:20:00 25.4 C 51 % 14.53 C
1878 06-07-2019 12:25:00 25.4 C 51 % 14.53 C
1879 06-07-2019 12:30:00 25.3 C 50 % 14.13 C
1880 06-07-2019 12:35:00 25.3 C 51 % 14.44 C
1881 06-07-2019 12:40:00 25.5 C 50 % 14.32 C
1882 06-07-2019 12:45:00 25.7 C 50 % 14.5 C
1883 06-07-2019 12:50:00 25.8 C 49 % 14.28 C
1884 06-07-2019 12:55:00 25.9 C 49 % 14.37 C
1885 06-07-2019 13:00:00 26.1 C 47 % 13.91 C
1886 06-07-2019 13:05:00 26.3 C 48 % 14.42 C
1887 06-07-2019 13:10:00 26.4 C 46 % 13.85 C
1888 06-07-2019 13:15:00 26.6 C 44 % 13.35 C
1889 06-07-2019 13:20:00 26.7 C 44 % 13.44 C
1890 06-07-2019 13:25:00 26.8 C 43 % 13.18 C
1891 06-07-2019 13:30:00 26.9 C 42 % 12.91 C
1892 06-07-2019 13:35:00 27.1 C 41 % 12.72 C
1893 06-07-2019 13:40:00 27.2 C 42 % 13.18 C
1894 06-07-2019 13:45:00 27.3 C 41 % 12.9 C
1895 06-07-2019 13:50:00 27.3 C 42 % 13.27 C
1896 06-07-2019 13:55:00 27.4 C 42 % 13.35 C
1897 06-07-2019 14:00:00 27.5 C 41 % 13.08 C
1898 06-07-2019 14:05:00 27.6 C 41 % 13.16 C
1899 06-07-2019 14:10:00 27.7 C 41 % 13.25 C
1900 06-07-2019 14:15:00 27.9 C 42 % 13.8 C
Sensor: Nr:Datum:Temp:Feuchte:Taupunkt:
Aussen-T/F 1901 06-07-2019 14:20:00 28.2 C 35 % 11.29 C
1902 06-07-2019 14:25:00 28.8 C 27 % 7.95 C
1903 06-07-2019 14:30:00 29.2 C 27 % 8.29 C
1904 06-07-2019 14:35:00 29.6 C 25 % 7.5 C
1905 06-07-2019 14:40:00 29.4 C 25 % 7.33 C
1906 06-07-2019 14:45:00 29.2 C 27 % 8.29 C
1907 06-07-2019 14:50:00 29.4 C 26 % 7.9 C
1908 06-07-2019 14:55:00 29.9 C 28 % 9.42 C
1909 06-07-2019 15:00:00 30.3 C 26 % 8.66 C
1910 06-07-2019 15:05:00 30.4 C 24 % 7.57 C
1911 06-07-2019 15:10:00 30.4 C 24 % 7.57 C
1912 06-07-2019 15:15:00 30.6 C 24 % 7.74 C
1913 06-07-2019 15:20:00 30.7 C 24 % 7.82 C
1914 06-07-2019 15:25:00 30.8 C 25 % 8.51 C
1915 06-07-2019 15:30:00 31.1 C 22 % 6.88 C
1916 06-07-2019 15:35:00 31.3 C 21 % 6.37 C
1917 06-07-2019 15:40:00 31.4 C 21 % 6.46 C
1918 06-07-2019 15:45:00 31.7 C 21 % 6.7 C
1919 06-07-2019 15:50:00 31.7 C 19 % 5.26 C
1920 06-07-2019 15:55:00 31.1 C 20 % 5.51 C
1921 06-07-2019 16:00:00 30.4 C 19 % 4.2 C
1922 06-07-2019 16:05:00 29.9 C 20 % 4.52 C
1923 06-07-2019 16:10:00 29.8 C 19 % 3.71 C
1924 06-07-2019 16:15:00 29.7 C 21 % 5.06 C
1925 06-07-2019 16:20:00 29.3 C 20 % 4.03 C
Sensor: Nr:Datum:Temp:Feuchte:Taupunkt:
Aussen-T/F 1926 06-07-2019 16:25:00 29 C 21 % 4.48 C
1927 06-07-2019 16:30:00 28.8 C 22 % 4.98 C
1928 06-07-2019 16:35:00 28.6 C 23 % 5.45 C
1929 06-07-2019 16:40:00 28.4 C 23 % 5.28 C
1930 06-07-2019 16:45:00 28.4 C 24 % 5.9 C
1931 06-07-2019 16:50:00 28.4 C 24 % 5.9 C
1932 06-07-2019 16:55:00 28.3 C 24 % 5.81 C
1933 06-07-2019 17:00:00 28.3 C 25 % 6.4 C
1934 06-07-2019 17:05:00 28.2 C 26 % 6.89 C
1935 06-07-2019 17:10:00 28.1 C 27 % 7.35 C
1936 06-07-2019 17:15:00 28.2 C 28 % 7.97 C
1937 06-07-2019 17:20:00 28.4 C 29 % 8.66 C
1938 06-07-2019 17:25:00 28.2 C 29 % 8.49 C
1939 06-07-2019 17:30:00 28.1 C 30 % 8.9 C
1940 06-07-2019 17:35:00 27.9 C 31 % 9.22 C
1941 06-07-2019 17:40:00 27.7 C 30 % 8.56 C
1942 06-07-2019 17:45:00 27.4 C 31 % 8.78 C
1943 06-07-2019 17:50:00 27.2 C 30 % 8.13 C
1944 06-07-2019 17:55:00 27 C 30 % 7.96 C
1945 06-07-2019 18:00:00 26.7 C 30 % 7.7 C
1946 06-07-2019 18:05:00 26.3 C 33 % 8.75 C
1947 06-07-2019 18:10:00 25.2 C 42 % 11.38 C
1948 06-07-2019 18:15:00 23.7 C 50 % 12.67 C
1949 06-07-2019 18:20:00 22.6 C 56 % 13.38 C
1950 06-07-2019 18:25:00 21.9 C 58 % 13.27 C
Sensor: Nr:Datum:Temp:Feuchte:Taupunkt:
Aussen-T/F 1951 06-07-2019 18:30:00 21.6 C 63 % 14.26 C
1952 06-07-2019 18:35:00 21.2 C 59 % 12.87 C
1953 06-07-2019 18:40:00 21.1 C 60 % 13.04 C
1954 06-07-2019 18:45:00 21.1 C 58 % 12.52 C
1955 06-07-2019 18:50:00 21.2 C 56 % 12.08 C
1956 06-07-2019 18:55:00 21.3 C 56 % 12.17 C
1957 06-07-2019 19:00:00 21.4 C 54 % 11.71 C
1958 06-07-2019 19:05:00 21.4 C 55 % 11.99 C
1959 06-07-2019 19:10:00 21.5 C 55 % 12.08 C
1960 06-07-2019 19:15:00 21.6 C 55 % 12.18 C
1961 06-07-2019 19:20:00 21.6 C 55 % 12.18 C
1962 06-07-2019 19:25:00 21.6 C 55 % 12.18 C
1963 06-07-2019 19:30:00 21.7 C 54 % 11.99 C
1964 06-07-2019 19:35:00 21.8 C 55 % 12.36 C
1965 06-07-2019 19:40:00 21.8 C 55 % 12.36 C
1966 06-07-2019 19:45:00 21.8 C 57 % 12.91 C
1967 06-07-2019 19:50:00 21.7 C 59 % 13.34 C
1968 06-07-2019 19:55:00 21.4 C 62 % 13.82 C
1969 06-07-2019 20:00:00 21.2 C 63 % 13.88 C
1970 06-07-2019 20:05:00 21 C 63 % 13.69 C
1971 06-07-2019 20:10:00 20.7 C 62 % 13.16 C
1972 06-07-2019 20:15:00 20.6 C 59 % 12.31 C
1973 06-07-2019 20:20:00 20.6 C 61 % 12.82 C
1974 06-07-2019 20:25:00 20.5 C 63 % 13.22 C
1975 06-07-2019 20:30:00 20.4 C 67 % 14.07 C
Sensor: Nr:Datum:Temp:Feuchte:Taupunkt:
Aussen-T/F 1976 06-07-2019 20:35:00 20.1 C 68 % 14.01 C
1977 06-07-2019 20:40:00 19.8 C 67 % 13.5 C
1978 06-07-2019 20:45:00 19.8 C 67 % 13.5 C
1979 06-07-2019 20:50:00 19.8 C 66 % 13.27 C
1980 06-07-2019 20:55:00 19.8 C 67 % 13.5 C
1981 06-07-2019 21:00:00 19.8 C 66 % 13.27 C
1982 06-07-2019 21:05:00 19.8 C 66 % 13.27 C
1983 06-07-2019 21:10:00 19.8 C 67 % 13.5 C
1984 06-07-2019 21:15:00 19.8 C 65 % 13.03 C
1985 06-07-2019 21:20:00 19.8 C 65 % 13.03 C
1986 06-07-2019 21:25:00 19.9 C 66 % 13.36 C
1987 06-07-2019 21:30:00 19.8 C 66 % 13.27 C
1988 06-07-2019 21:35:00 19.8 C 66 % 13.27 C
1989 06-07-2019 21:40:00 19.7 C 67 % 13.4 C
1990 06-07-2019 21:45:00 19.7 C 69 % 13.86 C
1991 06-07-2019 21:50:00 19.6 C 70 % 13.98 C
1992 06-07-2019 21:55:00 19.6 C 69 % 13.76 C
1993 06-07-2019 22:00:00 19.5 C 70 % 13.89 C
1994 06-07-2019 22:05:00 19.4 C 71 % 14.01 C
1995 06-07-2019 22:10:00 19.4 C 72 % 14.22 C
1996 06-07-2019 22:15:00 19.4 C 72 % 14.22 C
1997 06-07-2019 22:20:00 19.3 C 70 % 13.69 C
1998 06-07-2019 22:25:00 19.4 C 71 % 14.01 C
1999 06-07-2019 22:30:00 19.7 C 71 % 14.3 C
2000 06-07-2019 22:35:00 19.9 C 72 % 14.7 C
Sensor: Nr:Datum:Temp:Feuchte:Taupunkt:
Aussen-T/F 2001 06-07-2019 22:40:00 20.3 C 72 % 15.09 C
2002 06-07-2019 22:45:00 20.6 C 71 % 15.16 C
2003 06-07-2019 22:50:00 20.7 C 71 % 15.25 C
2004 06-07-2019 22:55:00 20.8 C 71 % 15.35 C
2005 06-07-2019 23:00:00 20.8 C 71 % 15.35 C
2006 06-07-2019 23:05:00 20.8 C 71 % 15.35 C
2007 06-07-2019 23:10:00 20.7 C 71 % 15.25 C
2008 06-07-2019 23:15:00 20.7 C 71 % 15.25 C
2009 06-07-2019 23:20:00 20.7 C 71 % 15.25 C
2010 06-07-2019 23:25:00 20.6 C 71 % 15.16 C
2011 06-07-2019 23:30:00 20.4 C 72 % 15.18 C
2012 06-07-2019 23:35:00 20.3 C 72 % 15.09 C
2013 06-07-2019 23:40:00 20.1 C 71 % 14.68 C
2014 06-07-2019 23:45:00 19.9 C 72 % 14.7 C
2015 06-07-2019 23:50:00 19.7 C 72 % 14.51 C
2016 06-07-2019 23:55:00 19.6 C 72 % 14.42 C
2017 07-07-2019 00:00:00 19.4 C 73 % 14.44 C
2018 07-07-2019 00:05:00 19.3 C 73 % 14.34 C
2019 07-07-2019 00:10:00 19.3 C 74 % 14.55 C
2020 07-07-2019 00:15:00 19.2 C 74 % 14.46 C
2021 07-07-2019 00:20:00 19.1 C 74 % 14.36 C
2022 07-07-2019 00:25:00 19 C 75 % 14.47 C
2023 07-07-2019 00:30:00 18.9 C 74 % 14.17 C
2024 07-07-2019 00:35:00 18.8 C 74 % 14.07 C
2025 07-07-2019 00:40:00 18.7 C 74 % 13.97 C
Sensor: Nr:Datum:Temp:Feuchte:Taupunkt:
Aussen-T/F 2026 07-07-2019 00:45:00 18.6 C 75 % 14.08 C
2027 07-07-2019 00:50:00 18.5 C 75 % 13.99 C
2028 07-07-2019 00:55:00 18.4 C 75 % 13.89 C
2029 07-07-2019 01:00:00 18.3 C 76 % 14 C
2030 07-07-2019 01:05:00 18.2 C 77 % 14.1 C
2031 07-07-2019 01:10:00 18.1 C 77 % 14.01 C
2032 07-07-2019 01:15:00 18.1 C 78 % 14.21 C
2033 07-07-2019 01:20:00 18 C 78 % 14.11 C
2034 07-07-2019 01:25:00 17.9 C 78 % 14.01 C
2035 07-07-2019 01:30:00 17.9 C 78 % 14.01 C
2036 07-07-2019 01:35:00 17.8 C 78 % 13.91 C
2037 07-07-2019 01:40:00 17.7 C 77 % 13.62 C
2038 07-07-2019 01:45:00 17.6 C 78 % 13.72 C
2039 07-07-2019 01:50:00 17.5 C 77 % 13.43 C
2040 07-07-2019 01:55:00 17.5 C 77 % 13.43 C
2041 07-07-2019 02:00:00 17.4 C 76 % 13.13 C
2042 07-07-2019 02:05:00 17.4 C 75 % 12.93 C
2043 07-07-2019 02:10:00 17.4 C 74 % 12.72 C
2044 07-07-2019 02:15:00 17.4 C 74 % 12.72 C
2045 07-07-2019 02:20:00 17.4 C 74 % 12.72 C
2046 07-07-2019 02:25:00 17.4 C 74 % 12.72 C
2047 07-07-2019 02:30:00 17.3 C 74 % 12.62 C
2048 07-07-2019 02:35:00 17.3 C 74 % 12.62 C
2049 07-07-2019 02:40:00 17.3 C 74 % 12.62 C
2050 07-07-2019 02:45:00 17.3 C 75 % 12.83 C
Sensor: Nr:Datum:Temp:Feuchte:Taupunkt:
Aussen-T/F 2051 07-07-2019 02:50:00 17.2 C 75 % 12.73 C
2052 07-07-2019 02:55:00 17.2 C 75 % 12.73 C
2053 07-07-2019 03:00:00 17.2 C 75 % 12.73 C
2054 07-07-2019 03:05:00 17.1 C 76 % 12.84 C
2055 07-07-2019 03:10:00 17.1 C 76 % 12.84 C
2056 07-07-2019 03:15:00 17.1 C 76 % 12.84 C
2057 07-07-2019 03:20:00 17.1 C 76 % 12.84 C
2058 07-07-2019 03:25:00 17 C 76 % 12.74 C
2059 07-07-2019 03:30:00 16.9 C 76 % 12.65 C
2060 07-07-2019 03:35:00 16.9 C 76 % 12.65 C
2061 07-07-2019 03:40:00 16.9 C 75 % 12.44 C
2062 07-07-2019 03:45:00 16.9 C 75 % 12.44 C
2063 07-07-2019 03:50:00 16.9 C 75 % 12.44 C
2064 07-07-2019 03:55:00 16.9 C 75 % 12.44 C
2065 07-07-2019 04:00:00 16.9 C 75 % 12.44 C
2066 07-07-2019 04:05:00 16.9 C 74 % 12.24 C
2067 07-07-2019 04:10:00 16.9 C 75 % 12.44 C
2068 07-07-2019 04:15:00 16.9 C 75 % 12.44 C
2069 07-07-2019 04:20:00 16.8 C 75 % 12.35 C
2070 07-07-2019 04:25:00 16.8 C 75 % 12.35 C
2071 07-07-2019 04:30:00 16.8 C 75 % 12.35 C
2072 07-07-2019 04:35:00 16.8 C 75 % 12.35 C
2073 07-07-2019 04:40:00 16.8 C 77 % 12.75 C
2074 07-07-2019 04:45:00 16.8 C 78 % 12.94 C
2075 07-07-2019 04:50:00 16.8 C 78 % 12.94 C
Sensor: Nr:Datum:Temp:Feuchte:Taupunkt:
Aussen-T/F 2076 07-07-2019 04:55:00 16.7 C 78 % 12.85 C
2077 07-07-2019 05:00:00 16.7 C 79 % 13.04 C
2078 07-07-2019 05:05:00 16.7 C 79 % 13.04 C
2079 07-07-2019 05:10:00 16.6 C 79 % 12.95 C
2080 07-07-2019 05:15:00 16.6 C 78 % 12.75 C
2081 07-07-2019 05:20:00 16.5 C 78 % 12.65 C
2082 07-07-2019 05:25:00 16.4 C 78 % 12.56 C
2083 07-07-2019 05:30:00 16.4 C 78 % 12.56 C
2084 07-07-2019 05:35:00 16.4 C 79 % 12.75 C
2085 07-07-2019 05:40:00 16.3 C 80 % 12.85 C
2086 07-07-2019 05:45:00 16.1 C 82 % 13.03 C
2087 07-07-2019 05:50:00 15.8 C 84 % 13.1 C
2088 07-07-2019 05:55:00 15.7 C 85 % 13.19 C
2089 07-07-2019 06:00:00 15.5 C 87 % 13.35 C
2090 07-07-2019 06:05:00 15.4 C 87 % 13.25 C
2091 07-07-2019 06:10:00 15.3 C 88 % 13.33 C
2092 07-07-2019 06:15:00 15.1 C 88 % 13.13 C
2093 07-07-2019 06:20:00 14.9 C 89 % 13.1 C
2094 07-07-2019 06:25:00 14.9 C 90 % 13.28 C
2095 07-07-2019 06:30:00 14.8 C 90 % 13.18 C
2096 07-07-2019 06:35:00 14.8 C 91 % 13.35 C
2097 07-07-2019 06:40:00 14.8 C 91 % 13.35 C
2098 07-07-2019 06:45:00 14.8 C 92 % 13.51 C
2099 07-07-2019 06:50:00 14.8 C 92 % 13.51 C
2100 07-07-2019 06:55:00 14.8 C 92 % 13.51 C
Sensor: Nr:Datum:Temp:Feuchte:Taupunkt:
Aussen-T/F 2101 07-07-2019 07:00:00 14.7 C 92 % 13.41 C
2102 07-07-2019 07:05:00 14.7 C 93 % 13.58 C
2103 07-07-2019 07:10:00 14.7 C 93 % 13.58 C
2104 07-07-2019 07:15:00 14.7 C 93 % 13.58 C
2105 07-07-2019 07:20:00 14.7 C 93 % 13.58 C
2106 07-07-2019 07:25:00 14.7 C 93 % 13.58 C
2107 07-07-2019 07:30:00 14.7 C 93 % 13.58 C
2108 07-07-2019 07:35:00 14.7 C 93 % 13.58 C
2109 07-07-2019 07:40:00 14.7 C 93 % 13.58 C
2110 07-07-2019 07:45:00 14.6 C 93 % 13.48 C
2111 07-07-2019 07:50:00 14.5 C 93 % 13.38 C
2112 07-07-2019 07:55:00 14.4 C 93 % 13.28 C
2113 07-07-2019 08:00:00 14.3 C 93 % 13.18 C
2114 07-07-2019 08:05:00 14.3 C 93 % 13.18 C
2115 07-07-2019 08:10:00 14.3 C 93 % 13.18 C
2116 07-07-2019 08:15:00 14.2 C 93 % 13.08 C
2117 07-07-2019 08:20:00 14.2 C 94 % 13.25 C
2118 07-07-2019 08:25:00 14.2 C 94 % 13.25 C
2119 07-07-2019 08:30:00 14.2 C 94 % 13.25 C
2120 07-07-2019 08:35:00 14.2 C 94 % 13.25 C
2121 07-07-2019 08:40:00 14.3 C 94 % 13.35 C
2122 07-07-2019 08:45:00 14.3 C 94 % 13.35 C
2123 07-07-2019 08:50:00 14.4 C 94 % 13.45 C
2124 07-07-2019 08:55:00 14.5 C 95 % 13.71 C
2125 07-07-2019 09:00:00 14.5 C 94 % 13.55 C
Sensor: Nr:Datum:Temp:Feuchte:Taupunkt:
Aussen-T/F 2126 07-07-2019 09:05:00 14.4 C 94 % 13.45 C
2127 07-07-2019 09:10:00 14.4 C 94 % 13.45 C
2128 07-07-2019 09:15:00 14.3 C 94 % 13.35 C
2129 07-07-2019 09:20:00 14.4 C 94 % 13.45 C
2130 07-07-2019 09:25:00 14.4 C 94 % 13.45 C
2131 07-07-2019 09:30:00 14.6 C 94 % 13.65 C
2132 07-07-2019 09:35:00 14.9 C 95 % 14.11 C
2133 07-07-2019 09:40:00 15.2 C 95 % 14.4 C
2134 07-07-2019 09:45:00 15.4 C 95 % 14.6 C
2135 07-07-2019 09:50:00 15.6 C 94 % 14.64 C
2136 07-07-2019 09:55:00 15.3 C 93 % 14.18 C
2137 07-07-2019 10:00:00 15.2 C 92 % 13.91 C
2138 07-07-2019 10:05:00 15.2 C 92 % 13.91 C
2139 07-07-2019 10:10:00 15.3 C 90 % 13.67 C
2140 07-07-2019 10:15:00 15.3 C 89 % 13.5 C
2141 07-07-2019 10:20:00 15.4 C 89 % 13.6 C
2142 07-07-2019 10:25:00 15.4 C 88 % 13.42 C
2143 07-07-2019 10:30:00 15.4 C 86 % 13.07 C
2144 07-07-2019 10:35:00 15.3 C 83 % 12.43 C
2145 07-07-2019 10:40:00 15.3 C 81 % 12.06 C
2146 07-07-2019 10:45:00 15.4 C 81 % 12.16 C
2147 07-07-2019 10:50:00 15.6 C 83 % 12.72 C
2148 07-07-2019 10:55:00 15.8 C 80 % 12.36 C
2149 07-07-2019 11:00:00 15.9 C 78 % 12.07 C
2150 07-07-2019 11:05:00 16 C 78 % 12.17 C
Sensor: Nr:Datum:Temp:Feuchte:Taupunkt:
Aussen-T/F 2151 07-07-2019 11:10:00 16.1 C 78 % 12.27 C
2152 07-07-2019 11:15:00 16.1 C 79 % 12.46 C
2153 07-07-2019 11:20:00 16.2 C 77 % 12.17 C
2154 07-07-2019 11:25:00 16.3 C 77 % 12.26 C
2155 07-07-2019 11:30:00 16.5 C 75 % 12.06 C
2156 07-07-2019 11:35:00 16.6 C 75 % 12.15 C
2157 07-07-2019 11:40:00 16.9 C 75 % 12.44 C
2158 07-07-2019 11:45:00 17 C 72 % 11.92 C
2159 07-07-2019 11:50:00 17.2 C 72 % 12.11 C
2160 07-07-2019 11:55:00 17.3 C 69 % 11.56 C
2161 07-07-2019 12:00:00 17.3 C 68 % 11.34 C
2162 07-07-2019 12:05:00 17.5 C 71 % 12.19 C
2163 07-07-2019 12:10:00 17.6 C 68 % 11.63 C
2164 07-07-2019 12:15:00 17.7 C 69 % 11.95 C
2165 07-07-2019 12:20:00 17.7 C 69 % 11.95 C
2166 07-07-2019 12:25:00 17.8 C 68 % 11.82 C
2167 07-07-2019 12:30:00 17.8 C 66 % 11.37 C
2168 07-07-2019 12:35:00 17.8 C 68 % 11.82 C
2169 07-07-2019 12:40:00 17.9 C 65 % 11.23 C
2170 07-07-2019 12:45:00 17.9 C 68 % 11.91 C
2171 07-07-2019 12:50:00 17.9 C 66 % 11.46 C
2172 07-07-2019 12:55:00 17.9 C 65 % 11.23 C
2173 07-07-2019 13:00:00 18.1 C 67 % 11.88 C
2174 07-07-2019 13:05:00 18.1 C 64 % 11.19 C
2175 07-07-2019 13:10:00 18.2 C 65 % 11.52 C
Sensor: Nr:Datum:Temp:Feuchte:Taupunkt:
Aussen-T/F 2176 07-07-2019 13:15:00 18.1 C 63 % 10.95 C
2177 07-07-2019 13:20:00 18.2 C 64 % 11.28 C
2178 07-07-2019 13:25:00 18.3 C 65 % 11.61 C
2179 07-07-2019 13:30:00 18.6 C 63 % 11.42 C
2180 07-07-2019 13:35:00 18.8 C 61 % 11.13 C
2181 07-07-2019 13:40:00 18.9 C 61 % 11.22 C
2182 07-07-2019 13:45:00 18.8 C 59 % 10.63 C
2183 07-07-2019 13:50:00 18.9 C 58 % 10.46 C
2184 07-07-2019 13:55:00 19 C 59 % 10.81 C
2185 07-07-2019 14:00:00 19.2 C 58 % 10.74 C
2186 07-07-2019 14:05:00 19.1 C 57 % 10.39 C
2187 07-07-2019 14:10:00 19 C 59 % 10.81 C
2188 07-07-2019 14:15:00 19.1 C 57 % 10.39 C
2189 07-07-2019 14:20:00 19.1 C 58 % 10.65 C
2190 07-07-2019 14:25:00 19.2 C 57 % 10.48 C
2191 07-07-2019 14:30:00 19.4 C 54 % 9.86 C
2192 07-07-2019 14:35:00 19.4 C 54 % 9.86 C
2193 07-07-2019 14:40:00 19.3 C 55 % 10.04 C
2194 07-07-2019 14:45:00 19.3 C 54 % 9.77 C
2195 07-07-2019 14:50:00 19.4 C 54 % 9.86 C
2196 07-07-2019 14:55:00 19.6 C 51 % 9.2 C
2197 07-07-2019 15:00:00 19.7 C 52 % 9.58 C
2198 07-07-2019 15:05:00 19.9 C 53 % 10.04 C
2199 07-07-2019 15:10:00 20.5 C 52 % 10.31 C
2200 07-07-2019 15:15:00 20.8 C 50 % 10 C
Sensor: Nr:Datum:Temp:Feuchte:Taupunkt:
Aussen-T/F 2201 07-07-2019 15:20:00 20.8 C 50 % 10 C
2202 07-07-2019 15:25:00 20.8 C 48 % 9.4 C
2203 07-07-2019 15:30:00 20.8 C 46 % 8.77 C
2204 07-07-2019 15:35:00 20.9 C 48 % 9.49 C
2205 07-07-2019 15:40:00 21.2 C 46 % 9.13 C
2206 07-07-2019 15:45:00 21.7 C 46 % 9.58 C
2207 07-07-2019 15:50:00 22 C 46 % 9.86 C
2208 07-07-2019 15:55:00 21.9 C 45 % 9.44 C
2209 07-07-2019 16:00:00 21.7 C 45 % 9.26 C
2210 07-07-2019 16:05:00 21.8 C 45 % 9.35 C
2211 07-07-2019 16:10:00 21.6 C 45 % 9.17 C
2212 07-07-2019 16:15:00 21.7 C 45 % 9.26 C
2213 07-07-2019 16:20:00 21.9 C 43 % 8.76 C
2214 07-07-2019 16:25:00 22 C 45 % 9.53 C
2215 07-07-2019 16:30:00 21.9 C 42 % 8.42 C
2216 07-07-2019 16:35:00 21.6 C 44 % 8.83 C
2217 07-07-2019 16:40:00 21.6 C 44 % 8.83 C
2218 07-07-2019 16:45:00 21.9 C 42 % 8.42 C
2219 07-07-2019 16:50:00 22 C 42 % 8.51 C
2220 07-07-2019 16:55:00 21.7 C 42 % 8.24 C
2221 07-07-2019 17:00:00 21.4 C 44 % 8.65 C
2222 07-07-2019 17:05:00 21.1 C 45 % 8.71 C
2223 07-07-2019 17:10:00 20.9 C 44 % 8.2 C
2224 07-07-2019 17:15:00 20.8 C 45 % 8.44 C
2225 07-07-2019 17:20:00 21 C 44 % 8.29 C
Sensor: Nr:Datum:Temp:Feuchte:Taupunkt:
Aussen-T/F 2226 07-07-2019 17:25:00 21.1 C 45 % 8.71 C
2227 07-07-2019 17:30:00 21.8 C 44 % 9.01 C
2228 07-07-2019 17:35:00 22 C 42 % 8.51 C
2229 07-07-2019 17:40:00 21.8 C 43 % 8.67 C
2230 07-07-2019 17:45:00 21.8 C 45 % 9.35 C
2231 07-07-2019 17:50:00 21.9 C 44 % 9.1 C
2232 07-07-2019 17:55:00 22.1 C 44 % 9.29 C
2233 07-07-2019 18:00:00 22.2 C 43 % 9.04 C
2234 07-07-2019 18:05:00 22 C 43 % 8.85 C
2235 07-07-2019 18:10:00 21.8 C 43 % 8.67 C
2236 07-07-2019 18:15:00 21.6 C 44 % 8.83 C
2237 07-07-2019 18:20:00 21.4 C 45 % 8.99 C
2238 07-07-2019 18:25:00 21.3 C 46 % 9.22 C
2239 07-07-2019 18:30:00 21.3 C 46 % 9.22 C
2240 07-07-2019 18:35:00 21.5 C 46 % 9.4 C
2241 07-07-2019 18:40:00 21.8 C 46 % 9.67 C
2242 07-07-2019 18:45:00 22.1 C 44 % 9.29 C
2243 07-07-2019 18:50:00 22.1 C 44 % 9.29 C
2244 07-07-2019 18:55:00 22.2 C 43 % 9.04 C
2245 07-07-2019 19:00:00 22.1 C 43 % 8.95 C
2246 07-07-2019 19:05:00 21.9 C 42 % 8.42 C
2247 07-07-2019 19:10:00 21.6 C 43 % 8.49 C
2248 07-07-2019 19:15:00 21.3 C 46 % 9.22 C
2249 07-07-2019 19:20:00 21.3 C 45 % 8.89 C
2250 07-07-2019 19:25:00 21.6 C 45 % 9.17 C
Sensor: Nr:Datum:Temp:Feuchte:Taupunkt:
Aussen-T/F 2251 07-07-2019 19:30:00 21.5 C 44 % 8.74 C
2252 07-07-2019 19:35:00 21.2 C 44 % 8.47 C
2253 07-07-2019 19:40:00 21.1 C 45 % 8.71 C
2254 07-07-2019 19:45:00 20.9 C 46 % 8.86 C
2255 07-07-2019 19:50:00 20.7 C 45 % 8.35 C
2256 07-07-2019 19:55:00 20.7 C 46 % 8.67 C
2257 07-07-2019 20:00:00 20.4 C 46 % 8.4 C
2258 07-07-2019 20:05:00 20.2 C 47 % 8.54 C
2259 07-07-2019 20:10:00 20.1 C 48 % 8.76 C
2260 07-07-2019 20:15:00 20.1 C 48 % 8.76 C
2261 07-07-2019 20:20:00 20 C 48 % 8.67 C
2262 07-07-2019 20:25:00 19.9 C 49 % 8.88 C
2263 07-07-2019 20:30:00 19.9 C 49 % 8.88 C
2264 07-07-2019 20:35:00 19.9 C 48 % 8.57 C
2265 07-07-2019 20:40:00 19.9 C 48 % 8.57 C
2266 07-07-2019 20:45:00 20 C 48 % 8.67 C
2267 07-07-2019 20:50:00 19.9 C 48 % 8.57 C
2268 07-07-2019 20:55:00 19.7 C 49 % 8.7 C
2269 07-07-2019 21:00:00 19.5 C 49 % 8.51 C
2270 07-07-2019 21:05:00 19.3 C 50 % 8.63 C
2271 07-07-2019 21:10:00 19.2 C 50 % 8.53 C
2272 07-07-2019 21:15:00 19.1 C 51 % 8.73 C
2273 07-07-2019 21:20:00 18.9 C 51 % 8.55 C
2274 07-07-2019 21:25:00 18.8 C 52 % 8.75 C
2275 07-07-2019 21:30:00 18.6 C 52 % 8.56 C
Sensor: Nr:Datum:Temp:Feuchte:Taupunkt:
Aussen-T/F 2276 07-07-2019 21:35:00 18.4 C 53 % 8.66 C
2277 07-07-2019 21:40:00 18.3 C 53 % 8.56 C
2278 07-07-2019 21:45:00 18.1 C 54 % 8.65 C
2279 07-07-2019 21:50:00 17.9 C 57 % 9.27 C
2280 07-07-2019 21:55:00 17.7 C 59 % 9.59 C
2281 07-07-2019 22:00:00 17.3 C 59 % 9.22 C
2282 07-07-2019 22:05:00 16.8 C 61 % 9.24 C
2283 07-07-2019 22:10:00 16.4 C 63 % 9.35 C
2284 07-07-2019 22:15:00 16.1 C 65 % 9.53 C
2285 07-07-2019 22:20:00 15.8 C 65 % 9.24 C
2286 07-07-2019 22:25:00 15.7 C 66 % 9.37 C
2287 07-07-2019 22:30:00 15.4 C 68 % 9.53 C
2288 07-07-2019 22:35:00 15.2 C 68 % 9.34 C
2289 07-07-2019 22:40:00 15 C 69 % 9.36 C
2290 07-07-2019 22:45:00 14.8 C 70 % 9.39 C
2291 07-07-2019 22:50:00 14.7 C 70 % 9.29 C
2292 07-07-2019 22:55:00 14.5 C 71 % 9.31 C
2293 07-07-2019 23:00:00 14.4 C 71 % 9.21 C
2294 07-07-2019 23:05:00 14.3 C 72 % 9.33 C
2295 07-07-2019 23:10:00 14.2 C 72 % 9.23 C
2296 07-07-2019 23:15:00 14.1 C 72 % 9.13 C
2297 07-07-2019 23:20:00 14 C 74 % 9.44 C
2298 07-07-2019 23:25:00 13.9 C 74 % 9.35 C
2299 07-07-2019 23:30:00 13.8 C 74 % 9.25 C
2300 07-07-2019 23:35:00 13.7 C 75 % 9.35 C
Sensor: Nr:Datum:Temp:Feuchte:Taupunkt:
Aussen-T/F 2301 07-07-2019 23:40:00 13.6 C 75 % 9.26 C
2302 07-07-2019 23:45:00 13.5 C 76 % 9.36 C
2303 07-07-2019 23:50:00 13.4 C 76 % 9.26 C
2304 07-07-2019 23:55:00 13.3 C 76 % 9.16 C
2305 08-07-2019 00:00:00 13.2 C 76 % 9.07 C
2306 08-07-2019 00:05:00 13.2 C 77 % 9.26 C
2307 08-07-2019 00:10:00 13.1 C 77 % 9.16 C
2308 08-07-2019 00:15:00 13 C 77 % 9.07 C
2309 08-07-2019 00:20:00 12.9 C 77 % 8.97 C
2310 08-07-2019 00:25:00 12.9 C 78 % 9.16 C
2311 08-07-2019 00:30:00 12.8 C 78 % 9.06 C
2312 08-07-2019 00:35:00 12.8 C 78 % 9.06 C
2313 08-07-2019 00:40:00 12.7 C 78 % 8.97 C
2314 08-07-2019 00:45:00 12.7 C 78 % 8.97 C
2315 08-07-2019 00:50:00 12.6 C 78 % 8.87 C
2316 08-07-2019 00:55:00 12.6 C 78 % 8.87 C
2317 08-07-2019 01:00:00 12.5 C 79 % 8.96 C
2318 08-07-2019 01:05:00 12.4 C 79 % 8.86 C
2319 08-07-2019 01:10:00 12.3 C 80 % 8.95 C
2320 08-07-2019 01:15:00 12.2 C 80 % 8.86 C
2321 08-07-2019 01:20:00 12.1 C 81 % 8.94 C
2322 08-07-2019 01:25:00 11.9 C 82 % 8.93 C
2323 08-07-2019 01:30:00 11.8 C 82 % 8.83 C
2324 08-07-2019 01:35:00 11.7 C 82 % 8.73 C
2325 08-07-2019 01:40:00 11.6 C 82 % 8.64 C
Sensor: Nr:Datum:Temp:Feuchte:Taupunkt:
Aussen-T/F 2326 08-07-2019 01:45:00 11.5 C 82 % 8.54 C
2327 08-07-2019 01:50:00 11.4 C 83 % 8.62 C
2328 08-07-2019 01:55:00 11.3 C 83 % 8.52 C
2329 08-07-2019 02:00:00 11.3 C 84 % 8.7 C
2330 08-07-2019 02:05:00 11.2 C 84 % 8.6 C
2331 08-07-2019 02:10:00 11.1 C 83 % 8.33 C
2332 08-07-2019 02:15:00 11 C 84 % 8.4 C
2333 08-07-2019 02:20:00 10.9 C 84 % 8.31 C
2334 08-07-2019 02:25:00 10.8 C 84 % 8.21 C
2335 08-07-2019 02:30:00 10.9 C 84 % 8.31 C
2336 08-07-2019 02:35:00 10.9 C 84 % 8.31 C
2337 08-07-2019 02:40:00 11 C 84 % 8.4 C
2338 08-07-2019 02:45:00 11.1 C 84 % 8.5 C
2339 08-07-2019 02:50:00 11.2 C 83 % 8.42 C
2340 08-07-2019 02:55:00 11.2 C 83 % 8.42 C
2341 08-07-2019 03:00:00 11.1 C 83 % 8.33 C
2342 08-07-2019 03:05:00 11.1 C 83 % 8.33 C
2343 08-07-2019 03:10:00 11 C 82 % 8.05 C
2344 08-07-2019 03:15:00 11 C 83 % 8.23 C
2345 08-07-2019 03:20:00 10.9 C 83 % 8.13 C
2346 08-07-2019 03:25:00 10.9 C 84 % 8.31 C
2347 08-07-2019 03:30:00 10.9 C 84 % 8.31 C
2348 08-07-2019 03:35:00 10.8 C 84 % 8.21 C
2349 08-07-2019 03:40:00 10.8 C 84 % 8.21 C
2350 08-07-2019 03:45:00 10.9 C 84 % 8.31 C
Sensor: Nr:Datum:Temp:Feuchte:Taupunkt:
Aussen-T/F 2351 08-07-2019 03:50:00 10.9 C 84 % 8.31 C
2352 08-07-2019 03:55:00 11 C 84 % 8.4 C
2353 08-07-2019 04:00:00 11.1 C 83 % 8.33 C
2354 08-07-2019 04:05:00 11.1 C 83 % 8.33 C
2355 08-07-2019 04:10:00 11 C 83 % 8.23 C
2356 08-07-2019 04:15:00 10.9 C 83 % 8.13 C
2357 08-07-2019 04:20:00 10.9 C 84 % 8.31 C
2358 08-07-2019 04:25:00 10.8 C 84 % 8.21 C
2359 08-07-2019 04:30:00 10.8 C 84 % 8.21 C
2360 08-07-2019 04:35:00 10.7 C 84 % 8.11 C
2361 08-07-2019 04:40:00 10.6 C 84 % 8.01 C
2362 08-07-2019 04:45:00 10.6 C 85 % 8.19 C
2363 08-07-2019 04:50:00 10.5 C 85 % 8.09 C
2364 08-07-2019 04:55:00 10.4 C 85 % 7.99 C
2365 08-07-2019 05:00:00 10.3 C 85 % 7.89 C
2366 08-07-2019 05:05:00 10.2 C 86 % 7.97 C
2367 08-07-2019 05:10:00 10.1 C 86 % 7.87 C
2368 08-07-2019 05:15:00 10.1 C 86 % 7.87 C
2369 08-07-2019 05:20:00 9.9 C 86 % 7.67 C
2370 08-07-2019 05:25:00 9.9 C 87 % 7.84 C
2371 08-07-2019 05:30:00 9.8 C 87 % 7.74 C
2372 08-07-2019 05:35:00 9.8 C 87 % 7.74 C
2373 08-07-2019 05:40:00 9.7 C 87 % 7.64 C
2374 08-07-2019 05:45:00 9.7 C 88 % 7.81 C
2375 08-07-2019 05:50:00 9.6 C 88 % 7.71 C
Sensor: Nr:Datum:Temp:Feuchte:Taupunkt:
Aussen-T/F 2376 08-07-2019 05:55:00 9.6 C 88 % 7.71 C
2377 08-07-2019 06:00:00 9.5 C 88 % 7.61 C
2378 08-07-2019 06:05:00 9.4 C 89 % 7.68 C
2379 08-07-2019 06:10:00 9.4 C 89 % 7.68 C
2380 08-07-2019 06:15:00 9.5 C 89 % 7.78 C
2381 08-07-2019 06:20:00 9.5 C 90 % 7.94 C
2382 08-07-2019 06:25:00 9.6 C 90 % 8.04 C
2383 08-07-2019 06:30:00 9.6 C 90 % 8.04 C
2384 08-07-2019 06:35:00 9.6 C 90 % 8.04 C
2385 08-07-2019 06:40:00 9.6 C 90 % 8.04 C
2386 08-07-2019 06:45:00 9.6 C 90 % 8.04 C
2387 08-07-2019 06:50:00 9.7 C 90 % 8.14 C
2388 08-07-2019 06:55:00 9.7 C 90 % 8.14 C
2389 08-07-2019 07:00:00 9.7 C 91 % 8.3 C
2390 08-07-2019 07:05:00 9.8 C 91 % 8.4 C
2391 08-07-2019 07:10:00 9.8 C 91 % 8.4 C
2392 08-07-2019 07:15:00 9.8 C 91 % 8.4 C
2393 08-07-2019 07:20:00 9.8 C 91 % 8.4 C
2394 08-07-2019 07:25:00 9.9 C 91 % 8.5 C
2395 08-07-2019 07:30:00 10 C 91 % 8.6 C
2396 08-07-2019 07:35:00 10.1 C 91 % 8.7 C
2397 08-07-2019 07:40:00 10.1 C 91 % 8.7 C
2398 08-07-2019 07:45:00 10.2 C 91 % 8.8 C
2399 08-07-2019 07:50:00 10.2 C 91 % 8.8 C
2400 08-07-2019 07:55:00 10.3 C 91 % 8.9 C
Sensor: Nr:Datum:Temp:Feuchte:Taupunkt:
Aussen-T/F 2401 08-07-2019 08:00:00 10.4 C 91 % 9 C
2402 08-07-2019 08:05:00 10.4 C 91 % 9 C
2403 08-07-2019 08:10:00 10.6 C 91 % 9.19 C
2404 08-07-2019 08:15:00 10.7 C 91 % 9.29 C
2405 08-07-2019 08:20:00 10.8 C 92 % 9.55 C
2406 08-07-2019 08:25:00 10.9 C 91 % 9.49 C
2407 08-07-2019 08:30:00 11.2 C 90 % 9.62 C
2408 08-07-2019 08:35:00 11.4 C 90 % 9.82 C
2409 08-07-2019 08:40:00 11.7 C 90 % 10.12 C
2410 08-07-2019 08:45:00 12 C 90 % 10.41 C
2411 08-07-2019 08:50:00 12.2 C 88 % 10.27 C
2412 08-07-2019 08:55:00 12.4 C 86 % 10.13 C
2413 08-07-2019 09:00:00 12.6 C 85 % 10.15 C
2414 08-07-2019 09:05:00 12.8 C 82 % 9.81 C
2415 08-07-2019 09:10:00 13.1 C 80 % 9.73 C
2416 08-07-2019 09:15:00 13.3 C 79 % 9.74 C
2417 08-07-2019 09:20:00 13.8 C 77 % 9.84 C
2418 08-07-2019 09:25:00 14.4 C 74 % 9.83 C
2419 08-07-2019 09:30:00 14.7 C 72 % 9.71 C
2420 08-07-2019 09:35:00 14.8 C 71 % 9.6 C
2421 08-07-2019 09:40:00 14.9 C 70 % 9.48 C
2422 08-07-2019 09:45:00 15.1 C 68 % 9.24 C
2423 08-07-2019 09:50:00 15.3 C 64 % 8.54 C
2424 08-07-2019 09:55:00 15.4 C 64 % 8.63 C
2425 08-07-2019 10:00:00 15.6 C 61 % 8.11 C
Sensor: Nr:Datum:Temp:Feuchte:Taupunkt:
Aussen-T/F 2426 08-07-2019 10:05:00 15.6 C 61 % 8.11 C
2427 08-07-2019 10:10:00 15.7 C 61 % 8.21 C
2428 08-07-2019 10:15:00 15.7 C 61 % 8.21 C
2429 08-07-2019 10:20:00 15.7 C 62 % 8.45 C
2430 08-07-2019 10:25:00 15.7 C 63 % 8.68 C
2431 08-07-2019 10:30:00 15.6 C 64 % 8.82 C
2432 08-07-2019 10:35:00 15.6 C 64 % 8.82 C
2433 08-07-2019 10:40:00 15.6 C 64 % 8.82 C
2434 08-07-2019 10:45:00 15.6 C 64 % 8.82 C
2435 08-07-2019 10:50:00 15.7 C 64 % 8.92 C
2436 08-07-2019 10:55:00 15.8 C 63 % 8.78 C
2437 08-07-2019 11:00:00 15.8 C 62 % 8.54 C
2438 08-07-2019 11:05:00 15.9 C 62 % 8.64 C
2439 08-07-2019 11:10:00 16.1 C 63 % 9.06 C
2440 08-07-2019 11:15:00 16.3 C 64 % 9.48 C
2441 08-07-2019 11:20:00 16.4 C 63 % 9.35 C
2442 08-07-2019 11:25:00 16.3 C 61 % 8.77 C
2443 08-07-2019 11:30:00 16.2 C 61 % 8.68 C
2444 08-07-2019 11:35:00 16.2 C 62 % 8.92 C
2445 08-07-2019 11:40:00 16.1 C 61 % 8.58 C
2446 08-07-2019 11:45:00 16.1 C 61 % 8.58 C
2447 08-07-2019 11:50:00 16.1 C 62 % 8.82 C
2448 08-07-2019 11:55:00 16.2 C 60 % 8.43 C
2449 08-07-2019 12:00:00 16.3 C 59 % 8.28 C
2450 08-07-2019 12:05:00 16.4 C 58 % 8.12 C
Sensor: Nr:Datum:Temp:Feuchte:Taupunkt:
Aussen-T/F 2451 08-07-2019 12:10:00 16.5 C 60 % 8.72 C
2452 08-07-2019 12:15:00 16.6 C 60 % 8.81 C
2453 08-07-2019 12:20:00 16.7 C 61 % 9.15 C
2454 08-07-2019 12:25:00 16.7 C 60 % 8.9 C
2455 08-07-2019 12:30:00 16.8 C 60 % 9 C
2456 08-07-2019 12:35:00 16.9 C 60 % 9.09 C
2457 08-07-2019 12:40:00 16.9 C 59 % 8.84 C
2458 08-07-2019 12:45:00 16.8 C 59 % 8.75 C
2459 08-07-2019 12:50:00 16.8 C 59 % 8.75 C
2460 08-07-2019 12:55:00 16.8 C 60 % 9 C
2461 08-07-2019 13:00:00 16.8 C 60 % 9 C
2462 08-07-2019 13:05:00 16.9 C 59 % 8.84 C
2463 08-07-2019 13:10:00 17.1 C 59 % 9.03 C
2464 08-07-2019 13:15:00 17.1 C 57 % 8.52 C
2465 08-07-2019 13:20:00 17 C 58 % 8.69 C
2466 08-07-2019 13:25:00 17 C 58 % 8.69 C
2467 08-07-2019 13:30:00 17.1 C 58 % 8.78 C
2468 08-07-2019 13:35:00 17.2 C 57 % 8.62 C
2469 08-07-2019 13:40:00 17.2 C 57 % 8.62 C
2470 08-07-2019 13:45:00 17.1 C 58 % 8.78 C
2471 08-07-2019 13:50:00 17.1 C 58 % 8.78 C
2472 08-07-2019 13:55:00 17.1 C 59 % 9.03 C
2473 08-07-2019 14:00:00 17.1 C 59 % 9.03 C
2474 08-07-2019 14:05:00 17.2 C 57 % 8.62 C
2475 08-07-2019 14:10:00 17.2 C 58 % 8.87 C
Sensor: Nr:Datum:Temp:Feuchte:Taupunkt:
Aussen-T/F 2476 08-07-2019 14:15:00 17.3 C 57 % 8.71 C
2477 08-07-2019 14:20:00 17.5 C 58 % 9.15 C
2478 08-07-2019 14:25:00 17.6 C 57 % 8.99 C
2479 08-07-2019 14:30:00 17.6 C 57 % 8.99 C
2480 08-07-2019 14:35:00 17.4 C 57 % 8.8 C
2481 08-07-2019 14:40:00 17.3 C 56 % 8.45 C
2482 08-07-2019 14:45:00 17.3 C 58 % 8.97 C
2483 08-07-2019 14:50:00 17.2 C 59 % 9.13 C
2484 08-07-2019 14:55:00 17.3 C 59 % 9.22 C
2485 08-07-2019 15:00:00 17.2 C 59 % 9.13 C
2486 08-07-2019 15:05:00 17.2 C 59 % 9.13 C
2487 08-07-2019 15:10:00 17.2 C 59 % 9.13 C
2488 08-07-2019 15:15:00 17.3 C 60 % 9.47 C
2489 08-07-2019 15:20:00 17.5 C 59 % 9.41 C
2490 08-07-2019 15:25:00 17.7 C 58 % 9.34 C
2491 08-07-2019 15:30:00 17.7 C 57 % 9.08 C
2492 08-07-2019 15:35:00 17.7 C 57 % 9.08 C
2493 08-07-2019 15:40:00 17.6 C 57 % 8.99 C
2494 08-07-2019 15:45:00 17.6 C 57 % 8.99 C
2495 08-07-2019 15:50:00 17.6 C 56 % 8.73 C
2496 08-07-2019 15:55:00 17.6 C 56 % 8.73 C
2497 08-07-2019 16:00:00 17.6 C 56 % 8.73 C
2498 08-07-2019 16:05:00 17.7 C 58 % 9.34 C
2499 08-07-2019 16:10:00 17.8 C 58 % 9.43 C
2500 08-07-2019 16:15:00 17.9 C 58 % 9.53 C
Sensor: Nr:Datum:Temp:Feuchte:Taupunkt:
Aussen-T/F 2501 08-07-2019 16:20:00 17.9 C 58 % 9.53 C
2502 08-07-2019 16:25:00 18 C 57 % 9.36 C
2503 08-07-2019 16:30:00 18 C 57 % 9.36 C
2504 08-07-2019 16:35:00 18.2 C 57 % 9.55 C
2505 08-07-2019 16:40:00 18.4 C 57 % 9.74 C
2506 08-07-2019 16:45:00 18.3 C 55 % 9.11 C
2507 08-07-2019 16:50:00 18.3 C 56 % 9.38 C
2508 08-07-2019 16:55:00 18.2 C 57 % 9.55 C
2509 08-07-2019 17:00:00 18.2 C 56 % 9.29 C
2510 08-07-2019 17:05:00 18.2 C 57 % 9.55 C
2511 08-07-2019 17:10:00 18.2 C 56 % 9.29 C
2512 08-07-2019 17:15:00 18.2 C 57 % 9.55 C
2513 08-07-2019 17:20:00 18.2 C 57 % 9.55 C
2514 08-07-2019 17:25:00 18.2 C 57 % 9.55 C
2515 08-07-2019 17:30:00 18.2 C 57 % 9.55 C
2516 08-07-2019 17:35:00 18.1 C 57 % 9.46 C
2517 08-07-2019 17:40:00 18 C 58 % 9.62 C
2518 08-07-2019 17:45:00 18.1 C 60 % 10.22 C
2519 08-07-2019 17:50:00 18.2 C 57 % 9.55 C
2520 08-07-2019 17:55:00 18.2 C 57 % 9.55 C
2521 08-07-2019 18:00:00 18.2 C 56 % 9.29 C
2522 08-07-2019 18:05:00 18.2 C 55 % 9.02 C
2523 08-07-2019 18:10:00 18.2 C 57 % 9.55 C
2524 08-07-2019 18:15:00 18.2 C 56 % 9.29 C
2525 08-07-2019 18:20:00 18.2 C 57 % 9.55 C
Sensor: Nr:Datum:Temp:Feuchte:Taupunkt:
Aussen-T/F 2526 08-07-2019 18:25:00 18.1 C 58 % 9.71 C
2527 08-07-2019 18:30:00 18 C 58 % 9.62 C
2528 08-07-2019 18:35:00 17.9 C 58 % 9.53 C
2529 08-07-2019 18:40:00 17.9 C 58 % 9.53 C
2530 08-07-2019 18:45:00 17.8 C 58 % 9.43 C
2531 08-07-2019 18:50:00 17.9 C 58 % 9.53 C
2532 08-07-2019 18:55:00 17.9 C 58 % 9.53 C
2533 08-07-2019 19:00:00 17.8 C 58 % 9.43 C
2534 08-07-2019 19:05:00 17.8 C 57 % 9.18 C
2535 08-07-2019 19:10:00 17.7 C 57 % 9.08 C
2536 08-07-2019 19:15:00 17.6 C 58 % 9.25 C
2537 08-07-2019 19:20:00 17.6 C 58 % 9.25 C
2538 08-07-2019 19:25:00 17.6 C 58 % 9.25 C
2539 08-07-2019 19:30:00 17.7 C 58 % 9.34 C
2540 08-07-2019 19:35:00 17.8 C 58 % 9.43 C
2541 08-07-2019 19:40:00 17.8 C 58 % 9.43 C
2542 08-07-2019 19:45:00 17.9 C 59 % 9.78 C
2543 08-07-2019 19:50:00 17.9 C 59 % 9.78 C
2544 08-07-2019 19:55:00 17.9 C 59 % 9.78 C
2545 08-07-2019 20:00:00 17.9 C 59 % 9.78 C
2546 08-07-2019 20:05:00 18 C 57 % 9.36 C
2547 08-07-2019 20:10:00 18.1 C 57 % 9.46 C
2548 08-07-2019 20:15:00 18.1 C 57 % 9.46 C
2549 08-07-2019 20:20:00 17.9 C 58 % 9.53 C
2550 08-07-2019 20:25:00 17.8 C 58 % 9.43 C
Sensor: Nr:Datum:Temp:Feuchte:Taupunkt:
Aussen-T/F 2551 08-07-2019 20:30:00 17.6 C 59 % 9.5 C
2552 08-07-2019 20:35:00 17.4 C 59 % 9.31 C
2553 08-07-2019 20:40:00 17.3 C 59 % 9.22 C
2554 08-07-2019 20:45:00 17.4 C 60 % 9.56 C
2555 08-07-2019 20:50:00 17.4 C 59 % 9.31 C
2556 08-07-2019 20:55:00 17.4 C 60 % 9.56 C
2557 08-07-2019 21:00:00 17.3 C 60 % 9.47 C
2558 08-07-2019 21:05:00 17.2 C 61 % 9.62 C
2559 08-07-2019 21:10:00 17.1 C 61 % 9.53 C
2560 08-07-2019 21:15:00 16.9 C 62 % 9.58 C
2561 08-07-2019 21:20:00 16.8 C 62 % 9.49 C
2562 08-07-2019 21:25:00 16.7 C 64 % 9.86 C
2563 08-07-2019 21:30:00 16.4 C 64 % 9.58 C
2564 08-07-2019 21:35:00 16.1 C 67 % 9.98 C
2565 08-07-2019 21:40:00 15.7 C 68 % 9.82 C
2566 08-07-2019 21:45:00 15.3 C 69 % 9.65 C
2567 08-07-2019 21:50:00 15 C 71 % 9.79 C
2568 08-07-2019 21:55:00 14.7 C 72 % 9.71 C
2569 08-07-2019 22:00:00 14.4 C 73 % 9.63 C
2570 08-07-2019 22:05:00 14.2 C 73 % 9.43 C
2571 08-07-2019 22:10:00 14.1 C 74 % 9.54 C
2572 08-07-2019 22:15:00 13.9 C 74 % 9.35 C
2573 08-07-2019 22:20:00 13.8 C 75 % 9.45 C
2574 08-07-2019 22:25:00 13.8 C 75 % 9.45 C
2575 08-07-2019 22:30:00 13.8 C 76 % 9.65 C
Sensor: Nr:Datum:Temp:Feuchte:Taupunkt:
Aussen-T/F 2576 08-07-2019 22:35:00 13.8 C 76 % 9.65 C
2577 08-07-2019 22:40:00 13.9 C 76 % 9.74 C
2578 08-07-2019 22:45:00 13.9 C 76 % 9.74 C
2579 08-07-2019 22:50:00 14 C 75 % 9.64 C
2580 08-07-2019 22:55:00 14.1 C 75 % 9.74 C
2581 08-07-2019 23:00:00 14.2 C 75 % 9.84 C
2582 08-07-2019 23:05:00 14.3 C 76 % 10.13 C
2583 08-07-2019 23:10:00 14.3 C 75 % 9.93 C
2584 08-07-2019 23:15:00 14.3 C 75 % 9.93 C
2585 08-07-2019 23:20:00 14.3 C 75 % 9.93 C
2586 08-07-2019 23:25:00 14.3 C 75 % 9.93 C
2587 08-07-2019 23:30:00 14.2 C 75 % 9.84 C
2588 08-07-2019 23:35:00 14.1 C 75 % 9.74 C
2589 08-07-2019 23:40:00 14 C 75 % 9.64 C
2590 08-07-2019 23:45:00 13.9 C 76 % 9.74 C
2591 08-07-2019 23:50:00 13.8 C 76 % 9.65 C
2592 08-07-2019 23:55:00 13.7 C 77 % 9.75 C
2593 09-07-2019 00:00:00 13.6 C 77 % 9.65 C
2594 09-07-2019 00:05:00 13.5 C 78 % 9.74 C
2595 09-07-2019 00:10:00 13.4 C 78 % 9.65 C
2596 09-07-2019 00:15:00 13.3 C 78 % 9.55 C
2597 09-07-2019 00:20:00 13.3 C 79 % 9.74 C
2598 09-07-2019 00:25:00 13.2 C 79 % 9.64 C
2599 09-07-2019 00:30:00 13.2 C 80 % 9.83 C
2600 09-07-2019 00:35:00 13.2 C 80 % 9.83 C
Sensor: Nr:Datum:Temp:Feuchte:Taupunkt:
Aussen-T/F 2601 09-07-2019 00:40:00 13.2 C 81 % 10.01 C
2602 09-07-2019 00:45:00 13.2 C 81 % 10.01 C
2603 09-07-2019 00:50:00 13.2 C 81 % 10.01 C
2604 09-07-2019 00:55:00 13.2 C 80 % 9.83 C
2605 09-07-2019 01:00:00 13.1 C 80 % 9.73 C
2606 09-07-2019 01:05:00 13 C 80 % 9.63 C
2607 09-07-2019 01:10:00 12.9 C 80 % 9.54 C
2608 09-07-2019 01:15:00 12.8 C 81 % 9.62 C
2609 09-07-2019 01:20:00 12.7 C 81 % 9.53 C
2610 09-07-2019 01:25:00 12.7 C 81 % 9.53 C
2611 09-07-2019 01:30:00 12.7 C 82 % 9.71 C
2612 09-07-2019 01:35:00 12.6 C 82 % 9.61 C
2613 09-07-2019 01:40:00 12.6 C 82 % 9.61 C
2614 09-07-2019 01:45:00 12.5 C 82 % 9.51 C
2615 09-07-2019 01:50:00 12.4 C 83 % 9.6 C
2616 09-07-2019 01:55:00 12.4 C 83 % 9.6 C
2617 09-07-2019 02:00:00 12.3 C 83 % 9.5 C
2618 09-07-2019 02:05:00 12.3 C 83 % 9.5 C
2619 09-07-2019 02:10:00 12.2 C 83 % 9.4 C
2620 09-07-2019 02:15:00 12.2 C 83 % 9.4 C
2621 09-07-2019 02:20:00 12 C 83 % 9.21 C
2622 09-07-2019 02:25:00 11.9 C 83 % 9.11 C
2623 09-07-2019 02:30:00 11.8 C 84 % 9.19 C
2624 09-07-2019 02:35:00 11.8 C 84 % 9.19 C
2625 09-07-2019 02:40:00 11.8 C 85 % 9.36 C
Sensor: Nr:Datum:Temp:Feuchte:Taupunkt:
Aussen-T/F 2626 09-07-2019 02:45:00 11.6 C 84 % 8.99 C
2627 09-07-2019 02:50:00 11.4 C 85 % 8.97 C
2628 09-07-2019 02:55:00 11.3 C 86 % 9.05 C
2629 09-07-2019 03:00:00 11.3 C 86 % 9.05 C
2630 09-07-2019 03:05:00 11.3 C 87 % 9.22 C
2631 09-07-2019 03:10:00 11.3 C 87 % 9.22 C
2632 09-07-2019 03:15:00 11.2 C 87 % 9.12 C
2633 09-07-2019 03:20:00 11.2 C 87 % 9.12 C
2634 09-07-2019 03:25:00 11.2 C 87 % 9.12 C
2635 09-07-2019 03:30:00 11.1 C 87 % 9.02 C
2636 09-07-2019 03:35:00 11.1 C 87 % 9.02 C
2637 09-07-2019 03:40:00 11 C 87 % 8.92 C
2638 09-07-2019 03:45:00 10.9 C 88 % 8.99 C
2639 09-07-2019 03:50:00 10.9 C 88 % 8.99 C
2640 09-07-2019 03:55:00 10.9 C 88 % 8.99 C
2641 09-07-2019 04:00:00 10.8 C 88 % 8.89 C
2642 09-07-2019 04:05:00 10.8 C 88 % 8.89 C
2643 09-07-2019 04:10:00 10.7 C 88 % 8.8 C
2644 09-07-2019 04:15:00 10.7 C 88 % 8.8 C
2645 09-07-2019 04:20:00 10.6 C 88 % 8.7 C
2646 09-07-2019 04:25:00 10.5 C 88 % 8.6 C
2647 09-07-2019 04:30:00 10.4 C 88 % 8.5 C
2648 09-07-2019 04:35:00 10.3 C 88 % 8.4 C
2649 09-07-2019 04:40:00 10.2 C 89 % 8.47 C
2650 09-07-2019 04:45:00 10.2 C 89 % 8.47 C
Sensor: Nr:Datum:Temp:Feuchte:Taupunkt:
Aussen-T/F 2651 09-07-2019 04:50:00 10.1 C 89 % 8.37 C
2652 09-07-2019 04:55:00 9.9 C 89 % 8.17 C
2653 09-07-2019 05:00:00 9.9 C 89 % 8.17 C
2654 09-07-2019 05:05:00 9.8 C 90 % 8.24 C
2655 09-07-2019 05:10:00 9.9 C 90 % 8.34 C
2656 09-07-2019 05:15:00 9.9 C 90 % 8.34 C
2657 09-07-2019 05:20:00 9.9 C 90 % 8.34 C
2658 09-07-2019 05:25:00 9.8 C 90 % 8.24 C
2659 09-07-2019 05:30:00 9.8 C 90 % 8.24 C
2660 09-07-2019 05:35:00 9.8 C 90 % 8.24 C
2661 09-07-2019 05:40:00 9.8 C 90 % 8.24 C
2662 09-07-2019 05:45:00 9.7 C 91 % 8.3 C
2663 09-07-2019 05:50:00 9.7 C 91 % 8.3 C
2664 09-07-2019 05:55:00 9.7 C 91 % 8.3 C
2665 09-07-2019 06:00:00 9.7 C 91 % 8.3 C
2666 09-07-2019 06:05:00 9.7 C 91 % 8.3 C
2667 09-07-2019 06:10:00 9.7 C 91 % 8.3 C
2668 09-07-2019 06:15:00 9.7 C 91 % 8.3 C
2669 09-07-2019 06:20:00 9.7 C 91 % 8.3 C
2670 09-07-2019 06:25:00 9.7 C 91 % 8.3 C
2671 09-07-2019 06:30:00 9.7 C 91 % 8.3 C
2672 09-07-2019 06:35:00 9.7 C 91 % 8.3 C
2673 09-07-2019 06:40:00 9.7 C 91 % 8.3 C
2674 09-07-2019 06:45:00 9.7 C 92 % 8.46 C
2675 09-07-2019 06:50:00 9.8 C 92 % 8.56 C
Sensor: Nr:Datum:Temp:Feuchte:Taupunkt:
Aussen-T/F 2676 09-07-2019 06:55:00 9.9 C 92 % 8.66 C
2677 09-07-2019 07:00:00 10.1 C 92 % 8.86 C
2678 09-07-2019 07:05:00 10.2 C 92 % 8.96 C
2679 09-07-2019 07:10:00 10.3 C 92 % 9.06 C
2680 09-07-2019 07:15:00 10.4 C 92 % 9.16 C
2681 09-07-2019 07:20:00 10.5 C 92 % 9.26 C
2682 09-07-2019 07:25:00 10.6 C 92 % 9.36 C
2683 09-07-2019 07:30:00 10.8 C 92 % 9.55 C
2684 09-07-2019 07:35:00 11.1 C 92 % 9.85 C
2685 09-07-2019 07:40:00 11.4 C 91 % 9.98 C
2686 09-07-2019 07:45:00 11.7 C 88 % 9.78 C
2687 09-07-2019 07:50:00 11.8 C 87 % 9.71 C
2688 09-07-2019 07:55:00 12.1 C 86 % 9.83 C
2689 09-07-2019 08:00:00 12.3 C 85 % 9.85 C
2690 09-07-2019 08:05:00 12.4 C 84 % 9.78 C
2691 09-07-2019 08:10:00 12.6 C 83 % 9.79 C
2692 09-07-2019 08:15:00 12.7 C 83 % 9.89 C
2693 09-07-2019 08:20:00 12.8 C 82 % 9.81 C
2694 09-07-2019 08:25:00 12.9 C 81 % 9.72 C
2695 09-07-2019 08:30:00 13.1 C 81 % 9.92 C
2696 09-07-2019 08:35:00 13.2 C 80 % 9.83 C
2697 09-07-2019 08:40:00 13.3 C 80 % 9.93 C
2698 09-07-2019 08:45:00 13.4 C 80 % 10.02 C
2699 09-07-2019 08:50:00 13.5 C 79 % 9.93 C
2700 09-07-2019 08:55:00 13.6 C 79 % 10.03 C
Sensor: Nr:Datum:Temp:Feuchte:Taupunkt:
Aussen-T/F 2701 09-07-2019 09:00:00 13.8 C 78 % 10.03 C
2702 09-07-2019 09:05:00 13.9 C 78 % 10.13 C
2703 09-07-2019 09:10:00 14 C 76 % 9.84 C
2704 09-07-2019 09:15:00 14 C 76 % 9.84 C
2705 09-07-2019 09:20:00 14 C 76 % 9.84 C
2706 09-07-2019 09:25:00 14 C 76 % 9.84 C
2707 09-07-2019 09:30:00 14.1 C 77 % 10.13 C
2708 09-07-2019 09:35:00 14.2 C 76 % 10.03 C
2709 09-07-2019 09:40:00 14.4 C 75 % 10.03 C
2710 09-07-2019 09:45:00 14.6 C 75 % 10.22 C
2711 09-07-2019 09:50:00 14.7 C 75 % 10.32 C
2712 09-07-2019 09:55:00 14.7 C 72 % 9.71 C
2713 09-07-2019 10:00:00 14.7 C 72 % 9.71 C
2714 09-07-2019 10:05:00 14.7 C 72 % 9.71 C
2715 09-07-2019 10:10:00 14.7 C 71 % 9.5 C
2716 09-07-2019 10:15:00 14.8 C 71 % 9.6 C
2717 09-07-2019 10:20:00 14.8 C 72 % 9.81 C
2718 09-07-2019 10:25:00 14.8 C 70 % 9.39 C
2719 09-07-2019 10:30:00 14.8 C 71 % 9.6 C
2720 09-07-2019 10:35:00 14.9 C 72 % 9.9 C
2721 09-07-2019 10:40:00 14.9 C 70 % 9.48 C
2722 09-07-2019 10:45:00 15.1 C 70 % 9.67 C
2723 09-07-2019 10:50:00 15.2 C 69 % 9.56 C
2724 09-07-2019 10:55:00 15.4 C 68 % 9.53 C
2725 09-07-2019 11:00:00 15.6 C 66 % 9.28 C
Sensor: Nr:Datum:Temp:Feuchte:Taupunkt:
Aussen-T/F 2726 09-07-2019 11:05:00 15.6 C 64 % 8.82 C
2727 09-07-2019 11:10:00 15.7 C 63 % 8.68 C
2728 09-07-2019 11:15:00 15.8 C 61 % 8.3 C
2729 09-07-2019 11:20:00 15.8 C 62 % 8.54 C
2730 09-07-2019 11:25:00 15.9 C 60 % 8.15 C
2731 09-07-2019 11:30:00 16.1 C 59 % 8.09 C
2732 09-07-2019 11:35:00 16.3 C 59 % 8.28 C
2733 09-07-2019 11:40:00 16.5 C 58 % 8.22 C
2734 09-07-2019 11:45:00 16.6 C 57 % 8.06 C
2735 09-07-2019 11:50:00 16.6 C 58 % 8.31 C
2736 09-07-2019 11:55:00 16.6 C 58 % 8.31 C
2737 09-07-2019 12:00:00 16.6 C 58 % 8.31 C
2738 09-07-2019 12:05:00 16.6 C 58 % 8.31 C
2739 09-07-2019 12:10:00 16.7 C 58 % 8.4 C
2740 09-07-2019 12:15:00 16.8 C 56 % 7.98 C
2741 09-07-2019 12:20:00 16.8 C 57 % 8.24 C
2742 09-07-2019 12:25:00 16.8 C 56 % 7.98 C
2743 09-07-2019 12:30:00 16.9 C 57 % 8.34 C
2744 09-07-2019 12:35:00 16.9 C 56 % 8.07 C
2745 09-07-2019 12:40:00 16.9 C 56 % 8.07 C
2746 09-07-2019 12:45:00 16.9 C 57 % 8.34 C
2747 09-07-2019 12:50:00 17.2 C 56 % 8.35 C
2748 09-07-2019 12:55:00 17.3 C 55 % 8.18 C
2749 09-07-2019 13:00:00 17.3 C 54 % 7.91 C
2750 09-07-2019 13:05:00 17.3 C 54 % 7.91 C
Sensor: Nr:Datum:Temp:Feuchte:Taupunkt:
Aussen-T/F 2751 09-07-2019 13:10:00 17.2 C 54 % 7.82 C
2752 09-07-2019 13:15:00 17.3 C 54 % 7.91 C
2753 09-07-2019 13:20:00 17.5 C 52 % 7.54 C
2754 09-07-2019 13:25:00 17.7 C 54 % 8.28 C
2755 09-07-2019 13:30:00 17.8 C 52 % 7.82 C
2756 09-07-2019 13:35:00 17.8 C 53 % 8.1 C
2757 09-07-2019 13:40:00 17.9 C 51 % 7.63 C
2758 09-07-2019 13:45:00 17.9 C 51 % 7.63 C
2759 09-07-2019 13:50:00 18.2 C 50 % 7.62 C
2760 09-07-2019 13:55:00 18.3 C 50 % 7.71 C
2761 09-07-2019 14:00:00 18.4 C 50 % 7.8 C
2762 09-07-2019 14:05:00 18.5 C 50 % 7.89 C
2763 09-07-2019 14:10:00 18.4 C 50 % 7.8 C
2764 09-07-2019 14:15:00 18.4 C 50 % 7.8 C
2765 09-07-2019 14:20:00 18.4 C 50 % 7.8 C
2766 09-07-2019 14:25:00 18.4 C 50 % 7.8 C
2767 09-07-2019 14:30:00 18.7 C 48 % 7.48 C
2768 09-07-2019 14:35:00 18.9 C 49 % 7.96 C
2769 09-07-2019 14:40:00 18.9 C 48 % 7.66 C
2770 09-07-2019 14:45:00 18.8 C 49 % 7.87 C
2771 09-07-2019 14:50:00 18.7 C 48 % 7.48 C
2772 09-07-2019 14:55:00 18.7 C 48 % 7.48 C
2773 09-07-2019 15:00:00 18.8 C 49 % 7.87 C
2774 09-07-2019 15:05:00 19.2 C 48 % 7.93 C
2775 09-07-2019 15:10:00 19.7 C 45 % 7.44 C
Sensor: Nr:Datum:Temp:Feuchte:Taupunkt:
Aussen-T/F 2776 09-07-2019 15:15:00 19.4 C 45 % 7.17 C
2777 09-07-2019 15:20:00 19.3 C 46 % 7.4 C
2778 09-07-2019 15:25:00 19.5 C 47 % 7.9 C
2779 09-07-2019 15:30:00 19.9 C 47 % 8.26 C
2780 09-07-2019 15:35:00 20 C 44 % 7.39 C
2781 09-07-2019 15:40:00 20.1 C 45 % 7.81 C
2782 09-07-2019 15:45:00 20.3 C 45 % 7.99 C
2783 09-07-2019 15:50:00 20.4 C 44 % 7.75 C
2784 09-07-2019 15:55:00 20.2 C 46 % 8.22 C
2785 09-07-2019 16:00:00 20.2 C 45 % 7.9 C
2786 09-07-2019 16:05:00 20.1 C 45 % 7.81 C
2787 09-07-2019 16:10:00 20.3 C 44 % 7.66 C
2788 09-07-2019 16:15:00 20.3 C 45 % 7.99 C
2789 09-07-2019 16:20:00 20.4 C 44 % 7.75 C
2790 09-07-2019 16:25:00 20.3 C 44 % 7.66 C
2791 09-07-2019 16:30:00 20 C 45 % 7.72 C
2792 09-07-2019 16:35:00 20.1 C 45 % 7.81 C
2793 09-07-2019 16:40:00 20.7 C 44 % 8.02 C
2794 09-07-2019 16:45:00 20.9 C 42 % 7.52 C
2795 09-07-2019 16:50:00 21.1 C 41 % 7.35 C
2796 09-07-2019 16:55:00 21.3 C 41 % 7.53 C
2797 09-07-2019 17:00:00 21.4 C 41 % 7.62 C
2798 09-07-2019 17:05:00 21.4 C 40 % 7.25 C
2799 09-07-2019 17:10:00 21.3 C 40 % 7.16 C
2800 09-07-2019 17:15:00 21.3 C 40 % 7.16 C
Sensor: Nr:Datum:Temp:Feuchte:Taupunkt:
Aussen-T/F 2801 09-07-2019 17:20:00 21.3 C 41 % 7.53 C
2802 09-07-2019 17:25:00 21.7 C 40 % 7.52 C
2803 09-07-2019 17:30:00 22 C 39 % 7.42 C
2804 09-07-2019 17:35:00 22 C 38 % 7.04 C
2805 09-07-2019 17:40:00 21.9 C 39 % 7.33 C
2806 09-07-2019 17:45:00 21.9 C 39 % 7.33 C
2807 09-07-2019 17:50:00 22.3 C 38 % 7.31 C
2808 09-07-2019 17:55:00 22.2 C 39 % 7.6 C
2809 09-07-2019 18:00:00 21.9 C 39 % 7.33 C
2810 09-07-2019 18:05:00 21.7 C 38 % 6.77 C
2811 09-07-2019 18:10:00 21.5 C 39 % 6.97 C
2812 09-07-2019 18:15:00 21 C 40 % 6.9 C
2813 09-07-2019 18:20:00 20.7 C 40 % 6.63 C
2814 09-07-2019 18:25:00 20.4 C 40 % 6.36 C
2815 09-07-2019 18:30:00 20.2 C 41 % 6.54 C
2816 09-07-2019 18:35:00 20.5 C 42 % 7.16 C
2817 09-07-2019 18:40:00 20.9 C 40 % 6.81 C
2818 09-07-2019 18:45:00 21.2 C 40 % 7.08 C
2819 09-07-2019 18:50:00 21.4 C 39 % 6.89 C
2820 09-07-2019 18:55:00 21.4 C 39 % 6.89 C
2821 09-07-2019 19:00:00 21.2 C 40 % 7.08 C
2822 09-07-2019 19:05:00 21.1 C 40 % 6.99 C
2823 09-07-2019 19:10:00 21.2 C 41 % 7.44 C
2824 09-07-2019 19:15:00 21.4 C 40 % 7.25 C
2825 09-07-2019 19:20:00 21.5 C 39 % 6.97 C
Sensor: Nr:Datum:Temp:Feuchte:Taupunkt:
Aussen-T/F 2826 09-07-2019 19:25:00 21.5 C 40 % 7.34 C
2827 09-07-2019 19:30:00 21.2 C 41 % 7.44 C
2828 09-07-2019 19:35:00 21 C 41 % 7.26 C
2829 09-07-2019 19:40:00 20.8 C 41 % 7.08 C
2830 09-07-2019 19:45:00 20.5 C 42 % 7.16 C
2831 09-07-2019 19:50:00 20.2 C 42 % 6.89 C
2832 09-07-2019 19:55:00 20.2 C 42 % 6.89 C
2833 09-07-2019 20:00:00 20.2 C 42 % 6.89 C
2834 09-07-2019 20:05:00 19.9 C 43 % 6.96 C
2835 09-07-2019 20:10:00 19.8 C 44 % 7.21 C
2836 09-07-2019 20:15:00 19.6 C 45 % 7.35 C
2837 09-07-2019 20:20:00 19.6 C 45 % 7.35 C
2838 09-07-2019 20:25:00 19.5 C 47 % 7.9 C
2839 09-07-2019 20:30:00 19.4 C 46 % 7.49 C
2840 09-07-2019 20:35:00 19.4 C 45 % 7.17 C
2841 09-07-2019 20:40:00 19.4 C 48 % 8.12 C
2842 09-07-2019 20:45:00 19.4 C 51 % 9.01 C
2843 09-07-2019 20:50:00 19.2 C 51 % 8.83 C
2844 09-07-2019 20:55:00 18.9 C 51 % 8.55 C
2845 09-07-2019 21:00:00 18.6 C 53 % 8.84 C
2846 09-07-2019 21:05:00 18.2 C 53 % 8.47 C
2847 09-07-2019 21:10:00 17.8 C 54 % 8.38 C
2848 09-07-2019 21:15:00 17.5 C 56 % 8.63 C
2849 09-07-2019 21:20:00 17.3 C 57 % 8.71 C
2850 09-07-2019 21:25:00 17.1 C 58 % 8.78 C
Sensor: Nr:Datum:Temp:Feuchte:Taupunkt:
Aussen-T/F 2851 09-07-2019 21:30:00 16.8 C 58 % 8.5 C
2852 09-07-2019 21:35:00 16.6 C 58 % 8.31 C
2853 09-07-2019 21:40:00 16.4 C 58 % 8.12 C
2854 09-07-2019 21:45:00 16.2 C 59 % 8.19 C
2855 09-07-2019 21:50:00 16.1 C 59 % 8.09 C
2856 09-07-2019 21:55:00 15.9 C 59 % 7.91 C
2857 09-07-2019 22:00:00 15.7 C 59 % 7.72 C
2858 09-07-2019 22:05:00 15.6 C 60 % 7.87 C
2859 09-07-2019 22:10:00 15.4 C 59 % 7.44 C
2860 09-07-2019 22:15:00 15.3 C 60 % 7.59 C
2861 09-07-2019 22:20:00 15.2 C 60 % 7.5 C
2862 09-07-2019 22:25:00 15.1 C 62 % 7.88 C
2863 09-07-2019 22:30:00 14.9 C 63 % 7.93 C
2864 09-07-2019 22:35:00 14.8 C 64 % 8.06 C
2865 09-07-2019 22:40:00 14.6 C 65 % 8.1 C
2866 09-07-2019 22:45:00 14.4 C 65 % 7.91 C
2867 09-07-2019 22:50:00 14.3 C 66 % 8.04 C
2868 09-07-2019 22:55:00 14.1 C 67 % 8.07 C
2869 09-07-2019 23:00:00 13.9 C 68 % 8.1 C
2870 09-07-2019 23:05:00 13.7 C 69 % 8.12 C
2871 09-07-2019 23:10:00 13.4 C 70 % 8.05 C
2872 09-07-2019 23:15:00 13.3 C 71 % 8.16 C
2873 09-07-2019 23:20:00 13.1 C 72 % 8.17 C
2874 09-07-2019 23:25:00 12.9 C 73 % 8.18 C
2875 09-07-2019 23:30:00 12.8 C 73 % 8.09 C
Sensor: Nr:Datum:Temp:Feuchte:Taupunkt:
Aussen-T/F 2876 09-07-2019 23:35:00 12.8 C 73 % 8.09 C
2877 09-07-2019 23:40:00 12.8 C 73 % 8.09 C
2878 09-07-2019 23:45:00 12.9 C 73 % 8.18 C
2879 09-07-2019 23:50:00 12.9 C 73 % 8.18 C
2880 09-07-2019 23:55:00 12.8 C 74 % 8.29 C
2881 10-07-2019 00:00:00 12.7 C 74 % 8.19 C
2882 10-07-2019 00:05:00 12.6 C 74 % 8.09 C
2883 10-07-2019 00:10:00 12.5 C 74 % 8 C
2884 10-07-2019 00:15:00 12.4 C 74 % 7.9 C
2885 10-07-2019 00:20:00 12.3 C 75 % 8 C
2886 10-07-2019 00:25:00 12.2 C 75 % 7.91 C
2887 10-07-2019 00:30:00 11.9 C 75 % 7.62 C
2888 10-07-2019 00:35:00 11.8 C 75 % 7.52 C
2889 10-07-2019 00:40:00 11.7 C 76 % 7.62 C
2890 10-07-2019 00:45:00 11.6 C 76 % 7.52 C
2891 10-07-2019 00:50:00 11.5 C 76 % 7.42 C
2892 10-07-2019 00:55:00 11.4 C 77 % 7.52 C
2893 10-07-2019 01:00:00 11.3 C 77 % 7.42 C
2894 10-07-2019 01:05:00 11.3 C 77 % 7.42 C
2895 10-07-2019 01:10:00 11.2 C 77 % 7.32 C
2896 10-07-2019 01:15:00 11.2 C 77 % 7.32 C
2897 10-07-2019 01:20:00 11.2 C 78 % 7.51 C
2898 10-07-2019 01:25:00 11.1 C 78 % 7.41 C
2899 10-07-2019 01:30:00 11 C 78 % 7.32 C
2900 10-07-2019 01:35:00 10.9 C 78 % 7.22 C
Sensor: Nr:Datum:Temp:Feuchte:Taupunkt:
Aussen-T/F 2901 10-07-2019 01:40:00 10.9 C 79 % 7.41 C
2902 10-07-2019 01:45:00 10.8 C 79 % 7.31 C
2903 10-07-2019 01:50:00 10.7 C 79 % 7.21 C
2904 10-07-2019 01:55:00 10.6 C 79 % 7.11 C
2905 10-07-2019 02:00:00 10.6 C 79 % 7.11 C
2906 10-07-2019 02:05:00 10.4 C 80 % 7.1 C
2907 10-07-2019 02:10:00 10.3 C 80 % 7.01 C
2908 10-07-2019 02:15:00 10.3 C 80 % 7.01 C
2909 10-07-2019 02:20:00 10.2 C 81 % 7.09 C
2910 10-07-2019 02:25:00 10.1 C 81 % 6.99 C
2911 10-07-2019 02:30:00 9.9 C 81 % 6.8 C
2912 10-07-2019 02:35:00 9.8 C 82 % 6.88 C
2913 10-07-2019 02:40:00 9.8 C 82 % 6.88 C
2914 10-07-2019 02:45:00 9.7 C 82 % 6.78 C
2915 10-07-2019 02:50:00 9.6 C 83 % 6.86 C
2916 10-07-2019 02:55:00 9.5 C 83 % 6.76 C
2917 10-07-2019 03:00:00 9.4 C 83 % 6.66 C
2918 10-07-2019 03:05:00 9.3 C 83 % 6.57 C
2919 10-07-2019 03:10:00 9.3 C 84 % 6.74 C
2920 10-07-2019 03:15:00 9.2 C 84 % 6.64 C
2921 10-07-2019 03:20:00 9.1 C 84 % 6.54 C
2922 10-07-2019 03:25:00 9.1 C 85 % 6.72 C
2923 10-07-2019 03:30:00 9 C 85 % 6.62 C
2924 10-07-2019 03:35:00 8.9 C 85 % 6.52 C
2925 10-07-2019 03:40:00 8.9 C 85 % 6.52 C
Sensor: Nr:Datum:Temp:Feuchte:Taupunkt:
Aussen-T/F 2926 10-07-2019 03:45:00 8.8 C 86 % 6.59 C
2927 10-07-2019 03:50:00 8.8 C 86 % 6.59 C
2928 10-07-2019 03:55:00 8.8 C 86 % 6.59 C
2929 10-07-2019 04:00:00 8.7 C 86 % 6.49 C
2930 10-07-2019 04:05:00 8.7 C 86 % 6.49 C
2931 10-07-2019 04:10:00 8.6 C 86 % 6.39 C
2932 10-07-2019 04:15:00 8.5 C 86 % 6.3 C
2933 10-07-2019 04:20:00 8.5 C 87 % 6.46 C
2934 10-07-2019 04:25:00 8.5 C 87 % 6.46 C
2935 10-07-2019 04:30:00 8.5 C 87 % 6.46 C
2936 10-07-2019 04:35:00 8.4 C 87 % 6.37 C
2937 10-07-2019 04:40:00 8.4 C 88 % 6.53 C
2938 10-07-2019 04:45:00 8.4 C 88 % 6.53 C
2939 10-07-2019 04:50:00 8.4 C 88 % 6.53 C
2940 10-07-2019 04:55:00 8.4 C 88 % 6.53 C
2941 10-07-2019 05:00:00 8.4 C 88 % 6.53 C
2942 10-07-2019 05:05:00 8.3 C 88 % 6.43 C
2943 10-07-2019 05:10:00 8.3 C 88 % 6.43 C
2944 10-07-2019 05:15:00 8.3 C 88 % 6.43 C
2945 10-07-2019 05:20:00 8.3 C 88 % 6.43 C
2946 10-07-2019 05:25:00 8.2 C 89 % 6.5 C
2947 10-07-2019 05:30:00 8.2 C 89 % 6.5 C
2948 10-07-2019 05:35:00 8.2 C 89 % 6.5 C
2949 10-07-2019 05:40:00 8.2 C 89 % 6.5 C
2950 10-07-2019 05:45:00 8.2 C 89 % 6.5 C
Sensor: Nr:Datum:Temp:Feuchte:Taupunkt:
Aussen-T/F 2951 10-07-2019 05:50:00 8.1 C 89 % 6.4 C
2952 10-07-2019 05:55:00 8.1 C 89 % 6.4 C
2953 10-07-2019 06:00:00 8.1 C 89 % 6.4 C
2954 10-07-2019 06:05:00 8.1 C 89 % 6.4 C
2955 10-07-2019 06:10:00 8.1 C 89 % 6.4 C
2956 10-07-2019 06:15:00 8.1 C 90 % 6.56 C
2957 10-07-2019 06:20:00 8.1 C 90 % 6.56 C
2958 10-07-2019 06:25:00 8.1 C 90 % 6.56 C
2959 10-07-2019 06:30:00 8.1 C 90 % 6.56 C
2960 10-07-2019 06:35:00 8.1 C 90 % 6.56 C
2961 10-07-2019 06:40:00 8.1 C 90 % 6.56 C
2962 10-07-2019 06:45:00 8.1 C 90 % 6.56 C
2963 10-07-2019 06:50:00 8.1 C 90 % 6.56 C
2964 10-07-2019 06:55:00 8.2 C 90 % 6.66 C
2965 10-07-2019 07:00:00 8.2 C 90 % 6.66 C
2966 10-07-2019 07:05:00 8.2 C 90 % 6.66 C
2967 10-07-2019 07:10:00 8.3 C 90 % 6.76 C
2968 10-07-2019 07:15:00 8.3 C 90 % 6.76 C
2969 10-07-2019 07:20:00 8.3 C 90 % 6.76 C
2970 10-07-2019 07:25:00 8.4 C 91 % 7.02 C
2971 10-07-2019 07:30:00 8.4 C 91 % 7.02 C
2972 10-07-2019 07:35:00 8.5 C 91 % 7.12 C
2973 10-07-2019 07:40:00 8.6 C 91 % 7.22 C
2974 10-07-2019 07:45:00 8.7 C 91 % 7.32 C
2975 10-07-2019 07:50:00 8.8 C 91 % 7.41 C
Sensor: Nr:Datum:Temp:Feuchte:Taupunkt:
Aussen-T/F 2976 10-07-2019 07:55:00 8.9 C 91 % 7.51 C
2977 10-07-2019 08:00:00 9.1 C 91 % 7.71 C
2978 10-07-2019 08:05:00 9.2 C 91 % 7.81 C
2979 10-07-2019 08:10:00 9.3 C 91 % 7.91 C
2980 10-07-2019 08:15:00 9.6 C 91 % 8.21 C
2981 10-07-2019 08:20:00 9.7 C 91 % 8.3 C
2982 10-07-2019 08:25:00 9.9 C 91 % 8.5 C
2983 10-07-2019 08:30:00 10.1 C 90 % 8.54 C
2984 10-07-2019 08:35:00 10.3 C 90 % 8.73 C
2985 10-07-2019 08:40:00 10.4 C 90 % 8.83 C
2986 10-07-2019 08:45:00 10.7 C 89 % 8.96 C
2987 10-07-2019 08:50:00 10.8 C 89 % 9.06 C
2988 10-07-2019 08:55:00 10.9 C 88 % 8.99 C
2989 10-07-2019 09:00:00 11.1 C 87 % 9.02 C
2990 10-07-2019 09:05:00 11.3 C 87 % 9.22 C
2991 10-07-2019 09:10:00 11.6 C 86 % 9.34 C
2992 10-07-2019 09:15:00 11.7 C 85 % 9.27 C
2993 10-07-2019 09:20:00 11.9 C 83 % 9.11 C
2994 10-07-2019 09:25:00 12.2 C 84 % 9.58 C
2995 10-07-2019 09:30:00 12.4 C 82 % 9.42 C
2996 10-07-2019 09:35:00 12.8 C 81 % 9.62 C
2997 10-07-2019 09:40:00 13.2 C 79 % 9.64 C
2998 10-07-2019 09:45:00 13.6 C 77 % 9.65 C
2999 10-07-2019 09:50:00 13.9 C 75 % 9.55 C
3000 10-07-2019 09:55:00 14.2 C 76 % 10.03 C
Sensor: Nr:Datum:Temp:Feuchte:Taupunkt:
Aussen-T/F 3001 10-07-2019 10:00:00 14.4 C 76 % 10.23 C
3002 10-07-2019 10:05:00 14.7 C 75 % 10.32 C
3003 10-07-2019 10:10:00 14.9 C 74 % 10.31 C
3004 10-07-2019 10:15:00 15.2 C 71 % 9.98 C
3005 10-07-2019 10:20:00 15.5 C 71 % 10.27 C
3006 10-07-2019 10:25:00 15.9 C 68 % 10.01 C
3007 10-07-2019 10:30:00 16.3 C 67 % 10.17 C
3008 10-07-2019 10:35:00 16.7 C 67 % 10.55 C
3009 10-07-2019 10:40:00 16.9 C 66 % 10.51 C
3010 10-07-2019 10:45:00 17.3 C 65 % 10.66 C
3011 10-07-2019 10:50:00 17.6 C 62 % 10.24 C
3012 10-07-2019 10:55:00 17.7 C 60 % 9.84 C
3013 10-07-2019 11:00:00 17.8 C 61 % 10.18 C
3014 10-07-2019 11:05:00 17.9 C 59 % 9.78 C
3015 10-07-2019 11:10:00 18 C 59 % 9.88 C
3016 10-07-2019 11:15:00 18.2 C 57 % 9.55 C
3017 10-07-2019 11:20:00 18.3 C 56 % 9.38 C
3018 10-07-2019 11:25:00 18.4 C 56 % 9.47 C
3019 10-07-2019 11:30:00 18.4 C 54 % 8.93 C
3020 10-07-2019 11:35:00 18.4 C 53 % 8.66 C
3021 10-07-2019 11:40:00 18.6 C 51 % 8.27 C
3022 10-07-2019 11:45:00 18.8 C 49 % 7.87 C
3023 10-07-2019 11:50:00 19 C 50 % 8.35 C
3024 10-07-2019 11:55:00 19.1 C 50 % 8.44 C
3025 10-07-2019 12:00:00 19.2 C 51 % 8.83 C
Sensor: Nr:Datum:Temp:Feuchte:Taupunkt:
Aussen-T/F 3026 10-07-2019 12:05:00 19.3 C 49 % 8.33 C
3027 10-07-2019 12:10:00 19.3 C 48 % 8.03 C
3028 10-07-2019 12:15:00 19.4 C 48 % 8.12 C
3029 10-07-2019 12:20:00 19.6 C 44 % 7.03 C
3030 10-07-2019 12:25:00 19.7 C 45 % 7.44 C
3031 10-07-2019 12:30:00 19.9 C 44 % 7.3 C
3032 10-07-2019 12:35:00 20 C 39 % 5.64 C
3033 10-07-2019 12:40:00 20.2 C 38 % 5.44 C
3034 10-07-2019 12:45:00 20.3 C 35 % 4.35 C
3035 10-07-2019 12:50:00 20.4 C 35 % 4.44 C
3036 10-07-2019 12:55:00 20.4 C 36 % 4.84 C
3037 10-07-2019 13:00:00 20.6 C 37 % 5.41 C
3038 10-07-2019 13:05:00 20.7 C 36 % 5.11 C
3039 10-07-2019 13:10:00 20.8 C 36 % 5.2 C
3040 10-07-2019 13:15:00 20.9 C 36 % 5.28 C
3041 10-07-2019 13:20:00 21 C 36 % 5.37 C
3042 10-07-2019 13:25:00 21.2 C 36 % 5.55 C
3043 10-07-2019 13:30:00 21.3 C 35 % 5.23 C
3044 10-07-2019 13:35:00 21.3 C 35 % 5.23 C
3045 10-07-2019 13:40:00 21.4 C 35 % 5.32 C
3046 10-07-2019 13:45:00 21.5 C 36 % 5.81 C
3047 10-07-2019 13:50:00 21.5 C 34 % 4.99 C
3048 10-07-2019 13:55:00 21.7 C 33 % 4.74 C
3049 10-07-2019 14:00:00 21.8 C 32 % 4.39 C
3050 10-07-2019 14:05:00 22.1 C 32 % 4.65 C
Sensor: Nr:Datum:Temp:Feuchte:Taupunkt:
Aussen-T/F 3051 10-07-2019 14:10:00 22.3 C 32 % 4.82 C
3052 10-07-2019 14:15:00 22.5 C 31 % 4.54 C
3053 10-07-2019 14:20:00 22.6 C 31 % 4.63 C
3054 10-07-2019 14:25:00 22.7 C 32 % 5.17 C
3055 10-07-2019 14:30:00 22.8 C 34 % 6.13 C
3056 10-07-2019 14:35:00 23 C 31 % 4.98 C
3057 10-07-2019 14:40:00 23.1 C 30 % 4.59 C
3058 10-07-2019 14:45:00 23.2 C 29 % 4.2 C
3059 10-07-2019 14:50:00 23.2 C 29 % 4.2 C
3060 10-07-2019 14:55:00 23.2 C 27 % 3.18 C
3061 10-07-2019 15:00:00 23.3 C 29 % 4.28 C
3062 10-07-2019 15:05:00 23.6 C 30 % 5.03 C
3063 10-07-2019 15:10:00 23.8 C 29 % 4.71 C
3064 10-07-2019 15:15:00 23.9 C 29 % 4.8 C
3065 10-07-2019 15:20:00 24.1 C 29 % 4.97 C
3066 10-07-2019 15:25:00 24.2 C 27 % 4.04 C
3067 10-07-2019 15:30:00 24.4 C 29 % 5.23 C
3068 10-07-2019 15:35:00 24.8 C 28 % 5.07 C
3069 10-07-2019 15:40:00 25.2 C 29 % 5.91 C
3070 10-07-2019 15:45:00 25.2 C 27 % 4.89 C
3071 10-07-2019 15:50:00 25.2 C 26 % 4.35 C
3072 10-07-2019 15:55:00 25.3 C 27 % 4.97 C
3073 10-07-2019 16:00:00 25.7 C 25 % 4.21 C
3074 10-07-2019 16:05:00 25.4 C 26 % 4.52 C
3075 10-07-2019 16:10:00 25.2 C 26 % 4.35 C
Sensor: Nr:Datum:Temp:Feuchte:Taupunkt:
Aussen-T/F 3076 10-07-2019 16:15:00 25.3 C 27 % 4.97 C
3077 10-07-2019 16:20:00 25.2 C 27 % 4.89 C
3078 10-07-2019 16:25:00 25.3 C 29 % 6 C
3079 10-07-2019 16:30:00 25.7 C 26 % 4.77 C
3080 10-07-2019 16:35:00 25.6 C 26 % 4.69 C
3081 10-07-2019 16:40:00 25.7 C 27 % 5.31 C
3082 10-07-2019 16:45:00 25.9 C 27 % 5.48 C
3083 10-07-2019 16:50:00 26.4 C 27 % 5.91 C
3084 10-07-2019 16:55:00 26.6 C 27 % 6.08 C
3085 10-07-2019 17:00:00 26.7 C 26 % 5.62 C
3086 10-07-2019 17:05:00 26.6 C 26 % 5.53 C
3087 10-07-2019 17:10:00 26.7 C 25 % 5.06 C
3088 10-07-2019 17:15:00 26.8 C 26 % 5.7 C
3089 10-07-2019 17:20:00 26.8 C 25 % 5.14 C
3090 10-07-2019 17:25:00 26.9 C 25 % 5.22 C
3091 10-07-2019 17:30:00 26.9 C 25 % 5.22 C
3092 10-07-2019 17:35:00 26.7 C 26 % 5.62 C
3093 10-07-2019 17:40:00 26.5 C 25 % 4.89 C
3094 10-07-2019 17:45:00 26.3 C 25 % 4.72 C
3095 10-07-2019 17:50:00 26.3 C 26 % 5.28 C
3096 10-07-2019 17:55:00 26.4 C 25 % 4.8 C
3097 10-07-2019 18:00:00 26.5 C 26 % 5.45 C
3098 10-07-2019 18:05:00 26.9 C 26 % 5.79 C
3099 10-07-2019 18:10:00 27.2 C 25 % 5.48 C
3100 10-07-2019 18:15:00 27.2 C 25 % 5.48 C
Sensor: Nr:Datum:Temp:Feuchte:Taupunkt:
Aussen-T/F 3101 10-07-2019 18:20:00 27.2 C 25 % 5.48 C
3102 10-07-2019 18:25:00 26.9 C 25 % 5.22 C
3103 10-07-2019 18:30:00 26.6 C 25 % 4.97 C
3104 10-07-2019 18:35:00 26.6 C 27 % 6.08 C
3105 10-07-2019 18:40:00 26.9 C 26 % 5.79 C
3106 10-07-2019 18:45:00 26.8 C 26 % 5.7 C
3107 10-07-2019 18:50:00 26.3 C 26 % 5.28 C
3108 10-07-2019 18:55:00 26.1 C 27 % 5.65 C
3109 10-07-2019 19:00:00 26.2 C 27 % 5.74 C
3110 10-07-2019 19:05:00 26.2 C 28 % 6.26 C
3111 10-07-2019 19:10:00 26.4 C 27 % 5.91 C
3112 10-07-2019 19:15:00 26.4 C 27 % 5.91 C
3113 10-07-2019 19:20:00 26.4 C 27 % 5.91 C
3114 10-07-2019 19:25:00 26.4 C 27 % 5.91 C
3115 10-07-2019 19:30:00 26.2 C 28 % 6.26 C
3116 10-07-2019 19:35:00 25.6 C 28 % 5.75 C
3117 10-07-2019 19:40:00 25.2 C 29 % 5.91 C
3118 10-07-2019 19:45:00 24.8 C 29 % 5.57 C
3119 10-07-2019 19:50:00 24.6 C 30 % 5.89 C
3120 10-07-2019 19:55:00 24.6 C 30 % 5.89 C
3121 10-07-2019 20:00:00 24.5 C 30 % 5.8 C
3122 10-07-2019 20:05:00 24.3 C 31 % 6.1 C
3123 10-07-2019 20:10:00 24.1 C 32 % 6.39 C
3124 10-07-2019 20:15:00 23.9 C 32 % 6.21 C
3125 10-07-2019 20:20:00 23.8 C 32 % 6.13 C
Sensor: Nr:Datum:Temp:Feuchte:Taupunkt:
Aussen-T/F 3126 10-07-2019 20:25:00 23.6 C 36 % 7.67 C
3127 10-07-2019 20:30:00 23.3 C 34 % 6.57 C
3128 10-07-2019 20:35:00 23.2 C 34 % 6.48 C
3129 10-07-2019 20:40:00 23.1 C 33 % 5.96 C
3130 10-07-2019 20:45:00 22.9 C 34 % 6.22 C
3131 10-07-2019 20:50:00 22.8 C 36 % 6.96 C
3132 10-07-2019 20:55:00 22.8 C 40 % 8.5 C
3133 10-07-2019 21:00:00 22.4 C 38 % 7.4 C
3134 10-07-2019 21:05:00 22 C 39 % 7.42 C
3135 10-07-2019 21:10:00 21.4 C 41 % 7.62 C
3136 10-07-2019 21:15:00 21.1 C 41 % 7.35 C
3137 10-07-2019 21:20:00 20.7 C 44 % 8.02 C
3138 10-07-2019 21:25:00 20.5 C 43 % 7.5 C
3139 10-07-2019 21:30:00 20.4 C 46 % 8.4 C
3140 10-07-2019 21:35:00 20.3 C 47 % 8.63 C
3141 10-07-2019 21:40:00 20.2 C 45 % 7.9 C
3142 10-07-2019 21:45:00 20.1 C 45 % 7.81 C
3143 10-07-2019 21:50:00 19.9 C 46 % 7.95 C
3144 10-07-2019 21:55:00 19.9 C 45 % 7.63 C
3145 10-07-2019 22:00:00 19.8 C 46 % 7.86 C
3146 10-07-2019 22:05:00 19.7 C 47 % 8.08 C
3147 10-07-2019 22:10:00 19.7 C 46 % 7.77 C
3148 10-07-2019 22:15:00 19.6 C 47 % 7.99 C
3149 10-07-2019 22:20:00 19.4 C 48 % 8.12 C
3150 10-07-2019 22:25:00 19.3 C 48 % 8.03 C
Sensor: Nr:Datum:Temp:Feuchte:Taupunkt:
Aussen-T/F 3151 10-07-2019 22:30:00 19.2 C 48 % 7.93 C
3152 10-07-2019 22:35:00 18.9 C 49 % 7.96 C
3153 10-07-2019 22:40:00 18.8 C 49 % 7.87 C
3154 10-07-2019 22:45:00 18.8 C 49 % 7.87 C
3155 10-07-2019 22:50:00 18.7 C 51 % 8.37 C
3156 10-07-2019 22:55:00 18.7 C 51 % 8.37 C
3157 10-07-2019 23:00:00 18.7 C 51 % 8.37 C
3158 10-07-2019 23:05:00 18.7 C 51 % 8.37 C
3159 10-07-2019 23:10:00 18.7 C 52 % 8.65 C
3160 10-07-2019 23:15:00 18.7 C 53 % 8.93 C
3161 10-07-2019 23:20:00 18.7 C 52 % 8.65 C
3162 10-07-2019 23:25:00 18.7 C 53 % 8.93 C
3163 10-07-2019 23:30:00 18.8 C 53 % 9.03 C
3164 10-07-2019 23:35:00 18.8 C 55 % 9.58 C
3165 10-07-2019 23:40:00 18.8 C 55 % 9.58 C
3166 10-07-2019 23:45:00 19.1 C 51 % 8.73 C
3167 10-07-2019 23:50:00 19.4 C 49 % 8.42 C
3168 10-07-2019 23:55:00 19.7 C 49 % 8.7 C
3169 11-07-2019 00:00:00 19.7 C 49 % 8.7 C
3170 11-07-2019 00:05:00 19.7 C 51 % 9.29 C
3171 11-07-2019 00:10:00 19.6 C 53 % 9.77 C
3172 11-07-2019 00:15:00 19.5 C 54 % 9.95 C
3173 11-07-2019 00:20:00 19.3 C 53 % 9.49 C
3174 11-07-2019 00:25:00 19.2 C 54 % 9.67 C
3175 11-07-2019 00:30:00 19 C 52 % 8.93 C
Sensor: Nr:Datum:Temp:Feuchte:Taupunkt:
Aussen-T/F 3176 11-07-2019 00:35:00 18.9 C 57 % 10.2 C
3177 11-07-2019 00:40:00 18.8 C 57 % 10.11 C
3178 11-07-2019 00:45:00 18.7 C 57 % 10.02 C
3179 11-07-2019 00:50:00 18.5 C 58 % 10.09 C
3180 11-07-2019 00:55:00 18.4 C 58 % 9.99 C
3181 11-07-2019 01:00:00 18.2 C 57 % 9.55 C
3182 11-07-2019 01:05:00 18.2 C 59 % 10.06 C
3183 11-07-2019 01:10:00 18.1 C 60 % 10.22 C
3184 11-07-2019 01:15:00 17.9 C 59 % 9.78 C
3185 11-07-2019 01:20:00 17.9 C 61 % 10.28 C
3186 11-07-2019 01:25:00 17.8 C 61 % 10.18 C
3187 11-07-2019 01:30:00 17.8 C 62 % 10.43 C
3188 11-07-2019 01:35:00 17.7 C 62 % 10.33 C
3189 11-07-2019 01:40:00 17.6 C 62 % 10.24 C
3190 11-07-2019 01:45:00 17.6 C 63 % 10.48 C
3191 11-07-2019 01:50:00 17.4 C 63 % 10.29 C
3192 11-07-2019 01:55:00 17.4 C 64 % 10.53 C
3193 11-07-2019 02:00:00 17.3 C 65 % 10.66 C
3194 11-07-2019 02:05:00 17.3 C 65 % 10.66 C
3195 11-07-2019 02:10:00 17.2 C 65 % 10.57 C
3196 11-07-2019 02:15:00 17.2 C 65 % 10.57 C
3197 11-07-2019 02:20:00 17.2 C 65 % 10.57 C
3198 11-07-2019 02:25:00 17.2 C 65 % 10.57 C
3199 11-07-2019 02:30:00 17.2 C 66 % 10.8 C
3200 11-07-2019 02:35:00 17.1 C 67 % 10.93 C
Sensor: Nr:Datum:Temp:Feuchte:Taupunkt:
Aussen-T/F 3201 11-07-2019 02:40:00 17.1 C 66 % 10.7 C
3202 11-07-2019 02:45:00 17.1 C 67 % 10.93 C
3203 11-07-2019 02:50:00 17.1 C 67 % 10.93 C
3204 11-07-2019 02:55:00 17.1 C 67 % 10.93 C
3205 11-07-2019 03:00:00 17 C 68 % 11.06 C
3206 11-07-2019 03:05:00 17 C 69 % 11.28 C
3207 11-07-2019 03:10:00 17 C 68 % 11.06 C
3208 11-07-2019 03:15:00 16.9 C 69 % 11.18 C
3209 11-07-2019 03:20:00 16.9 C 70 % 11.4 C
3210 11-07-2019 03:25:00 16.9 C 70 % 11.4 C
3211 11-07-2019 03:30:00 16.9 C 70 % 11.4 C
3212 11-07-2019 03:35:00 16.8 C 71 % 11.52 C
3213 11-07-2019 03:40:00 16.8 C 71 % 11.52 C
3214 11-07-2019 03:45:00 16.8 C 72 % 11.73 C
3215 11-07-2019 03:50:00 16.8 C 72 % 11.73 C
3216 11-07-2019 03:55:00 16.7 C 72 % 11.63 C
3217 11-07-2019 04:00:00 16.7 C 72 % 11.63 C
3218 11-07-2019 04:05:00 16.7 C 72 % 11.63 C
3219 11-07-2019 04:10:00 16.7 C 72 % 11.63 C
3220 11-07-2019 04:15:00 16.7 C 72 % 11.63 C
3221 11-07-2019 04:20:00 16.7 C 73 % 11.84 C
3222 11-07-2019 04:25:00 16.6 C 73 % 11.74 C
3223 11-07-2019 04:30:00 16.6 C 73 % 11.74 C
3224 11-07-2019 04:35:00 16.6 C 73 % 11.74 C
3225 11-07-2019 04:40:00 16.5 C 73 % 11.65 C
Sensor: Nr:Datum:Temp:Feuchte:Taupunkt:
Aussen-T/F 3226 11-07-2019 04:45:00 16.5 C 74 % 11.85 C
3227 11-07-2019 04:50:00 16.4 C 73 % 11.55 C
3228 11-07-2019 04:55:00 16.4 C 72 % 11.34 C
3229 11-07-2019 05:00:00 16.4 C 73 % 11.55 C
3230 11-07-2019 05:05:00 16.4 C 73 % 11.55 C
3231 11-07-2019 05:10:00 16.4 C 73 % 11.55 C
3232 11-07-2019 05:15:00 16.4 C 73 % 11.55 C
3233 11-07-2019 05:20:00 16.4 C 74 % 11.76 C
3234 11-07-2019 05:25:00 16.3 C 73 % 11.46 C
3235 11-07-2019 05:30:00 16.3 C 72 % 11.25 C
3236 11-07-2019 05:35:00 16.3 C 73 % 11.46 C
3237 11-07-2019 05:40:00 16.3 C 74 % 11.66 C
3238 11-07-2019 05:45:00 16.3 C 73 % 11.46 C
3239 11-07-2019 05:50:00 16.3 C 73 % 11.46 C
3240 11-07-2019 05:55:00 16.3 C 74 % 11.66 C
3241 11-07-2019 06:00:00 16.2 C 73 % 11.36 C
3242 11-07-2019 06:05:00 16.2 C 74 % 11.56 C
3243 11-07-2019 06:10:00 16.3 C 75 % 11.86 C
3244 11-07-2019 06:15:00 16.2 C 73 % 11.36 C
3245 11-07-2019 06:20:00 16.3 C 74 % 11.66 C
3246 11-07-2019 06:25:00 16.3 C 75 % 11.86 C
3247 11-07-2019 06:30:00 16.3 C 74 % 11.66 C
3248 11-07-2019 06:35:00 16.4 C 74 % 11.76 C
3249 11-07-2019 06:40:00 16.5 C 74 % 11.85 C
3250 11-07-2019 06:45:00 16.6 C 75 % 12.15 C
Sensor: Nr:Datum:Temp:Feuchte:Taupunkt:
Aussen-T/F 3251 11-07-2019 06:50:00 16.7 C 75 % 12.25 C
3252 11-07-2019 06:55:00 16.7 C 75 % 12.25 C
3253 11-07-2019 07:00:00 16.8 C 75 % 12.35 C
3254 11-07-2019 07:05:00 16.8 C 75 % 12.35 C
3255 11-07-2019 07:10:00 16.9 C 75 % 12.44 C
3256 11-07-2019 07:15:00 17 C 73 % 12.13 C
3257 11-07-2019 07:20:00 17.1 C 71 % 11.8 C
3258 11-07-2019 07:25:00 17.2 C 71 % 11.9 C
3259 11-07-2019 07:30:00 17.3 C 72 % 12.21 C
3260 11-07-2019 07:35:00 17.4 C 71 % 12.09 C
3261 11-07-2019 07:40:00 17.5 C 70 % 11.97 C
3262 11-07-2019 07:45:00 17.6 C 70 % 12.07 C
3263 11-07-2019 07:50:00 17.6 C 69 % 11.85 C
3264 11-07-2019 07:55:00 17.6 C 69 % 11.85 C
3265 11-07-2019 08:00:00 17.7 C 68 % 11.72 C
3266 11-07-2019 08:05:00 17.7 C 69 % 11.95 C
3267 11-07-2019 08:10:00 17.7 C 68 % 11.72 C
3268 11-07-2019 08:15:00 17.7 C 69 % 11.95 C
3269 11-07-2019 08:20:00 17.7 C 69 % 11.95 C
3270 11-07-2019 08:25:00 17.7 C 69 % 11.95 C
3271 11-07-2019 08:30:00 17.8 C 69 % 12.04 C
3272 11-07-2019 08:35:00 17.8 C 71 % 12.47 C
3273 11-07-2019 08:40:00 17.9 C 69 % 12.14 C
3274 11-07-2019 08:45:00 18.1 C 69 % 12.33 C
3275 11-07-2019 08:50:00 18.2 C 69 % 12.42 C
Sensor: Nr:Datum:Temp:Feuchte:Taupunkt:
Aussen-T/F 3276 11-07-2019 08:55:00 18.3 C 69 % 12.52 C
3277 11-07-2019 09:00:00 18.3 C 68 % 12.3 C
3278 11-07-2019 09:05:00 18.5 C 68 % 12.49 C
3279 11-07-2019 09:10:00 18.6 C 68 % 12.58 C
3280 11-07-2019 09:15:00 18.7 C 67 % 12.45 C
3281 11-07-2019 09:20:00 18.7 C 68 % 12.68 C
3282 11-07-2019 09:25:00 18.7 C 67 % 12.45 C
3283 11-07-2019 09:30:00 18.7 C 67 % 12.45 C
3284 11-07-2019 09:35:00 18.7 C 68 % 12.68 C
3285 11-07-2019 09:40:00 18.8 C 70 % 13.22 C
3286 11-07-2019 09:45:00 18.8 C 70 % 13.22 C
3287 11-07-2019 09:50:00 18.8 C 69 % 13 C
3288 11-07-2019 09:55:00 18.8 C 72 % 13.65 C
3289 11-07-2019 10:00:00 18.8 C 72 % 13.65 C
3290 11-07-2019 10:05:00 18.8 C 73 % 13.86 C
3291 11-07-2019 10:10:00 18.8 C 73 % 13.86 C
3292 11-07-2019 10:15:00 18.7 C 72 % 13.55 C
3293 11-07-2019 10:20:00 18.7 C 72 % 13.55 C
3294 11-07-2019 10:25:00 18.7 C 72 % 13.55 C
3295 11-07-2019 10:30:00 18.6 C 71 % 13.24 C
3296 11-07-2019 10:35:00 18.6 C 72 % 13.46 C
3297 11-07-2019 10:40:00 18.6 C 69 % 12.8 C
3298 11-07-2019 10:45:00 18.6 C 65 % 11.9 C
3299 11-07-2019 10:50:00 18.7 C 68 % 12.68 C
3300 11-07-2019 10:55:00 18.8 C 69 % 13 C
Sensor: Nr:Datum:Temp:Feuchte:Taupunkt:
Aussen-T/F 3301 11-07-2019 11:00:00 18.9 C 73 % 13.96 C
3302 11-07-2019 11:05:00 19 C 74 % 14.26 C
3303 11-07-2019 11:10:00 19 C 75 % 14.47 C
3304 11-07-2019 11:15:00 19 C 74 % 14.26 C
3305 11-07-2019 11:20:00 18.9 C 74 % 14.17 C
3306 11-07-2019 11:25:00 18.8 C 71 % 13.43 C
3307 11-07-2019 11:30:00 18.8 C 67 % 12.55 C
3308 11-07-2019 11:35:00 18.8 C 66 % 12.32 C
3309 11-07-2019 11:40:00 18.9 C 65 % 12.18 C
3310 11-07-2019 11:45:00 18.9 C 64 % 11.95 C
3311 11-07-2019 11:50:00 18.9 C 65 % 12.18 C
3312 11-07-2019 11:55:00 18.9 C 66 % 12.41 C
3313 11-07-2019 12:00:00 18.7 C 70 % 13.12 C
3314 11-07-2019 12:05:00 18.3 C 73 % 13.38 C
3315 11-07-2019 12:10:00 18.1 C 78 % 14.21 C
3316 11-07-2019 12:15:00 17.7 C 79 % 14.01 C
3317 11-07-2019 12:20:00 17.3 C 81 % 14.01 C
3318 11-07-2019 12:25:00 17.2 C 84 % 14.47 C
3319 11-07-2019 12:30:00 17.1 C 84 % 14.38 C
3320 11-07-2019 12:35:00 17 C 85 % 14.46 C
3321 11-07-2019 12:40:00 16.8 C 85 % 14.26 C
3322 11-07-2019 12:45:00 16.7 C 87 % 14.53 C
3323 11-07-2019 12:50:00 16.7 C 88 % 14.7 C
3324 11-07-2019 12:55:00 16.6 C 89 % 14.78 C
3325 11-07-2019 13:00:00 16.6 C 89 % 14.78 C
Sensor: Nr:Datum:Temp:Feuchte:Taupunkt:
Aussen-T/F 3326 11-07-2019 13:05:00 16.4 C 89 % 14.58 C
3327 11-07-2019 13:10:00 16.3 C 90 % 14.66 C
3328 11-07-2019 13:15:00 16.3 C 91 % 14.83 C
3329 11-07-2019 13:20:00 16.3 C 91 % 14.83 C
3330 11-07-2019 13:25:00 16.2 C 91 % 14.73 C
3331 11-07-2019 13:30:00 16.3 C 91 % 14.83 C
3332 11-07-2019 13:35:00 16.2 C 91 % 14.73 C
3333 11-07-2019 13:40:00 16.3 C 91 % 14.83 C
3334 11-07-2019 13:45:00 16.3 C 92 % 15 C
3335 11-07-2019 13:50:00 16.3 C 92 % 15 C
3336 11-07-2019 13:55:00 16.3 C 92 % 15 C
3337 11-07-2019 14:00:00 16.3 C 92 % 15 C
3338 11-07-2019 14:05:00 16.4 C 92 % 15.1 C
3339 11-07-2019 14:10:00 16.5 C 92 % 15.2 C
3340 11-07-2019 14:15:00 16.7 C 93 % 15.56 C
3341 11-07-2019 14:20:00 16.8 C 93 % 15.66 C
3342 11-07-2019 14:25:00 16.9 C 93 % 15.76 C
3343 11-07-2019 14:30:00 17 C 93 % 15.86 C
3344 11-07-2019 14:35:00 17.1 C 93 % 15.96 C
3345 11-07-2019 14:40:00 17 C 93 % 15.86 C
3346 11-07-2019 14:45:00 16.9 C 93 % 15.76 C
3347 11-07-2019 14:50:00 16.9 C 93 % 15.76 C
3348 11-07-2019 14:55:00 17 C 93 % 15.86 C
3349 11-07-2019 15:00:00 17.2 C 93 % 16.06 C
3350 11-07-2019 15:05:00 17.3 C 93 % 16.16 C
Sensor: Nr:Datum:Temp:Feuchte:Taupunkt:
Aussen-T/F 3351 11-07-2019 15:10:00 17.3 C 93 % 16.16 C
3352 11-07-2019 15:15:00 17.4 C 93 % 16.26 C
3353 11-07-2019 15:20:00 17.4 C 92 % 16.09 C
3354 11-07-2019 15:25:00 17.4 C 92 % 16.09 C
3355 11-07-2019 15:30:00 17.6 C 93 % 16.45 C
3356 11-07-2019 15:35:00 17.7 C 92 % 16.38 C
3357 11-07-2019 15:40:00 17.8 C 92 % 16.48 C
3358 11-07-2019 15:45:00 17.8 C 92 % 16.48 C
3359 11-07-2019 15:50:00 17.9 C 93 % 16.75 C
3360 11-07-2019 15:55:00 18.1 C 92 % 16.78 C
3361 11-07-2019 16:00:00 18.3 C 92 % 16.98 C
3362 11-07-2019 16:05:00 18.4 C 91 % 16.9 C
3363 11-07-2019 16:10:00 18.5 C 91 % 17 C
3364 11-07-2019 16:15:00 18.6 C 91 % 17.1 C
3365 11-07-2019 16:20:00 18.8 C 91 % 17.3 C
3366 11-07-2019 16:25:00 19 C 91 % 17.5 C
3367 11-07-2019 16:30:00 19.1 C 88 % 17.07 C
3368 11-07-2019 16:35:00 19.3 C 90 % 17.62 C
3369 11-07-2019 16:40:00 19.4 C 86 % 17 C
3370 11-07-2019 16:45:00 19.6 C 88 % 17.56 C
3371 11-07-2019 16:50:00 20 C 88 % 17.95 C
3372 11-07-2019 16:55:00 20.4 C 85 % 17.79 C
3373 11-07-2019 17:00:00 20.7 C 84 % 17.9 C
3374 11-07-2019 17:05:00 20.9 C 83 % 17.9 C
3375 11-07-2019 17:10:00 21.1 C 80 % 17.51 C
Sensor: Nr:Datum:Temp:Feuchte:Taupunkt:
Aussen-T/F 3376 11-07-2019 17:15:00 21.3 C 81 % 17.91 C
3377 11-07-2019 17:20:00 21.2 C 84 % 18.39 C
3378 11-07-2019 17:25:00 21 C 83 % 18 C
3379 11-07-2019 17:30:00 20.9 C 84 % 18.09 C
3380 11-07-2019 17:35:00 20.8 C 85 % 18.18 C
3381 11-07-2019 17:40:00 20.8 C 86 % 18.37 C
3382 11-07-2019 17:45:00 20.7 C 87 % 18.46 C
3383 11-07-2019 17:50:00 20.7 C 88 % 18.64 C
3384 11-07-2019 17:55:00 20.5 C 89 % 18.62 C
3385 11-07-2019 18:00:00 20.4 C 89 % 18.53 C
3386 11-07-2019 18:05:00 20.2 C 89 % 18.33 C
3387 11-07-2019 18:10:00 20.1 C 89 % 18.23 C
3388 11-07-2019 18:15:00 19.9 C 89 % 18.03 C
3389 11-07-2019 18:20:00 19.7 C 90 % 18.01 C
3390 11-07-2019 18:25:00 19.6 C 90 % 17.91 C
3391 11-07-2019 18:30:00 19.4 C 90 % 17.72 C
3392 11-07-2019 18:35:00 19.3 C 90 % 17.62 C
3393 11-07-2019 18:40:00 19.1 C 91 % 17.6 C
3394 11-07-2019 18:45:00 18.9 C 91 % 17.4 C
3395 11-07-2019 18:50:00 18.8 C 91 % 17.3 C
3396 11-07-2019 18:55:00 18.7 C 92 % 17.37 C
3397 11-07-2019 19:00:00 18.6 C 91 % 17.1 C
3398 11-07-2019 19:05:00 18.4 C 92 % 17.08 C
3399 11-07-2019 19:10:00 18.3 C 92 % 16.98 C
3400 11-07-2019 19:15:00 18.3 C 93 % 17.15 C
Sensor: Nr:Datum:Temp:Feuchte:Taupunkt:
Aussen-T/F 3401 11-07-2019 19:20:00 18.2 C 93 % 17.05 C
3402 11-07-2019 19:25:00 18.2 C 93 % 17.05 C
3403 11-07-2019 19:30:00 18.2 C 93 % 17.05 C
3404 11-07-2019 19:35:00 18.2 C 94 % 17.22 C
3405 11-07-2019 19:40:00 18.3 C 94 % 17.32 C
3406 11-07-2019 19:45:00 18.3 C 94 % 17.32 C
3407 11-07-2019 19:50:00 18.3 C 94 % 17.32 C
3408 11-07-2019 19:55:00 18.3 C 94 % 17.32 C
3409 11-07-2019 20:00:00 18.2 C 94 % 17.22 C
3410 11-07-2019 20:05:00 18.1 C 94 % 17.12 C
3411 11-07-2019 20:10:00 18.1 C 94 % 17.12 C
3412 11-07-2019 20:15:00 18 C 94 % 17.02 C
3413 11-07-2019 20:20:00 18 C 94 % 17.02 C
3414 11-07-2019 20:25:00 18 C 94 % 17.02 C
3415 11-07-2019 20:30:00 18 C 94 % 17.02 C
3416 11-07-2019 20:35:00 18.1 C 94 % 17.12 C
3417 11-07-2019 20:40:00 18.1 C 94 % 17.12 C
3418 11-07-2019 20:45:00 18 C 94 % 17.02 C
3419 11-07-2019 20:50:00 18 C 94 % 17.02 C
3420 11-07-2019 20:55:00 17.9 C 94 % 16.92 C
3421 11-07-2019 21:00:00 17.8 C 94 % 16.82 C
3422 11-07-2019 21:05:00 17.8 C 94 % 16.82 C
3423 11-07-2019 21:10:00 17.7 C 94 % 16.72 C
3424 11-07-2019 21:15:00 17.7 C 94 % 16.72 C
3425 11-07-2019 21:20:00 17.6 C 94 % 16.62 C
Sensor: Nr:Datum:Temp:Feuchte:Taupunkt:
Aussen-T/F 3426 11-07-2019 21:25:00 17.4 C 94 % 16.42 C
3427 11-07-2019 21:30:00 17.4 C 94 % 16.42 C
3428 11-07-2019 21:35:00 17.3 C 94 % 16.33 C
3429 11-07-2019 21:40:00 17.2 C 94 % 16.23 C
3430 11-07-2019 21:45:00 17.2 C 94 % 16.23 C
3431 11-07-2019 21:50:00 17.1 C 94 % 16.13 C
3432 11-07-2019 21:55:00 17.1 C 94 % 16.13 C
3433 11-07-2019 22:00:00 17.1 C 94 % 16.13 C
3434 11-07-2019 22:05:00 17.1 C 95 % 16.29 C
3435 11-07-2019 22:10:00 17 C 95 % 16.19 C
3436 11-07-2019 22:15:00 16.9 C 95 % 16.09 C
3437 11-07-2019 22:20:00 16.9 C 95 % 16.09 C
3438 11-07-2019 22:25:00 16.8 C 95 % 15.99 C
3439 11-07-2019 22:30:00 16.8 C 95 % 15.99 C
3440 11-07-2019 22:35:00 16.8 C 95 % 15.99 C
3441 11-07-2019 22:40:00 16.7 C 95 % 15.9 C
3442 11-07-2019 22:45:00 16.7 C 95 % 15.9 C
3443 11-07-2019 22:50:00 16.7 C 95 % 15.9 C
3444 11-07-2019 22:55:00 16.7 C 95 % 15.9 C
3445 11-07-2019 23:00:00 16.7 C 95 % 15.9 C
3446 11-07-2019 23:05:00 16.7 C 95 % 15.9 C
3447 11-07-2019 23:10:00 16.7 C 95 % 15.9 C
3448 11-07-2019 23:15:00 16.6 C 95 % 15.8 C
3449 11-07-2019 23:20:00 16.6 C 95 % 15.8 C
3450 11-07-2019 23:25:00 16.4 C 95 % 15.6 C
Sensor: Nr:Datum:Temp:Feuchte:Taupunkt:
Aussen-T/F 3451 11-07-2019 23:30:00 16.4 C 95 % 15.6 C
3452 11-07-2019 23:35:00 16.3 C 95 % 15.5 C
3453 11-07-2019 23:40:00 16.2 C 95 % 15.4 C
3454 11-07-2019 23:45:00 16.2 C 95 % 15.4 C
3455 11-07-2019 23:50:00 16.2 C 95 % 15.4 C
3456 11-07-2019 23:55:00 16.2 C 96 % 15.56 C
3457 12-07-2019 00:00:00 16.2 C 96 % 15.56 C
3458 12-07-2019 00:05:00 16.2 C 96 % 15.56 C
3459 12-07-2019 00:10:00 16.2 C 96 % 15.56 C
3460 12-07-2019 00:15:00 16.2 C 96 % 15.56 C
3461 12-07-2019 00:20:00 16.1 C 96 % 15.46 C
3462 12-07-2019 00:25:00 16.1 C 96 % 15.46 C
3463 12-07-2019 00:30:00 16 C 96 % 15.36 C
3464 12-07-2019 00:35:00 16 C 96 % 15.36 C
3465 12-07-2019 00:40:00 15.9 C 96 % 15.26 C
3466 12-07-2019 00:45:00 15.9 C 96 % 15.26 C
3467 12-07-2019 00:50:00 15.9 C 96 % 15.26 C
3468 12-07-2019 00:55:00 15.9 C 96 % 15.26 C
3469 12-07-2019 01:00:00 15.8 C 96 % 15.16 C
3470 12-07-2019 01:05:00 15.8 C 96 % 15.16 C
3471 12-07-2019 01:10:00 15.8 C 96 % 15.16 C
3472 12-07-2019 01:15:00 15.8 C 96 % 15.16 C
3473 12-07-2019 01:20:00 15.7 C 96 % 15.06 C
3474 12-07-2019 01:25:00 15.7 C 96 % 15.06 C
3475 12-07-2019 01:30:00 15.7 C 96 % 15.06 C
Sensor: Nr:Datum:Temp:Feuchte:Taupunkt:
Aussen-T/F 3476 12-07-2019 01:35:00 15.7 C 96 % 15.06 C
3477 12-07-2019 01:40:00 15.7 C 96 % 15.06 C
3478 12-07-2019 01:45:00 15.6 C 96 % 14.96 C
3479 12-07-2019 01:50:00 15.6 C 96 % 14.96 C
3480 12-07-2019 01:55:00 15.6 C 96 % 14.96 C
3481 12-07-2019 02:00:00 15.5 C 96 % 14.86 C
3482 12-07-2019 02:05:00 15.4 C 96 % 14.77 C
3483 12-07-2019 02:10:00 15.4 C 96 % 14.77 C
3484 12-07-2019 02:15:00 15.4 C 96 % 14.77 C
3485 12-07-2019 02:20:00 15.3 C 96 % 14.67 C
3486 12-07-2019 02:25:00 15.3 C 96 % 14.67 C
3487 12-07-2019 02:30:00 15.3 C 96 % 14.67 C
3488 12-07-2019 02:35:00 15.3 C 96 % 14.67 C
3489 12-07-2019 02:40:00 15.3 C 96 % 14.67 C
3490 12-07-2019 02:45:00 15.3 C 96 % 14.67 C
3491 12-07-2019 02:50:00 15.3 C 96 % 14.67 C
3492 12-07-2019 02:55:00 15.3 C 96 % 14.67 C
3493 12-07-2019 03:00:00 15.3 C 97 % 14.83 C
3494 12-07-2019 03:05:00 15.3 C 96 % 14.67 C
3495 12-07-2019 03:10:00 15.4 C 96 % 14.77 C
3496 12-07-2019 03:15:00 15.4 C 96 % 14.77 C
3497 12-07-2019 03:20:00 15.4 C 97 % 14.93 C
3498 12-07-2019 03:25:00 15.4 C 97 % 14.93 C
3499 12-07-2019 03:30:00 15.4 C 96 % 14.77 C
3500 12-07-2019 03:35:00 15.3 C 96 % 14.67 C
Sensor: Nr:Datum:Temp:Feuchte:Taupunkt:
Aussen-T/F 3501 12-07-2019 03:40:00 15.3 C 96 % 14.67 C
3502 12-07-2019 03:45:00 15.2 C 97 % 14.73 C
3503 12-07-2019 03:50:00 15.2 C 97 % 14.73 C
3504 12-07-2019 03:55:00 15.2 C 97 % 14.73 C
3505 12-07-2019 04:00:00 15.2 C 97 % 14.73 C
3506 12-07-2019 04:05:00 15.2 C 97 % 14.73 C
3507 12-07-2019 04:10:00 15.2 C 97 % 14.73 C
3508 12-07-2019 04:15:00 15.2 C 97 % 14.73 C
3509 12-07-2019 04:20:00 15.1 C 96 % 14.47 C
3510 12-07-2019 04:25:00 15 C 96 % 14.37 C
3511 12-07-2019 04:30:00 14.9 C 96 % 14.27 C
3512 12-07-2019 04:35:00 14.8 C 96 % 14.17 C
3513 12-07-2019 04:40:00 14.7 C 96 % 14.07 C
3514 12-07-2019 04:45:00 14.7 C 96 % 14.07 C
3515 12-07-2019 04:50:00 14.6 C 96 % 13.97 C
3516 12-07-2019 04:55:00 14.6 C 97 % 14.13 C
3517 12-07-2019 05:00:00 14.5 C 97 % 14.03 C
3518 12-07-2019 05:05:00 14.5 C 97 % 14.03 C
3519 12-07-2019 05:10:00 14.5 C 97 % 14.03 C
3520 12-07-2019 05:15:00 14.5 C 97 % 14.03 C
3521 12-07-2019 05:20:00 14.5 C 97 % 14.03 C
3522 12-07-2019 05:25:00 14.5 C 97 % 14.03 C
3523 12-07-2019 05:30:00 14.6 C 97 % 14.13 C
3524 12-07-2019 05:35:00 14.6 C 97 % 14.13 C
3525 12-07-2019 05:40:00 14.7 C 97 % 14.23 C
Sensor: Nr:Datum:Temp:Feuchte:Taupunkt:
Aussen-T/F 3526 12-07-2019 05:45:00 14.7 C 97 % 14.23 C
3527 12-07-2019 05:50:00 14.7 C 97 % 14.23 C
3528 12-07-2019 05:55:00 14.7 C 97 % 14.23 C
3529 12-07-2019 06:00:00 14.7 C 97 % 14.23 C
3530 12-07-2019 06:05:00 14.7 C 97 % 14.23 C
3531 12-07-2019 06:10:00 14.7 C 97 % 14.23 C
3532 12-07-2019 06:15:00 14.7 C 97 % 14.23 C
3533 12-07-2019 06:20:00 14.7 C 97 % 14.23 C
3534 12-07-2019 06:25:00 14.7 C 97 % 14.23 C
3535 12-07-2019 06:30:00 14.7 C 97 % 14.23 C
3536 12-07-2019 06:35:00 14.7 C 97 % 14.23 C
3537 12-07-2019 06:40:00 14.8 C 97 % 14.33 C
3538 12-07-2019 06:45:00 14.8 C 97 % 14.33 C
3539 12-07-2019 06:50:00 14.9 C 97 % 14.43 C
3540 12-07-2019 06:55:00 15 C 97 % 14.53 C
3541 12-07-2019 07:00:00 15.2 C 97 % 14.73 C
3542 12-07-2019 07:05:00 15.5 C 97 % 15.03 C
3543 12-07-2019 07:10:00 15.7 C 98 % 15.38 C
3544 12-07-2019 07:15:00 15.8 C 98 % 15.48 C
3545 12-07-2019 07:20:00 15.8 C 97 % 15.32 C
3546 12-07-2019 07:25:00 15.8 C 97 % 15.32 C
3547 12-07-2019 07:30:00 15.8 C 97 % 15.32 C
3548 12-07-2019 07:35:00 15.8 C 97 % 15.32 C
3549 12-07-2019 07:40:00 15.8 C 97 % 15.32 C
3550 12-07-2019 07:45:00 15.8 C 97 % 15.32 C
Sensor: Nr:Datum:Temp:Feuchte:Taupunkt:
Aussen-T/F 3551 12-07-2019 07:50:00 15.9 C 97 % 15.42 C
3552 12-07-2019 07:55:00 15.9 C 97 % 15.42 C
3553 12-07-2019 08:00:00 16 C 97 % 15.52 C
3554 12-07-2019 08:05:00 16.1 C 97 % 15.62 C
3555 12-07-2019 08:10:00 16.1 C 97 % 15.62 C
3556 12-07-2019 08:15:00 16.2 C 97 % 15.72 C
3557 12-07-2019 08:20:00 16.3 C 97 % 15.82 C
3558 12-07-2019 08:25:00 16.4 C 97 % 15.92 C
3559 12-07-2019 08:30:00 16.6 C 97 % 16.12 C
3560 12-07-2019 08:35:00 16.7 C 97 % 16.22 C
3561 12-07-2019 08:40:00 16.7 C 98 % 16.38 C
3562 12-07-2019 08:45:00 16.8 C 97 % 16.32 C
3563 12-07-2019 08:50:00 16.8 C 97 % 16.32 C
3564 12-07-2019 08:55:00 16.8 C 97 % 16.32 C
3565 12-07-2019 09:00:00 16.9 C 97 % 16.42 C
3566 12-07-2019 09:05:00 17.1 C 98 % 16.78 C
3567 12-07-2019 09:10:00 17.2 C 98 % 16.88 C
3568 12-07-2019 09:15:00 17.3 C 97 % 16.82 C
3569 12-07-2019 09:20:00 17.4 C 98 % 17.08 C
3570 12-07-2019 09:25:00 17.4 C 98 % 17.08 C
3571 12-07-2019 09:30:00 17.4 C 97 % 16.92 C
3572 12-07-2019 09:35:00 17.4 C 97 % 16.92 C
3573 12-07-2019 09:40:00 17.5 C 97 % 17.02 C
3574 12-07-2019 09:45:00 17.8 C 97 % 17.32 C
3575 12-07-2019 09:50:00 17.9 C 98 % 17.58 C
Sensor: Nr:Datum:Temp:Feuchte:Taupunkt:
Aussen-T/F 3576 12-07-2019 09:55:00 18.1 C 97 % 17.62 C
3577 12-07-2019 10:00:00 17.9 C 97 % 17.42 C
3578 12-07-2019 10:05:00 17.9 C 97 % 17.42 C
3579 12-07-2019 10:10:00 17.9 C 96 % 17.25 C
3580 12-07-2019 10:15:00 18 C 96 % 17.35 C
3581 12-07-2019 10:20:00 18.2 C 96 % 17.55 C
3582 12-07-2019 10:25:00 18.7 C 96 % 18.05 C
3583 12-07-2019 10:30:00 18.9 C 96 % 18.25 C
3584 12-07-2019 10:35:00 19.2 C 95 % 18.38 C
3585 12-07-2019 10:40:00 19.4 C 94 % 18.41 C
3586 12-07-2019 10:45:00 19.7 C 94 % 18.71 C
3587 12-07-2019 10:50:00 19.7 C 92 % 18.36 C
3588 12-07-2019 10:55:00 19.9 C 91 % 18.39 C
3589 12-07-2019 11:00:00 20 C 91 % 18.49 C
3590 12-07-2019 11:05:00 20.1 C 89 % 18.23 C
3591 12-07-2019 11:10:00 20.1 C 87 % 17.87 C
3592 12-07-2019 11:15:00 20.2 C 87 % 17.97 C
3593 12-07-2019 11:20:00 20.3 C 88 % 18.25 C
3594 12-07-2019 11:25:00 20.4 C 88 % 18.34 C
3595 12-07-2019 11:30:00 20.5 C 87 % 18.26 C
3596 12-07-2019 11:35:00 20.6 C 89 % 18.72 C
3597 12-07-2019 11:40:00 20.6 C 89 % 18.72 C
3598 12-07-2019 11:45:00 20.5 C 90 % 18.8 C
3599 12-07-2019 11:50:00 20.4 C 90 % 18.7 C
3600 12-07-2019 11:55:00 20.2 C 90 % 18.51 C
Sensor: Nr:Datum:Temp:Feuchte:Taupunkt:
Aussen-T/F 3601 12-07-2019 12:00:00 20 C 90 % 18.31 C
3602 12-07-2019 12:05:00 19.8 C 91 % 18.29 C
3603 12-07-2019 12:10:00 19.6 C 91 % 18.09 C
3604 12-07-2019 12:15:00 19.4 C 92 % 18.07 C
3605 12-07-2019 12:20:00 19.2 C 91 % 17.69 C
3606 12-07-2019 12:25:00 19 C 91 % 17.5 C
3607 12-07-2019 12:30:00 18.9 C 92 % 17.57 C
3608 12-07-2019 12:35:00 18.8 C 92 % 17.47 C
3609 12-07-2019 12:40:00 18.8 C 93 % 17.64 C
3610 12-07-2019 12:45:00 18.5 C 92 % 17.18 C
3611 12-07-2019 12:50:00 18.3 C 93 % 17.15 C
3612 12-07-2019 12:55:00 18.2 C 93 % 17.05 C
3613 12-07-2019 13:00:00 18.2 C 94 % 17.22 C
3614 12-07-2019 13:05:00 18.3 C 94 % 17.32 C
3615 12-07-2019 13:10:00 18.3 C 94 % 17.32 C
3616 12-07-2019 13:15:00 18.4 C 95 % 17.58 C
3617 12-07-2019 13:20:00 18.4 C 95 % 17.58 C
3618 12-07-2019 13:25:00 18.4 C 95 % 17.58 C
3619 12-07-2019 13:30:00 18.2 C 94 % 17.22 C
3620 12-07-2019 13:35:00 17.8 C 94 % 16.82 C
3621 12-07-2019 13:40:00 17.6 C 94 % 16.62 C
3622 12-07-2019 13:45:00 17.5 C 94 % 16.52 C
3623 12-07-2019 13:50:00 17.4 C 94 % 16.42 C
3624 12-07-2019 13:55:00 17.3 C 94 % 16.33 C
3625 12-07-2019 14:00:00 17.2 C 94 % 16.23 C
Sensor: Nr:Datum:Temp:Feuchte:Taupunkt:
Aussen-T/F 3626 12-07-2019 14:05:00 17.3 C 94 % 16.33 C
3627 12-07-2019 14:10:00 17.3 C 95 % 16.49 C
3628 12-07-2019 14:15:00 17.7 C 96 % 17.05 C
3629 12-07-2019 14:20:00 17.8 C 95 % 16.99 C
3630 12-07-2019 14:25:00 17.6 C 94 % 16.62 C
3631 12-07-2019 14:30:00 17.6 C 93 % 16.45 C
3632 12-07-2019 14:35:00 17.7 C 94 % 16.72 C
3633 12-07-2019 14:40:00 17.8 C 94 % 16.82 C
3634 12-07-2019 14:45:00 18 C 94 % 17.02 C
3635 12-07-2019 14:50:00 18.2 C 94 % 17.22 C
3636 12-07-2019 14:55:00 18.3 C 93 % 17.15 C
3637 12-07-2019 15:00:00 18.4 C 93 % 17.25 C
3638 12-07-2019 15:05:00 18.7 C 93 % 17.54 C
3639 12-07-2019 15:10:00 18.7 C 90 % 17.03 C
3640 12-07-2019 15:15:00 19.1 C 93 % 17.94 C
3641 12-07-2019 15:20:00 19.6 C 91 % 18.09 C
3642 12-07-2019 15:25:00 19.8 C 89 % 17.93 C
3643 12-07-2019 15:30:00 19.8 C 86 % 17.39 C
3644 12-07-2019 15:35:00 19.8 C 88 % 17.75 C
3645 12-07-2019 15:40:00 19.9 C 86 % 17.49 C
3646 12-07-2019 15:45:00 20.3 C 88 % 18.25 C
3647 12-07-2019 15:50:00 20.4 C 85 % 17.79 C
3648 12-07-2019 15:55:00 20.7 C 87 % 18.46 C
3649 12-07-2019 16:00:00 21.1 C 84 % 18.29 C
3650 12-07-2019 16:05:00 21 C 84 % 18.19 C
Sensor: Nr:Datum:Temp:Feuchte:Taupunkt:
Aussen-T/F 3651 12-07-2019 16:10:00 21 C 86 % 18.57 C
3652 12-07-2019 16:15:00 21 C 88 % 18.94 C
3653 12-07-2019 16:20:00 21 C 89 % 19.12 C
3654 12-07-2019 16:25:00 20.9 C 89 % 19.02 C
3655 12-07-2019 16:30:00 20.9 C 89 % 19.02 C
3656 12-07-2019 16:35:00 20.6 C 86 % 18.18 C
3657 12-07-2019 16:40:00 20.4 C 85 % 17.79 C
3658 12-07-2019 16:45:00 20.4 C 88 % 18.34 C
3659 12-07-2019 16:50:00 20.4 C 87 % 18.16 C
3660 12-07-2019 16:55:00 20.5 C 87 % 18.26 C
3661 12-07-2019 17:00:00 20.5 C 84 % 17.7 C
3662 12-07-2019 17:05:00 20.6 C 83 % 17.61 C
3663 12-07-2019 17:10:00 20.5 C 83 % 17.51 C
3664 12-07-2019 17:15:00 20.6 C 86 % 18.18 C
3665 12-07-2019 17:20:00 20.4 C 86 % 17.98 C
3666 12-07-2019 17:25:00 20 C 79 % 16.25 C
3667 12-07-2019 17:30:00 19.8 C 75 % 15.24 C
3668 12-07-2019 17:35:00 19.7 C 76 % 15.35 C
3669 12-07-2019 17:40:00 19.7 C 78 % 15.76 C
3670 12-07-2019 17:45:00 19.4 C 76 % 15.06 C
3671 12-07-2019 17:50:00 19.3 C 76 % 14.97 C
3672 12-07-2019 17:55:00 19.2 C 77 % 15.07 C
3673 12-07-2019 18:00:00 19.1 C 80 % 15.57 C
3674 12-07-2019 18:05:00 19 C 84 % 16.24 C
3675 12-07-2019 18:10:00 18.8 C 85 % 16.23 C
Sensor: Nr:Datum:Temp:Feuchte:Taupunkt:
Aussen-T/F 3676 12-07-2019 18:15:00 18.6 C 81 % 15.28 C
3677 12-07-2019 18:20:00 18.5 C 85 % 15.93 C
3678 12-07-2019 18:25:00 18.3 C 85 % 15.74 C
3679 12-07-2019 18:30:00 18.2 C 87 % 16 C
3680 12-07-2019 18:35:00 18.2 C 87 % 16 C
3681 12-07-2019 18:40:00 17.9 C 84 % 15.16 C
3682 12-07-2019 18:45:00 17.7 C 86 % 15.33 C
3683 12-07-2019 18:50:00 17.7 C 87 % 15.51 C
3684 12-07-2019 18:55:00 17.7 C 88 % 15.69 C
3685 12-07-2019 19:00:00 17.6 C 87 % 15.41 C
3686 12-07-2019 19:05:00 17.5 C 87 % 15.31 C
3687 12-07-2019 19:10:00 17.4 C 88 % 15.39 C
3688 12-07-2019 19:15:00 17.4 C 87 % 15.21 C
3689 12-07-2019 19:20:00 17.4 C 88 % 15.39 C
3690 12-07-2019 19:25:00 17.5 C 88 % 15.49 C
3691 12-07-2019 19:30:00 17.4 C 87 % 15.21 C
3692 12-07-2019 19:35:00 17.5 C 87 % 15.31 C
3693 12-07-2019 19:40:00 17.6 C 87 % 15.41 C
3694 12-07-2019 19:45:00 17.7 C 88 % 15.69 C
3695 12-07-2019 19:50:00 17.8 C 89 % 15.96 C
3696 12-07-2019 19:55:00 17.9 C 89 % 16.06 C
3697 12-07-2019 20:00:00 17.9 C 90 % 16.24 C
3698 12-07-2019 20:05:00 17.9 C 90 % 16.24 C
3699 12-07-2019 20:10:00 18 C 90 % 16.34 C
3700 12-07-2019 20:15:00 18 C 90 % 16.34 C
Sensor: Nr:Datum:Temp:Feuchte:Taupunkt:
Aussen-T/F 3701 12-07-2019 20:20:00 18.2 C 90 % 16.53 C
3702 12-07-2019 20:25:00 18.3 C 88 % 16.28 C
3703 12-07-2019 20:30:00 18.5 C 88 % 16.48 C
3704 12-07-2019 20:35:00 18.6 C 87 % 16.39 C
3705 12-07-2019 20:40:00 18.6 C 87 % 16.39 C
3706 12-07-2019 20:45:00 18.4 C 86 % 16.02 C
3707 12-07-2019 20:50:00 18.3 C 87 % 16.1 C
3708 12-07-2019 20:55:00 18.1 C 86 % 15.72 C
3709 12-07-2019 21:00:00 17.9 C 87 % 15.71 C
3710 12-07-2019 21:05:00 17.8 C 87 % 15.61 C
3711 12-07-2019 21:10:00 17.7 C 87 % 15.51 C
3712 12-07-2019 21:15:00 17.7 C 88 % 15.69 C
3713 12-07-2019 21:20:00 17.6 C 87 % 15.41 C
3714 12-07-2019 21:25:00 17.6 C 88 % 15.59 C
3715 12-07-2019 21:30:00 17.5 C 87 % 15.31 C
3716 12-07-2019 21:35:00 17.6 C 88 % 15.59 C
3717 12-07-2019 21:40:00 17.5 C 88 % 15.49 C
3718 12-07-2019 21:45:00 17.5 C 86 % 15.13 C
3719 12-07-2019 21:50:00 17.6 C 85 % 15.05 C
3720 12-07-2019 21:55:00 17.6 C 86 % 15.23 C
3721 12-07-2019 22:00:00 17.6 C 86 % 15.23 C
3722 12-07-2019 22:05:00 17.5 C 86 % 15.13 C
3723 12-07-2019 22:10:00 17.4 C 86 % 15.03 C
3724 12-07-2019 22:15:00 17.4 C 86 % 15.03 C
3725 12-07-2019 22:20:00 17.3 C 86 % 14.94 C
Sensor: Nr:Datum:Temp:Feuchte:Taupunkt:
Aussen-T/F 3726 12-07-2019 22:25:00 17.4 C 86 % 15.03 C
3727 12-07-2019 22:30:00 17.3 C 86 % 14.94 C
3728 12-07-2019 22:35:00 17.2 C 86 % 14.84 C
3729 12-07-2019 22:40:00 17.2 C 86 % 14.84 C
3730 12-07-2019 22:45:00 17.2 C 87 % 15.02 C
3731 12-07-2019 22:50:00 17.1 C 87 % 14.92 C
3732 12-07-2019 22:55:00 17 C 87 % 14.82 C
3733 12-07-2019 23:00:00 16.9 C 86 % 14.54 C
3734 12-07-2019 23:05:00 16.9 C 87 % 14.72 C
3735 12-07-2019 23:10:00 16.8 C 87 % 14.62 C
3736 12-07-2019 23:15:00 16.8 C 88 % 14.8 C
3737 12-07-2019 23:20:00 16.7 C 88 % 14.7 C
3738 12-07-2019 23:25:00 16.6 C 88 % 14.6 C
3739 12-07-2019 23:30:00 16.5 C 89 % 14.68 C
3740 12-07-2019 23:35:00 16.4 C 89 % 14.58 C
3741 12-07-2019 23:40:00 16.3 C 89 % 14.48 C
3742 12-07-2019 23:45:00 16.3 C 90 % 14.66 C
3743 12-07-2019 23:50:00 16.2 C 90 % 14.56 C
3744 12-07-2019 23:55:00 16.2 C 89 % 14.39 C
3745 13-07-2019 00:00:00 16.2 C 89 % 14.39 C
3746 13-07-2019 00:05:00 16.2 C 88 % 14.21 C
3747 13-07-2019 00:10:00 16.2 C 88 % 14.21 C
3748 13-07-2019 00:15:00 16.2 C 87 % 14.03 C
3749 13-07-2019 00:20:00 16.3 C 87 % 14.13 C
3750 13-07-2019 00:25:00 16.4 C 86 % 14.05 C
Sensor: Nr:Datum:Temp:Feuchte:Taupunkt:
Aussen-T/F 3751 13-07-2019 00:30:00 16.4 C 86 % 14.05 C
3752 13-07-2019 00:35:00 16.6 C 86 % 14.25 C
3753 13-07-2019 00:40:00 16.4 C 85 % 13.87 C
3754 13-07-2019 00:45:00 16.4 C 86 % 14.05 C
3755 13-07-2019 00:50:00 16.4 C 86 % 14.05 C
3756 13-07-2019 00:55:00 16.4 C 86 % 14.05 C
3757 13-07-2019 01:00:00 16.4 C 86 % 14.05 C
3758 13-07-2019 01:05:00 16.5 C 86 % 14.15 C
3759 13-07-2019 01:10:00 16.5 C 88 % 14.51 C
3760 13-07-2019 01:15:00 16.4 C 88 % 14.41 C
3761 13-07-2019 01:20:00 16.3 C 89 % 14.48 C
3762 13-07-2019 01:25:00 16.2 C 90 % 14.56 C
3763 13-07-2019 01:30:00 16.1 C 91 % 14.63 C
3764 13-07-2019 01:35:00 16 C 91 % 14.53 C
3765 13-07-2019 01:40:00 15.9 C 92 % 14.6 C
3766 13-07-2019 01:45:00 15.8 C 92 % 14.5 C
3767 13-07-2019 01:50:00 15.8 C 93 % 14.67 C
3768 13-07-2019 01:55:00 15.7 C 93 % 14.57 C
3769 13-07-2019 02:00:00 15.7 C 93 % 14.57 C
3770 13-07-2019 02:05:00 15.7 C 93 % 14.57 C
3771 13-07-2019 02:10:00 15.6 C 94 % 14.64 C
3772 13-07-2019 02:15:00 15.6 C 94 % 14.64 C
3773 13-07-2019 02:20:00 15.6 C 94 % 14.64 C
3774 13-07-2019 02:25:00 15.6 C 94 % 14.64 C
3775 13-07-2019 02:30:00 15.5 C 94 % 14.54 C
Sensor: Nr:Datum:Temp:Feuchte:Taupunkt:
Aussen-T/F 3776 13-07-2019 02:35:00 15.4 C 94 % 14.44 C
3777 13-07-2019 02:40:00 15.4 C 94 % 14.44 C
3778 13-07-2019 02:45:00 15.4 C 94 % 14.44 C
3779 13-07-2019 02:50:00 15.4 C 95 % 14.6 C
3780 13-07-2019 02:55:00 15.3 C 95 % 14.5 C
3781 13-07-2019 03:00:00 15.3 C 95 % 14.5 C
3782 13-07-2019 03:05:00 15.3 C 94 % 14.34 C
3783 13-07-2019 03:10:00 15.3 C 95 % 14.5 C
3784 13-07-2019 03:15:00 15.2 C 95 % 14.4 C
3785 13-07-2019 03:20:00 15.2 C 95 % 14.4 C
3786 13-07-2019 03:25:00 15.2 C 95 % 14.4 C
3787 13-07-2019 03:30:00 15.1 C 95 % 14.31 C
3788 13-07-2019 03:35:00 15.1 C 95 % 14.31 C
3789 13-07-2019 03:40:00 15.1 C 95 % 14.31 C
3790 13-07-2019 03:45:00 15.1 C 95 % 14.31 C
3791 13-07-2019 03:50:00 15.1 C 95 % 14.31 C
3792 13-07-2019 03:55:00 15.1 C 95 % 14.31 C
3793 13-07-2019 04:00:00 15.1 C 95 % 14.31 C
3794 13-07-2019 04:05:00 15.1 C 95 % 14.31 C
3795 13-07-2019 04:10:00 15.1 C 95 % 14.31 C
3796 13-07-2019 04:15:00 15 C 95 % 14.21 C
3797 13-07-2019 04:20:00 15 C 95 % 14.21 C
3798 13-07-2019 04:25:00 15 C 95 % 14.21 C
3799 13-07-2019 04:30:00 15 C 95 % 14.21 C
3800 13-07-2019 04:35:00 15 C 95 % 14.21 C
Sensor: Nr:Datum:Temp:Feuchte:Taupunkt:
Aussen-T/F 3801 13-07-2019 04:40:00 14.9 C 95 % 14.11 C
3802 13-07-2019 04:45:00 14.9 C 95 % 14.11 C
3803 13-07-2019 04:50:00 14.9 C 95 % 14.11 C
3804 13-07-2019 04:55:00 14.9 C 96 % 14.27 C
3805 13-07-2019 05:00:00 15 C 96 % 14.37 C
3806 13-07-2019 05:05:00 15 C 96 % 14.37 C
3807 13-07-2019 05:10:00 14.9 C 96 % 14.27 C
3808 13-07-2019 05:15:00 14.9 C 96 % 14.27 C
3809 13-07-2019 05:20:00 14.9 C 96 % 14.27 C
3810 13-07-2019 05:25:00 14.9 C 96 % 14.27 C
3811 13-07-2019 05:30:00 14.9 C 96 % 14.27 C
3812 13-07-2019 05:35:00 14.9 C 96 % 14.27 C
3813 13-07-2019 05:40:00 14.9 C 96 % 14.27 C
3814 13-07-2019 05:45:00 14.9 C 96 % 14.27 C
3815 13-07-2019 05:50:00 14.9 C 96 % 14.27 C
3816 13-07-2019 05:55:00 14.8 C 96 % 14.17 C
3817 13-07-2019 06:00:00 14.8 C 96 % 14.17 C
3818 13-07-2019 06:05:00 14.8 C 96 % 14.17 C
3819 13-07-2019 06:10:00 14.8 C 96 % 14.17 C
3820 13-07-2019 06:15:00 14.8 C 96 % 14.17 C
3821 13-07-2019 06:20:00 14.8 C 96 % 14.17 C
3822 13-07-2019 06:25:00 14.8 C 96 % 14.17 C
3823 13-07-2019 06:30:00 14.7 C 96 % 14.07 C
3824 13-07-2019 06:35:00 14.7 C 96 % 14.07 C
3825 13-07-2019 06:40:00 14.7 C 96 % 14.07 C
Sensor: Nr:Datum:Temp:Feuchte:Taupunkt:
Aussen-T/F 3826 13-07-2019 06:45:00 14.7 C 96 % 14.07 C
3827 13-07-2019 06:50:00 14.7 C 96 % 14.07 C
3828 13-07-2019 06:55:00 14.7 C 96 % 14.07 C
3829 13-07-2019 07:00:00 14.7 C 96 % 14.07 C
3830 13-07-2019 07:05:00 14.7 C 96 % 14.07 C
3831 13-07-2019 07:10:00 14.7 C 96 % 14.07 C
3832 13-07-2019 07:15:00 14.8 C 96 % 14.17 C
3833 13-07-2019 07:20:00 14.8 C 96 % 14.17 C
3834 13-07-2019 07:25:00 14.8 C 96 % 14.17 C
3835 13-07-2019 07:30:00 14.9 C 96 % 14.27 C
3836 13-07-2019 07:35:00 14.9 C 96 % 14.27 C
3837 13-07-2019 07:40:00 15.1 C 96 % 14.47 C
3838 13-07-2019 07:45:00 15.2 C 97 % 14.73 C
3839 13-07-2019 07:50:00 15.3 C 97 % 14.83 C
3840 13-07-2019 07:55:00 15.3 C 96 % 14.67 C
3841 13-07-2019 08:00:00 15.4 C 96 % 14.77 C
3842 13-07-2019 08:05:00 15.5 C 97 % 15.03 C
3843 13-07-2019 08:10:00 15.6 C 97 % 15.13 C
3844 13-07-2019 08:15:00 15.6 C 96 % 14.96 C
3845 13-07-2019 08:20:00 15.4 C 96 % 14.77 C
3846 13-07-2019 08:25:00 15.5 C 96 % 14.86 C
3847 13-07-2019 08:30:00 15.6 C 96 % 14.96 C
3848 13-07-2019 08:35:00 15.7 C 96 % 15.06 C
3849 13-07-2019 08:40:00 15.7 C 96 % 15.06 C
3850 13-07-2019 08:45:00 15.8 C 96 % 15.16 C
Sensor: Nr:Datum:Temp:Feuchte:Taupunkt:
Aussen-T/F 3851 13-07-2019 08:50:00 15.8 C 96 % 15.16 C
3852 13-07-2019 08:55:00 15.8 C 96 % 15.16 C
3853 13-07-2019 09:00:00 15.7 C 96 % 15.06 C
3854 13-07-2019 09:05:00 15.7 C 96 % 15.06 C
3855 13-07-2019 09:10:00 15.7 C 96 % 15.06 C
3856 13-07-2019 09:15:00 15.7 C 96 % 15.06 C
3857 13-07-2019 09:20:00 15.8 C 96 % 15.16 C
3858 13-07-2019 09:25:00 15.9 C 96 % 15.26 C
3859 13-07-2019 09:30:00 16 C 96 % 15.36 C
3860 13-07-2019 09:35:00 15.9 C 95 % 15.1 C
3861 13-07-2019 09:40:00 15.8 C 95 % 15 C
3862 13-07-2019 09:45:00 15.9 C 95 % 15.1 C
3863 13-07-2019 09:50:00 15.9 C 95 % 15.1 C
3864 13-07-2019 09:55:00 16 C 94 % 15.03 C
3865 13-07-2019 10:00:00 16.1 C 93 % 14.97 C
3866 13-07-2019 10:05:00 16.1 C 93 % 14.97 C
3867 13-07-2019 10:10:00 16.2 C 93 % 15.07 C
3868 13-07-2019 10:15:00 16.3 C 92 % 15 C
3869 13-07-2019 10:20:00 16.4 C 91 % 14.93 C
3870 13-07-2019 10:25:00 16.6 C 90 % 14.95 C
3871 13-07-2019 10:30:00 16.7 C 90 % 15.05 C
3872 13-07-2019 10:35:00 16.7 C 89 % 14.88 C
3873 13-07-2019 10:40:00 16.8 C 89 % 14.98 C
3874 13-07-2019 10:45:00 16.7 C 90 % 15.05 C
3875 13-07-2019 10:50:00 16.7 C 91 % 15.22 C
Sensor: Nr:Datum:Temp:Feuchte:Taupunkt:
Aussen-T/F 3876 13-07-2019 10:55:00 16.7 C 91 % 15.22 C
3877 13-07-2019 11:00:00 16.8 C 92 % 15.49 C
3878 13-07-2019 11:05:00 17 C 92 % 15.69 C
3879 13-07-2019 11:10:00 17 C 90 % 15.35 C
3880 13-07-2019 11:15:00 17.1 C 90 % 15.45 C
3881 13-07-2019 11:20:00 17.3 C 90 % 15.64 C
3882 13-07-2019 11:25:00 17.3 C 88 % 15.29 C
3883 13-07-2019 11:30:00 17.5 C 88 %